<?xml version="1.0" encoding="UTF-8" standalone="no" ?>
<gpx xmlns="http://www.topografix.com/GPX/1/1" xmlns:xsi="http://www.w3.org/2001/XMLSchema-instance" xsi:schemaLocation="http://www.topografix.com/GPX/1/1 http://www.topografix.com/GPX/1/1/gpx.xsd" version="1.1" creator="VisuGPX - https://www.visugpx.com">
  <metadata>
    <name>Champagnat Cyclisme sur route</name>
  </metadata>
  <trk>
    <name><![CDATA[Champagnat Cyclisme sur route_1]]></name>
    <trkseg>
      <trkpt lat="46.48228" lon="5.36819">
        <ele>273</ele>
        <time>2022-06-30T12:13:51Z</time>
      </trkpt>
      <trkpt lat="46.48218" lon="5.36806">
        <ele>272.2</ele>
        <time>2022-06-30T12:13:52Z</time>
      </trkpt>
      <trkpt lat="46.48208" lon="5.36795">
        <ele>271.4</ele>
        <time>2022-06-30T12:13:53Z</time>
      </trkpt>
      <trkpt lat="46.48198" lon="5.36785">
        <ele>271</ele>
        <time>2022-06-30T12:13:54Z</time>
      </trkpt>
      <trkpt lat="46.48176" lon="5.36767">
        <ele>269.6</ele>
        <time>2022-06-30T12:13:56Z</time>
      </trkpt>
      <trkpt lat="46.48165" lon="5.36758">
        <ele>268.6</ele>
        <time>2022-06-30T12:13:57Z</time>
      </trkpt>
      <trkpt lat="46.48155" lon="5.36749">
        <ele>268.2</ele>
        <time>2022-06-30T12:13:58Z</time>
      </trkpt>
      <trkpt lat="46.48135" lon="5.36731">
        <ele>266.6</ele>
        <time>2022-06-30T12:14:00Z</time>
      </trkpt>
      <trkpt lat="46.48114" lon="5.36714">
        <ele>265</ele>
        <time>2022-06-30T12:14:02Z</time>
      </trkpt>
      <trkpt lat="46.48105" lon="5.36706">
        <ele>264.6</ele>
        <time>2022-06-30T12:14:03Z</time>
      </trkpt>
      <trkpt lat="46.48095" lon="5.36698">
        <ele>263.6</ele>
        <time>2022-06-30T12:14:04Z</time>
      </trkpt>
      <trkpt lat="46.48077" lon="5.36685">
        <ele>262.6</ele>
        <time>2022-06-30T12:14:06Z</time>
      </trkpt>
      <trkpt lat="46.48071" lon="5.36678">
        <ele>262</ele>
        <time>2022-06-30T12:14:07Z</time>
      </trkpt>
      <trkpt lat="46.48066" lon="5.36669">
        <ele>261.4</ele>
        <time>2022-06-30T12:14:08Z</time>
      </trkpt>
      <trkpt lat="46.48066" lon="5.3666">
        <ele>260.6</ele>
        <time>2022-06-30T12:14:09Z</time>
      </trkpt>
      <trkpt lat="46.4807" lon="5.3665">
        <ele>260</ele>
        <time>2022-06-30T12:14:10Z</time>
      </trkpt>
      <trkpt lat="46.48077" lon="5.36643">
        <ele>259.2</ele>
        <time>2022-06-30T12:14:11Z</time>
      </trkpt>
      <trkpt lat="46.48084" lon="5.36636">
        <ele>258.8</ele>
        <time>2022-06-30T12:14:12Z</time>
      </trkpt>
      <trkpt lat="46.48092" lon="5.3663">
        <ele>258</ele>
        <time>2022-06-30T12:14:13Z</time>
      </trkpt>
      <trkpt lat="46.48107" lon="5.36617">
        <ele>257.2</ele>
        <time>2022-06-30T12:14:15Z</time>
      </trkpt>
      <trkpt lat="46.48114" lon="5.36611">
        <ele>256.8</ele>
        <time>2022-06-30T12:14:16Z</time>
      </trkpt>
      <trkpt lat="46.48137" lon="5.36592">
        <ele>256.4</ele>
        <time>2022-06-30T12:14:19Z</time>
      </trkpt>
      <trkpt lat="46.48145" lon="5.36587">
        <ele>256.2</ele>
        <time>2022-06-30T12:14:20Z</time>
      </trkpt>
      <trkpt lat="46.48154" lon="5.36584">
        <ele>256.2</ele>
        <time>2022-06-30T12:14:21Z</time>
      </trkpt>
      <trkpt lat="46.48171" lon="5.36575">
        <ele>255.6</ele>
        <time>2022-06-30T12:14:23Z</time>
      </trkpt>
      <trkpt lat="46.48177" lon="5.36566">
        <ele>255.4</ele>
        <time>2022-06-30T12:14:24Z</time>
      </trkpt>
      <trkpt lat="46.48182" lon="5.36557">
        <ele>255.2</ele>
        <time>2022-06-30T12:14:25Z</time>
      </trkpt>
      <trkpt lat="46.48186" lon="5.36547">
        <ele>255.2</ele>
        <time>2022-06-30T12:14:26Z</time>
      </trkpt>
      <trkpt lat="46.48189" lon="5.36537">
        <ele>255</ele>
        <time>2022-06-30T12:14:27Z</time>
      </trkpt>
      <trkpt lat="46.48202" lon="5.3652">
        <ele>254.6</ele>
        <time>2022-06-30T12:14:29Z</time>
      </trkpt>
      <trkpt lat="46.48208" lon="5.36513">
        <ele>254.4</ele>
        <time>2022-06-30T12:14:30Z</time>
      </trkpt>
      <trkpt lat="46.48235" lon="5.36482">
        <ele>253.8</ele>
        <time>2022-06-30T12:14:34Z</time>
      </trkpt>
      <trkpt lat="46.48271" lon="5.36442">
        <ele>253</ele>
        <time>2022-06-30T12:14:39Z</time>
      </trkpt>
      <trkpt lat="46.48285" lon="5.36425">
        <ele>252.8</ele>
        <time>2022-06-30T12:14:41Z</time>
      </trkpt>
      <trkpt lat="46.48322" lon="5.36384">
        <ele>251.4</ele>
        <time>2022-06-30T12:14:46Z</time>
      </trkpt>
      <trkpt lat="46.48329" lon="5.36376">
        <ele>251.2</ele>
        <time>2022-06-30T12:14:47Z</time>
      </trkpt>
      <trkpt lat="46.48351" lon="5.36352">
        <ele>250.2</ele>
        <time>2022-06-30T12:14:50Z</time>
      </trkpt>
      <trkpt lat="46.48382" lon="5.36328">
        <ele>249.4</ele>
        <time>2022-06-30T12:14:54Z</time>
      </trkpt>
      <trkpt lat="46.48398" lon="5.36322">
        <ele>249.2</ele>
        <time>2022-06-30T12:14:56Z</time>
      </trkpt>
      <trkpt lat="46.48413" lon="5.36319">
        <ele>249</ele>
        <time>2022-06-30T12:14:58Z</time>
      </trkpt>
      <trkpt lat="46.4846" lon="5.36311">
        <ele>248.8</ele>
        <time>2022-06-30T12:15:04Z</time>
      </trkpt>
      <trkpt lat="46.48468" lon="5.36309">
        <ele>248.8</ele>
        <time>2022-06-30T12:15:05Z</time>
      </trkpt>
      <trkpt lat="46.48511" lon="5.36301">
        <ele>248.4</ele>
        <time>2022-06-30T12:15:11Z</time>
      </trkpt>
      <trkpt lat="46.48519" lon="5.363">
        <ele>248.4</ele>
        <time>2022-06-30T12:15:12Z</time>
      </trkpt>
      <trkpt lat="46.48558" lon="5.36293">
        <ele>247.4</ele>
        <time>2022-06-30T12:15:17Z</time>
      </trkpt>
      <trkpt lat="46.48574" lon="5.36288">
        <ele>247</ele>
        <time>2022-06-30T12:15:19Z</time>
      </trkpt>
      <trkpt lat="46.48581" lon="5.36282">
        <ele>247</ele>
        <time>2022-06-30T12:15:20Z</time>
      </trkpt>
      <trkpt lat="46.48588" lon="5.36275">
        <ele>246.6</ele>
        <time>2022-06-30T12:15:21Z</time>
      </trkpt>
      <trkpt lat="46.48593" lon="5.36264">
        <ele>246.4</ele>
        <time>2022-06-30T12:15:22Z</time>
      </trkpt>
      <trkpt lat="46.48596" lon="5.36251">
        <ele>246</ele>
        <time>2022-06-30T12:15:23Z</time>
      </trkpt>
      <trkpt lat="46.48599" lon="5.36225">
        <ele>245.6</ele>
        <time>2022-06-30T12:15:25Z</time>
      </trkpt>
      <trkpt lat="46.48601" lon="5.36212">
        <ele>245</ele>
        <time>2022-06-30T12:15:26Z</time>
      </trkpt>
      <trkpt lat="46.48603" lon="5.36185">
        <ele>243.8</ele>
        <time>2022-06-30T12:15:28Z</time>
      </trkpt>
      <trkpt lat="46.48607" lon="5.36133">
        <ele>242.8</ele>
        <time>2022-06-30T12:15:32Z</time>
      </trkpt>
      <trkpt lat="46.48608" lon="5.3612">
        <ele>242.6</ele>
        <time>2022-06-30T12:15:33Z</time>
      </trkpt>
      <trkpt lat="46.48618" lon="5.3607">
        <ele>241.8</ele>
        <time>2022-06-30T12:15:37Z</time>
      </trkpt>
      <trkpt lat="46.48629" lon="5.36025">
        <ele>241.6</ele>
        <time>2022-06-30T12:15:41Z</time>
      </trkpt>
      <trkpt lat="46.48632" lon="5.36014">
        <ele>241.6</ele>
        <time>2022-06-30T12:15:42Z</time>
      </trkpt>
      <trkpt lat="46.48641" lon="5.35969">
        <ele>241.8</ele>
        <time>2022-06-30T12:15:47Z</time>
      </trkpt>
      <trkpt lat="46.48642" lon="5.35961">
        <ele>242</ele>
        <time>2022-06-30T12:15:48Z</time>
      </trkpt>
      <trkpt lat="46.48643" lon="5.35947">
        <ele>242.2</ele>
        <time>2022-06-30T12:15:50Z</time>
      </trkpt>
      <trkpt lat="46.48644" lon="5.35938">
        <ele>242.4</ele>
        <time>2022-06-30T12:15:51Z</time>
      </trkpt>
      <trkpt lat="46.48647" lon="5.35919">
        <ele>242.8</ele>
        <time>2022-06-30T12:15:53Z</time>
      </trkpt>
      <trkpt lat="46.4865" lon="5.35899">
        <ele>242.8</ele>
        <time>2022-06-30T12:15:55Z</time>
      </trkpt>
      <trkpt lat="46.4867" lon="5.35841">
        <ele>243</ele>
        <time>2022-06-30T12:16:01Z</time>
      </trkpt>
      <trkpt lat="46.48698" lon="5.35774">
        <ele>241.8</ele>
        <time>2022-06-30T12:16:08Z</time>
      </trkpt>
      <trkpt lat="46.48702" lon="5.35765">
        <ele>241.6</ele>
        <time>2022-06-30T12:16:09Z</time>
      </trkpt>
      <trkpt lat="46.48726" lon="5.35708">
        <ele>240.6</ele>
        <time>2022-06-30T12:16:15Z</time>
      </trkpt>
      <trkpt lat="46.4873" lon="5.35699">
        <ele>240.4</ele>
        <time>2022-06-30T12:16:16Z</time>
      </trkpt>
      <trkpt lat="46.48757" lon="5.35638">
        <ele>240</ele>
        <time>2022-06-30T12:16:23Z</time>
      </trkpt>
      <trkpt lat="46.48788" lon="5.35572">
        <ele>240.2</ele>
        <time>2022-06-30T12:16:31Z</time>
      </trkpt>
      <trkpt lat="46.48799" lon="5.35548">
        <ele>240.2</ele>
        <time>2022-06-30T12:16:34Z</time>
      </trkpt>
      <trkpt lat="46.4881" lon="5.35537">
        <ele>240.2</ele>
        <time>2022-06-30T12:16:36Z</time>
      </trkpt>
      <trkpt lat="46.48824" lon="5.35533">
        <ele>240.2</ele>
        <time>2022-06-30T12:16:38Z</time>
      </trkpt>
      <trkpt lat="46.48831" lon="5.35532">
        <ele>240.4</ele>
        <time>2022-06-30T12:16:39Z</time>
      </trkpt>
      <trkpt lat="46.48853" lon="5.35532">
        <ele>240.2</ele>
        <time>2022-06-30T12:16:42Z</time>
      </trkpt>
      <trkpt lat="46.48896" lon="5.3553">
        <ele>239.8</ele>
        <time>2022-06-30T12:16:48Z</time>
      </trkpt>
      <trkpt lat="46.48913" lon="5.3553">
        <ele>239.6</ele>
        <time>2022-06-30T12:16:50Z</time>
      </trkpt>
      <trkpt lat="46.48944" lon="5.3553">
        <ele>238.6</ele>
        <time>2022-06-30T12:16:54Z</time>
      </trkpt>
      <trkpt lat="46.48952" lon="5.35529">
        <ele>238.4</ele>
        <time>2022-06-30T12:16:55Z</time>
      </trkpt>
      <trkpt lat="46.49001" lon="5.35525">
        <ele>237.8</ele>
        <time>2022-06-30T12:17:01Z</time>
      </trkpt>
      <trkpt lat="46.49008" lon="5.35524">
        <ele>237.8</ele>
        <time>2022-06-30T12:17:02Z</time>
      </trkpt>
      <trkpt lat="46.49028" lon="5.35523">
        <ele>237.8</ele>
        <time>2022-06-30T12:17:05Z</time>
      </trkpt>
      <trkpt lat="46.49046" lon="5.35522">
        <ele>238</ele>
        <time>2022-06-30T12:17:09Z</time>
      </trkpt>
      <trkpt lat="46.49072" lon="5.35521">
        <ele>239.6</ele>
        <time>2022-06-30T12:17:15Z</time>
      </trkpt>
      <trkpt lat="46.49075" lon="5.35522">
        <ele>239.8</ele>
        <time>2022-06-30T12:17:16Z</time>
      </trkpt>
      <trkpt lat="46.49086" lon="5.35523">
        <ele>240.2</ele>
        <time>2022-06-30T12:17:19Z</time>
      </trkpt>
      <trkpt lat="46.49099" lon="5.3552">
        <ele>240.6</ele>
        <time>2022-06-30T12:17:23Z</time>
      </trkpt>
      <trkpt lat="46.49102" lon="5.35521">
        <ele>240.8</ele>
        <time>2022-06-30T12:17:24Z</time>
      </trkpt>
      <trkpt lat="46.4912" lon="5.35521">
        <ele>241.4</ele>
        <time>2022-06-30T12:17:29Z</time>
      </trkpt>
      <trkpt lat="46.49125" lon="5.35521">
        <ele>241.6</ele>
        <time>2022-06-30T12:17:30Z</time>
      </trkpt>
      <trkpt lat="46.49131" lon="5.3552">
        <ele>241.8</ele>
        <time>2022-06-30T12:17:31Z</time>
      </trkpt>
      <trkpt lat="46.4915" lon="5.35521">
        <ele>242</ele>
        <time>2022-06-30T12:17:35Z</time>
      </trkpt>
      <trkpt lat="46.49165" lon="5.35522">
        <ele>242</ele>
        <time>2022-06-30T12:17:38Z</time>
      </trkpt>
      <trkpt lat="46.49176" lon="5.35521">
        <ele>242</ele>
        <time>2022-06-30T12:17:40Z</time>
      </trkpt>
      <trkpt lat="46.49206" lon="5.35521">
        <ele>241.8</ele>
        <time>2022-06-30T12:17:46Z</time>
      </trkpt>
      <trkpt lat="46.49237" lon="5.3552">
        <ele>241.4</ele>
        <time>2022-06-30T12:17:51Z</time>
      </trkpt>
      <trkpt lat="46.49261" lon="5.35522">
        <ele>241</ele>
        <time>2022-06-30T12:17:54Z</time>
      </trkpt>
      <trkpt lat="46.49277" lon="5.35525">
        <ele>240.8</ele>
        <time>2022-06-30T12:17:56Z</time>
      </trkpt>
      <trkpt lat="46.49313" lon="5.35539">
        <ele>240.2</ele>
        <time>2022-06-30T12:18:01Z</time>
      </trkpt>
      <trkpt lat="46.49367" lon="5.35561">
        <ele>239.8</ele>
        <time>2022-06-30T12:18:08Z</time>
      </trkpt>
      <trkpt lat="46.49382" lon="5.35567">
        <ele>239.6</ele>
        <time>2022-06-30T12:18:10Z</time>
      </trkpt>
      <trkpt lat="46.49428" lon="5.35585">
        <ele>239.4</ele>
        <time>2022-06-30T12:18:16Z</time>
      </trkpt>
      <trkpt lat="46.49459" lon="5.35596">
        <ele>238.6</ele>
        <time>2022-06-30T12:18:20Z</time>
      </trkpt>
      <trkpt lat="46.49507" lon="5.35609">
        <ele>237.8</ele>
        <time>2022-06-30T12:18:26Z</time>
      </trkpt>
      <trkpt lat="46.49533" lon="5.35616">
        <ele>237.6</ele>
        <time>2022-06-30T12:18:29Z</time>
      </trkpt>
      <trkpt lat="46.49564" lon="5.35625">
        <ele>237.2</ele>
        <time>2022-06-30T12:18:33Z</time>
      </trkpt>
      <trkpt lat="46.4959" lon="5.35633">
        <ele>236.6</ele>
        <time>2022-06-30T12:18:37Z</time>
      </trkpt>
      <trkpt lat="46.49595" lon="5.35634">
        <ele>236.4</ele>
        <time>2022-06-30T12:18:38Z</time>
      </trkpt>
      <trkpt lat="46.49607" lon="5.35628">
        <ele>235.8</ele>
        <time>2022-06-30T12:18:41Z</time>
      </trkpt>
      <trkpt lat="46.49606" lon="5.35609">
        <ele>235.6</ele>
        <time>2022-06-30T12:18:42Z</time>
      </trkpt>
      <trkpt lat="46.49613" lon="5.35604">
        <ele>235.2</ele>
        <time>2022-06-30T12:18:43Z</time>
      </trkpt>
      <trkpt lat="46.49633" lon="5.3557">
        <ele>234.8</ele>
        <time>2022-06-30T12:18:47Z</time>
      </trkpt>
      <trkpt lat="46.4966" lon="5.35514">
        <ele>234.6</ele>
        <time>2022-06-30T12:18:53Z</time>
      </trkpt>
      <trkpt lat="46.49674" lon="5.35477">
        <ele>234.2</ele>
        <time>2022-06-30T12:18:57Z</time>
      </trkpt>
      <trkpt lat="46.49685" lon="5.35448">
        <ele>234</ele>
        <time>2022-06-30T12:19:00Z</time>
      </trkpt>
      <trkpt lat="46.49707" lon="5.35364">
        <ele>233</ele>
        <time>2022-06-30T12:19:08Z</time>
      </trkpt>
      <trkpt lat="46.49708" lon="5.35301">
        <ele>232.4</ele>
        <time>2022-06-30T12:19:14Z</time>
      </trkpt>
      <trkpt lat="46.49707" lon="5.35283">
        <ele>232.2</ele>
        <time>2022-06-30T12:19:16Z</time>
      </trkpt>
      <trkpt lat="46.49704" lon="5.35258">
        <ele>232.2</ele>
        <time>2022-06-30T12:19:19Z</time>
      </trkpt>
      <trkpt lat="46.49701" lon="5.35218">
        <ele>232.6</ele>
        <time>2022-06-30T12:19:24Z</time>
      </trkpt>
      <trkpt lat="46.49701" lon="5.35211">
        <ele>232.8</ele>
        <time>2022-06-30T12:19:25Z</time>
      </trkpt>
      <trkpt lat="46.49698" lon="5.35163">
        <ele>233.4</ele>
        <time>2022-06-30T12:19:31Z</time>
      </trkpt>
      <trkpt lat="46.4969" lon="5.35114">
        <ele>232.8</ele>
        <time>2022-06-30T12:19:36Z</time>
      </trkpt>
      <trkpt lat="46.4969" lon="5.35105">
        <ele>232.8</ele>
        <time>2022-06-30T12:19:37Z</time>
      </trkpt>
      <trkpt lat="46.49689" lon="5.35088">
        <ele>232.6</ele>
        <time>2022-06-30T12:19:39Z</time>
      </trkpt>
      <trkpt lat="46.49688" lon="5.3508">
        <ele>232.4</ele>
        <time>2022-06-30T12:19:40Z</time>
      </trkpt>
      <trkpt lat="46.49688" lon="5.35049">
        <ele>232.6</ele>
        <time>2022-06-30T12:19:44Z</time>
      </trkpt>
      <trkpt lat="46.49689" lon="5.35042">
        <ele>232.6</ele>
        <time>2022-06-30T12:19:45Z</time>
      </trkpt>
      <trkpt lat="46.49695" lon="5.34997">
        <ele>233.2</ele>
        <time>2022-06-30T12:19:52Z</time>
      </trkpt>
      <trkpt lat="46.49696" lon="5.3499">
        <ele>233.4</ele>
        <time>2022-06-30T12:19:53Z</time>
      </trkpt>
      <trkpt lat="46.49701" lon="5.34973">
        <ele>233.6</ele>
        <time>2022-06-30T12:19:56Z</time>
      </trkpt>
      <trkpt lat="46.49702" lon="5.34966">
        <ele>233.6</ele>
        <time>2022-06-30T12:19:57Z</time>
      </trkpt>
      <trkpt lat="46.49701" lon="5.34943">
        <ele>233.8</ele>
        <time>2022-06-30T12:20:00Z</time>
      </trkpt>
      <trkpt lat="46.49701" lon="5.34936">
        <ele>234</ele>
        <time>2022-06-30T12:20:01Z</time>
      </trkpt>
      <trkpt lat="46.497" lon="5.3492">
        <ele>234</ele>
        <time>2022-06-30T12:20:03Z</time>
      </trkpt>
      <trkpt lat="46.49699" lon="5.34911">
        <ele>234.2</ele>
        <time>2022-06-30T12:20:04Z</time>
      </trkpt>
      <trkpt lat="46.49698" lon="5.34903">
        <ele>234.2</ele>
        <time>2022-06-30T12:20:05Z</time>
      </trkpt>
      <trkpt lat="46.49697" lon="5.34896">
        <ele>234.4</ele>
        <time>2022-06-30T12:20:06Z</time>
      </trkpt>
      <trkpt lat="46.49696" lon="5.34886">
        <ele>234.4</ele>
        <time>2022-06-30T12:20:07Z</time>
      </trkpt>
      <trkpt lat="46.49695" lon="5.3484">
        <ele>234</ele>
        <time>2022-06-30T12:20:12Z</time>
      </trkpt>
      <trkpt lat="46.49692" lon="5.34827">
        <ele>233.8</ele>
        <time>2022-06-30T12:20:13Z</time>
      </trkpt>
      <trkpt lat="46.49692" lon="5.34815">
        <ele>233.8</ele>
        <time>2022-06-30T12:20:14Z</time>
      </trkpt>
      <trkpt lat="46.49687" lon="5.34787">
        <ele>233.4</ele>
        <time>2022-06-30T12:20:16Z</time>
      </trkpt>
      <trkpt lat="46.49684" lon="5.34774">
        <ele>233.2</ele>
        <time>2022-06-30T12:20:17Z</time>
      </trkpt>
      <trkpt lat="46.49678" lon="5.34748">
        <ele>233</ele>
        <time>2022-06-30T12:20:19Z</time>
      </trkpt>
      <trkpt lat="46.49674" lon="5.34719">
        <ele>232.4</ele>
        <time>2022-06-30T12:20:21Z</time>
      </trkpt>
      <trkpt lat="46.49672" lon="5.34706">
        <ele>232</ele>
        <time>2022-06-30T12:20:22Z</time>
      </trkpt>
      <trkpt lat="46.49671" lon="5.34691">
        <ele>231.6</ele>
        <time>2022-06-30T12:20:23Z</time>
      </trkpt>
      <trkpt lat="46.49669" lon="5.34645">
        <ele>231</ele>
        <time>2022-06-30T12:20:26Z</time>
      </trkpt>
      <trkpt lat="46.4967" lon="5.34598">
        <ele>229.6</ele>
        <time>2022-06-30T12:20:29Z</time>
      </trkpt>
      <trkpt lat="46.49671" lon="5.34557">
        <ele>228.4</ele>
        <time>2022-06-30T12:20:32Z</time>
      </trkpt>
      <trkpt lat="46.49671" lon="5.34543">
        <ele>228.2</ele>
        <time>2022-06-30T12:20:33Z</time>
      </trkpt>
      <trkpt lat="46.49673" lon="5.34531">
        <ele>228</ele>
        <time>2022-06-30T12:20:34Z</time>
      </trkpt>
      <trkpt lat="46.4968" lon="5.34476">
        <ele>227.8</ele>
        <time>2022-06-30T12:20:39Z</time>
      </trkpt>
      <trkpt lat="46.49684" lon="5.34457">
        <ele>228</ele>
        <time>2022-06-30T12:20:41Z</time>
      </trkpt>
      <trkpt lat="46.49687" lon="5.34441">
        <ele>228.6</ele>
        <time>2022-06-30T12:20:43Z</time>
      </trkpt>
      <trkpt lat="46.49689" lon="5.34436">
        <ele>228.8</ele>
        <time>2022-06-30T12:20:44Z</time>
      </trkpt>
      <trkpt lat="46.49693" lon="5.34406">
        <ele>229.4</ele>
        <time>2022-06-30T12:20:48Z</time>
      </trkpt>
      <trkpt lat="46.49695" lon="5.34398">
        <ele>229.6</ele>
        <time>2022-06-30T12:20:49Z</time>
      </trkpt>
      <trkpt lat="46.49697" lon="5.34391">
        <ele>229.8</ele>
        <time>2022-06-30T12:20:50Z</time>
      </trkpt>
      <trkpt lat="46.49704" lon="5.34371">
        <ele>230.6</ele>
        <time>2022-06-30T12:20:53Z</time>
      </trkpt>
      <trkpt lat="46.49707" lon="5.34365">
        <ele>230.8</ele>
        <time>2022-06-30T12:20:54Z</time>
      </trkpt>
      <trkpt lat="46.49718" lon="5.34339">
        <ele>231.6</ele>
        <time>2022-06-30T12:20:58Z</time>
      </trkpt>
      <trkpt lat="46.4972" lon="5.34331">
        <ele>231.8</ele>
        <time>2022-06-30T12:20:59Z</time>
      </trkpt>
      <trkpt lat="46.49723" lon="5.34324">
        <ele>232</ele>
        <time>2022-06-30T12:21:00Z</time>
      </trkpt>
      <trkpt lat="46.49734" lon="5.34293">
        <ele>232.2</ele>
        <time>2022-06-30T12:21:04Z</time>
      </trkpt>
      <trkpt lat="46.49758" lon="5.34249">
        <ele>232.2</ele>
        <time>2022-06-30T12:21:10Z</time>
      </trkpt>
      <trkpt lat="46.4977" lon="5.34228">
        <ele>232.2</ele>
        <time>2022-06-30T12:21:13Z</time>
      </trkpt>
      <trkpt lat="46.49782" lon="5.34208">
        <ele>232.2</ele>
        <time>2022-06-30T12:21:16Z</time>
      </trkpt>
      <trkpt lat="46.49808" lon="5.34163">
        <ele>232.4</ele>
        <time>2022-06-30T12:21:23Z</time>
      </trkpt>
      <trkpt lat="46.49815" lon="5.3415">
        <ele>232.4</ele>
        <time>2022-06-30T12:21:25Z</time>
      </trkpt>
      <trkpt lat="46.49823" lon="5.34137">
        <ele>232.6</ele>
        <time>2022-06-30T12:21:27Z</time>
      </trkpt>
      <trkpt lat="46.49827" lon="5.3413">
        <ele>232.4</ele>
        <time>2022-06-30T12:21:28Z</time>
      </trkpt>
      <trkpt lat="46.49866" lon="5.34064">
        <ele>232.4</ele>
        <time>2022-06-30T12:21:37Z</time>
      </trkpt>
      <trkpt lat="46.49911" lon="5.34011">
        <ele>232.4</ele>
        <time>2022-06-30T12:21:46Z</time>
      </trkpt>
      <trkpt lat="46.49915" lon="5.34006">
        <ele>232.4</ele>
        <time>2022-06-30T12:21:47Z</time>
      </trkpt>
      <trkpt lat="46.49928" lon="5.33991">
        <ele>232.8</ele>
        <time>2022-06-30T12:21:50Z</time>
      </trkpt>
      <trkpt lat="46.49944" lon="5.33971">
        <ele>233.6</ele>
        <time>2022-06-30T12:21:54Z</time>
      </trkpt>
      <trkpt lat="46.49948" lon="5.33966">
        <ele>233.8</ele>
        <time>2022-06-30T12:21:55Z</time>
      </trkpt>
      <trkpt lat="46.49953" lon="5.33962">
        <ele>233.8</ele>
        <time>2022-06-30T12:21:56Z</time>
      </trkpt>
      <trkpt lat="46.49965" lon="5.33948">
        <ele>234.2</ele>
        <time>2022-06-30T12:21:59Z</time>
      </trkpt>
      <trkpt lat="46.49981" lon="5.33929">
        <ele>235</ele>
        <time>2022-06-30T12:22:03Z</time>
      </trkpt>
      <trkpt lat="46.49989" lon="5.3392">
        <ele>235.2</ele>
        <time>2022-06-30T12:22:05Z</time>
      </trkpt>
      <trkpt lat="46.49994" lon="5.33915">
        <ele>235.2</ele>
        <time>2022-06-30T12:22:06Z</time>
      </trkpt>
      <trkpt lat="46.49998" lon="5.3391">
        <ele>235.2</ele>
        <time>2022-06-30T12:22:07Z</time>
      </trkpt>
      <trkpt lat="46.50017" lon="5.33887">
        <ele>235.4</ele>
        <time>2022-06-30T12:22:11Z</time>
      </trkpt>
      <trkpt lat="46.50054" lon="5.33848">
        <ele>235</ele>
        <time>2022-06-30T12:22:17Z</time>
      </trkpt>
      <trkpt lat="46.50093" lon="5.33805">
        <ele>234.2</ele>
        <time>2022-06-30T12:22:23Z</time>
      </trkpt>
      <trkpt lat="46.50099" lon="5.33798">
        <ele>233.8</ele>
        <time>2022-06-30T12:22:24Z</time>
      </trkpt>
      <trkpt lat="46.50136" lon="5.33757">
        <ele>233.2</ele>
        <time>2022-06-30T12:22:30Z</time>
      </trkpt>
      <trkpt lat="46.50169" lon="5.33722">
        <ele>233.4</ele>
        <time>2022-06-30T12:22:36Z</time>
      </trkpt>
      <trkpt lat="46.50201" lon="5.33687">
        <ele>233.6</ele>
        <time>2022-06-30T12:22:42Z</time>
      </trkpt>
      <trkpt lat="46.50236" lon="5.33648">
        <ele>233.6</ele>
        <time>2022-06-30T12:22:48Z</time>
      </trkpt>
      <trkpt lat="46.50283" lon="5.33597">
        <ele>233.2</ele>
        <time>2022-06-30T12:22:56Z</time>
      </trkpt>
      <trkpt lat="46.50289" lon="5.3359">
        <ele>233.2</ele>
        <time>2022-06-30T12:22:57Z</time>
      </trkpt>
      <trkpt lat="46.50313" lon="5.33565">
        <ele>232.6</ele>
        <time>2022-06-30T12:23:01Z</time>
      </trkpt>
      <trkpt lat="46.50344" lon="5.33535">
        <ele>232.2</ele>
        <time>2022-06-30T12:23:06Z</time>
      </trkpt>
      <trkpt lat="46.50386" lon="5.33491">
        <ele>231.8</ele>
        <time>2022-06-30T12:23:13Z</time>
      </trkpt>
      <trkpt lat="46.5041" lon="5.33465">
        <ele>231.4</ele>
        <time>2022-06-30T12:23:17Z</time>
      </trkpt>
      <trkpt lat="46.50423" lon="5.3345">
        <ele>231</ele>
        <time>2022-06-30T12:23:19Z</time>
      </trkpt>
      <trkpt lat="46.50448" lon="5.33402">
        <ele>230.4</ele>
        <time>2022-06-30T12:23:24Z</time>
      </trkpt>
      <trkpt lat="46.50451" lon="5.33391">
        <ele>230.2</ele>
        <time>2022-06-30T12:23:25Z</time>
      </trkpt>
      <trkpt lat="46.50457" lon="5.33357">
        <ele>230</ele>
        <time>2022-06-30T12:23:28Z</time>
      </trkpt>
      <trkpt lat="46.5046" lon="5.33336">
        <ele>229.8</ele>
        <time>2022-06-30T12:23:30Z</time>
      </trkpt>
      <trkpt lat="46.50464" lon="5.33304">
        <ele>229.6</ele>
        <time>2022-06-30T12:23:33Z</time>
      </trkpt>
      <trkpt lat="46.50465" lon="5.33283">
        <ele>229.8</ele>
        <time>2022-06-30T12:23:35Z</time>
      </trkpt>
      <trkpt lat="46.50466" lon="5.33263">
        <ele>229.8</ele>
        <time>2022-06-30T12:23:37Z</time>
      </trkpt>
      <trkpt lat="46.50466" lon="5.33244">
        <ele>230</ele>
        <time>2022-06-30T12:23:39Z</time>
      </trkpt>
      <trkpt lat="46.50466" lon="5.33214">
        <ele>230.2</ele>
        <time>2022-06-30T12:23:42Z</time>
      </trkpt>
      <trkpt lat="46.50468" lon="5.33138">
        <ele>230.6</ele>
        <time>2022-06-30T12:23:49Z</time>
      </trkpt>
      <trkpt lat="46.50468" lon="5.33102">
        <ele>230</ele>
        <time>2022-06-30T12:23:52Z</time>
      </trkpt>
      <trkpt lat="46.50469" lon="5.33076">
        <ele>229.4</ele>
        <time>2022-06-30T12:23:54Z</time>
      </trkpt>
      <trkpt lat="46.50472" lon="5.33024">
        <ele>228.2</ele>
        <time>2022-06-30T12:23:58Z</time>
      </trkpt>
      <trkpt lat="46.50473" lon="5.3301">
        <ele>227.8</ele>
        <time>2022-06-30T12:23:59Z</time>
      </trkpt>
      <trkpt lat="46.50474" lon="5.32983">
        <ele>226.8</ele>
        <time>2022-06-30T12:24:01Z</time>
      </trkpt>
      <trkpt lat="46.50475" lon="5.32941">
        <ele>225.2</ele>
        <time>2022-06-30T12:24:04Z</time>
      </trkpt>
      <trkpt lat="46.50475" lon="5.32913">
        <ele>224</ele>
        <time>2022-06-30T12:24:06Z</time>
      </trkpt>
      <trkpt lat="46.50475" lon="5.32871">
        <ele>222.6</ele>
        <time>2022-06-30T12:24:09Z</time>
      </trkpt>
      <trkpt lat="46.50475" lon="5.32843">
        <ele>221.6</ele>
        <time>2022-06-30T12:24:11Z</time>
      </trkpt>
      <trkpt lat="46.50476" lon="5.32814">
        <ele>220.6</ele>
        <time>2022-06-30T12:24:13Z</time>
      </trkpt>
      <trkpt lat="46.50476" lon="5.32801">
        <ele>220.4</ele>
        <time>2022-06-30T12:24:14Z</time>
      </trkpt>
      <trkpt lat="46.50476" lon="5.32775">
        <ele>219.2</ele>
        <time>2022-06-30T12:24:16Z</time>
      </trkpt>
      <trkpt lat="46.50478" lon="5.32726">
        <ele>218.4</ele>
        <time>2022-06-30T12:24:20Z</time>
      </trkpt>
      <trkpt lat="46.50478" lon="5.32702">
        <ele>218.2</ele>
        <time>2022-06-30T12:24:22Z</time>
      </trkpt>
      <trkpt lat="46.50479" lon="5.32628">
        <ele>217.4</ele>
        <time>2022-06-30T12:24:28Z</time>
      </trkpt>
      <trkpt lat="46.50479" lon="5.32592">
        <ele>217</ele>
        <time>2022-06-30T12:24:31Z</time>
      </trkpt>
      <trkpt lat="46.50475" lon="5.3252">
        <ele>216.2</ele>
        <time>2022-06-30T12:24:37Z</time>
      </trkpt>
      <trkpt lat="46.50473" lon="5.32496">
        <ele>216</ele>
        <time>2022-06-30T12:24:39Z</time>
      </trkpt>
      <trkpt lat="46.50465" lon="5.32426">
        <ele>215.2</ele>
        <time>2022-06-30T12:24:45Z</time>
      </trkpt>
      <trkpt lat="46.50463" lon="5.32415">
        <ele>215</ele>
        <time>2022-06-30T12:24:46Z</time>
      </trkpt>
      <trkpt lat="46.50446" lon="5.32339">
        <ele>214.2</ele>
        <time>2022-06-30T12:24:53Z</time>
      </trkpt>
      <trkpt lat="46.50444" lon="5.32329">
        <ele>214.2</ele>
        <time>2022-06-30T12:24:54Z</time>
      </trkpt>
      <trkpt lat="46.50442" lon="5.32319">
        <ele>214</ele>
        <time>2022-06-30T12:24:55Z</time>
      </trkpt>
      <trkpt lat="46.50433" lon="5.32267">
        <ele>213.8</ele>
        <time>2022-06-30T12:25:00Z</time>
      </trkpt>
      <trkpt lat="46.50433" lon="5.32257">
        <ele>213.8</ele>
        <time>2022-06-30T12:25:01Z</time>
      </trkpt>
      <trkpt lat="46.50433" lon="5.32203">
        <ele>214</ele>
        <time>2022-06-30T12:25:06Z</time>
      </trkpt>
      <trkpt lat="46.50434" lon="5.32125">
        <ele>213.4</ele>
        <time>2022-06-30T12:25:13Z</time>
      </trkpt>
      <trkpt lat="46.50434" lon="5.32113">
        <ele>213.2</ele>
        <time>2022-06-30T12:25:14Z</time>
      </trkpt>
      <trkpt lat="46.50434" lon="5.32101">
        <ele>213</ele>
        <time>2022-06-30T12:25:15Z</time>
      </trkpt>
      <trkpt lat="46.50435" lon="5.32032">
        <ele>212.2</ele>
        <time>2022-06-30T12:25:21Z</time>
      </trkpt>
      <trkpt lat="46.50435" lon="5.32021">
        <ele>212.2</ele>
        <time>2022-06-30T12:25:22Z</time>
      </trkpt>
      <trkpt lat="46.50437" lon="5.31933">
        <ele>211.6</ele>
        <time>2022-06-30T12:25:30Z</time>
      </trkpt>
      <trkpt lat="46.50437" lon="5.31879">
        <ele>211.2</ele>
        <time>2022-06-30T12:25:35Z</time>
      </trkpt>
      <trkpt lat="46.50435" lon="5.31858">
        <ele>211</ele>
        <time>2022-06-30T12:25:37Z</time>
      </trkpt>
      <trkpt lat="46.50417" lon="5.31777">
        <ele>210.8</ele>
        <time>2022-06-30T12:25:45Z</time>
      </trkpt>
      <trkpt lat="46.50393" lon="5.31713">
        <ele>210.8</ele>
        <time>2022-06-30T12:25:52Z</time>
      </trkpt>
      <trkpt lat="46.50364" lon="5.31665">
        <ele>211</ele>
        <time>2022-06-30T12:25:58Z</time>
      </trkpt>
      <trkpt lat="46.50357" lon="5.31658">
        <ele>210.8</ele>
        <time>2022-06-30T12:25:59Z</time>
      </trkpt>
      <trkpt lat="46.50318" lon="5.31627">
        <ele>210.6</ele>
        <time>2022-06-30T12:26:05Z</time>
      </trkpt>
      <trkpt lat="46.50298" lon="5.31612">
        <ele>210.2</ele>
        <time>2022-06-30T12:26:08Z</time>
      </trkpt>
      <trkpt lat="46.50267" lon="5.31585">
        <ele>209.8</ele>
        <time>2022-06-30T12:26:13Z</time>
      </trkpt>
      <trkpt lat="46.50235" lon="5.31548">
        <ele>209.8</ele>
        <time>2022-06-30T12:26:19Z</time>
      </trkpt>
      <trkpt lat="46.50217" lon="5.31514">
        <ele>210</ele>
        <time>2022-06-30T12:26:24Z</time>
      </trkpt>
      <trkpt lat="46.50199" lon="5.31462">
        <ele>211.2</ele>
        <time>2022-06-30T12:26:32Z</time>
      </trkpt>
      <trkpt lat="46.50194" lon="5.31449">
        <ele>211.6</ele>
        <time>2022-06-30T12:26:34Z</time>
      </trkpt>
      <trkpt lat="46.50187" lon="5.31425">
        <ele>212.6</ele>
        <time>2022-06-30T12:26:38Z</time>
      </trkpt>
      <trkpt lat="46.50183" lon="5.31413">
        <ele>212.8</ele>
        <time>2022-06-30T12:26:40Z</time>
      </trkpt>
      <trkpt lat="46.50175" lon="5.31384">
        <ele>213.8</ele>
        <time>2022-06-30T12:26:45Z</time>
      </trkpt>
      <trkpt lat="46.50171" lon="5.31373">
        <ele>214</ele>
        <time>2022-06-30T12:26:47Z</time>
      </trkpt>
      <trkpt lat="46.50168" lon="5.31361">
        <ele>214.6</ele>
        <time>2022-06-30T12:26:49Z</time>
      </trkpt>
      <trkpt lat="46.50161" lon="5.31342">
        <ele>215</ele>
        <time>2022-06-30T12:26:52Z</time>
      </trkpt>
      <trkpt lat="46.50143" lon="5.31293">
        <ele>216.4</ele>
        <time>2022-06-30T12:26:59Z</time>
      </trkpt>
      <trkpt lat="46.50138" lon="5.31278">
        <ele>216.8</ele>
        <time>2022-06-30T12:27:01Z</time>
      </trkpt>
      <trkpt lat="46.50117" lon="5.3122">
        <ele>216.8</ele>
        <time>2022-06-30T12:27:08Z</time>
      </trkpt>
      <trkpt lat="46.50094" lon="5.31155">
        <ele>216</ele>
        <time>2022-06-30T12:27:15Z</time>
      </trkpt>
      <trkpt lat="46.50071" lon="5.31089">
        <ele>215.2</ele>
        <time>2022-06-30T12:27:22Z</time>
      </trkpt>
      <trkpt lat="46.50068" lon="5.3108">
        <ele>215.2</ele>
        <time>2022-06-30T12:27:23Z</time>
      </trkpt>
      <trkpt lat="46.50054" lon="5.31037">
        <ele>215.6</ele>
        <time>2022-06-30T12:27:29Z</time>
      </trkpt>
      <trkpt lat="46.50045" lon="5.31008">
        <ele>216.6</ele>
        <time>2022-06-30T12:27:34Z</time>
      </trkpt>
      <trkpt lat="46.50042" lon="5.30998">
        <ele>217.2</ele>
        <time>2022-06-30T12:27:36Z</time>
      </trkpt>
      <trkpt lat="46.50039" lon="5.30988">
        <ele>217.4</ele>
        <time>2022-06-30T12:27:38Z</time>
      </trkpt>
      <trkpt lat="46.50035" lon="5.30977">
        <ele>217.8</ele>
        <time>2022-06-30T12:27:40Z</time>
      </trkpt>
      <trkpt lat="46.50028" lon="5.30954">
        <ele>218.4</ele>
        <time>2022-06-30T12:27:44Z</time>
      </trkpt>
      <trkpt lat="46.50022" lon="5.30937">
        <ele>219</ele>
        <time>2022-06-30T12:27:47Z</time>
      </trkpt>
      <trkpt lat="46.50012" lon="5.30912">
        <ele>220.2</ele>
        <time>2022-06-30T12:27:52Z</time>
      </trkpt>
      <trkpt lat="46.50003" lon="5.30886">
        <ele>221.6</ele>
        <time>2022-06-30T12:27:57Z</time>
      </trkpt>
      <trkpt lat="46.49995" lon="5.30867">
        <ele>222.4</ele>
        <time>2022-06-30T12:28:01Z</time>
      </trkpt>
      <trkpt lat="46.49992" lon="5.30856">
        <ele>222.8</ele>
        <time>2022-06-30T12:28:03Z</time>
      </trkpt>
      <trkpt lat="46.4998" lon="5.30821">
        <ele>223.8</ele>
        <time>2022-06-30T12:28:09Z</time>
      </trkpt>
      <trkpt lat="46.49968" lon="5.30777">
        <ele>225</ele>
        <time>2022-06-30T12:28:16Z</time>
      </trkpt>
      <trkpt lat="46.49965" lon="5.30764">
        <ele>225.2</ele>
        <time>2022-06-30T12:28:18Z</time>
      </trkpt>
      <trkpt lat="46.49956" lon="5.30704">
        <ele>226</ele>
        <time>2022-06-30T12:28:27Z</time>
      </trkpt>
      <trkpt lat="46.49953" lon="5.30687">
        <ele>226</ele>
        <time>2022-06-30T12:28:29Z</time>
      </trkpt>
      <trkpt lat="46.49947" lon="5.30659">
        <ele>226</ele>
        <time>2022-06-30T12:28:32Z</time>
      </trkpt>
      <trkpt lat="46.49945" lon="5.30649">
        <ele>226</ele>
        <time>2022-06-30T12:28:33Z</time>
      </trkpt>
      <trkpt lat="46.49941" lon="5.30627">
        <ele>225.8</ele>
        <time>2022-06-30T12:28:35Z</time>
      </trkpt>
      <trkpt lat="46.49937" lon="5.30604">
        <ele>225.2</ele>
        <time>2022-06-30T12:28:37Z</time>
      </trkpt>
      <trkpt lat="46.49935" lon="5.30581">
        <ele>224.8</ele>
        <time>2022-06-30T12:28:39Z</time>
      </trkpt>
      <trkpt lat="46.49937" lon="5.30545">
        <ele>224</ele>
        <time>2022-06-30T12:28:42Z</time>
      </trkpt>
      <trkpt lat="46.49938" lon="5.30532">
        <ele>223.6</ele>
        <time>2022-06-30T12:28:43Z</time>
      </trkpt>
      <trkpt lat="46.49944" lon="5.30509">
        <ele>223</ele>
        <time>2022-06-30T12:28:45Z</time>
      </trkpt>
      <trkpt lat="46.49947" lon="5.30498">
        <ele>222.6</ele>
        <time>2022-06-30T12:28:46Z</time>
      </trkpt>
      <trkpt lat="46.49951" lon="5.30487">
        <ele>222.6</ele>
        <time>2022-06-30T12:28:47Z</time>
      </trkpt>
      <trkpt lat="46.49956" lon="5.30476">
        <ele>222.2</ele>
        <time>2022-06-30T12:28:48Z</time>
      </trkpt>
      <trkpt lat="46.49968" lon="5.30457">
        <ele>222</ele>
        <time>2022-06-30T12:28:50Z</time>
      </trkpt>
      <trkpt lat="46.49983" lon="5.30441">
        <ele>221.2</ele>
        <time>2022-06-30T12:28:52Z</time>
      </trkpt>
      <trkpt lat="46.4999" lon="5.30434">
        <ele>220.8</ele>
        <time>2022-06-30T12:28:53Z</time>
      </trkpt>
      <trkpt lat="46.49998" lon="5.30428">
        <ele>220.8</ele>
        <time>2022-06-30T12:28:54Z</time>
      </trkpt>
      <trkpt lat="46.50023" lon="5.30409">
        <ele>219.8</ele>
        <time>2022-06-30T12:28:57Z</time>
      </trkpt>
      <trkpt lat="46.50046" lon="5.30388">
        <ele>219.2</ele>
        <time>2022-06-30T12:29:00Z</time>
      </trkpt>
      <trkpt lat="46.50052" lon="5.3038">
        <ele>219</ele>
        <time>2022-06-30T12:29:01Z</time>
      </trkpt>
      <trkpt lat="46.50068" lon="5.30353">
        <ele>218.6</ele>
        <time>2022-06-30T12:29:04Z</time>
      </trkpt>
      <trkpt lat="46.5008" lon="5.30325">
        <ele>218.2</ele>
        <time>2022-06-30T12:29:07Z</time>
      </trkpt>
      <trkpt lat="46.50082" lon="5.30316">
        <ele>218.2</ele>
        <time>2022-06-30T12:29:08Z</time>
      </trkpt>
      <trkpt lat="46.50088" lon="5.3027">
        <ele>218.4</ele>
        <time>2022-06-30T12:29:13Z</time>
      </trkpt>
      <trkpt lat="46.50091" lon="5.30235">
        <ele>219.2</ele>
        <time>2022-06-30T12:29:17Z</time>
      </trkpt>
      <trkpt lat="46.50091" lon="5.30218">
        <ele>219.6</ele>
        <time>2022-06-30T12:29:19Z</time>
      </trkpt>
      <trkpt lat="46.5009" lon="5.30181">
        <ele>220</ele>
        <time>2022-06-30T12:29:23Z</time>
      </trkpt>
      <trkpt lat="46.5009" lon="5.30163">
        <ele>220.2</ele>
        <time>2022-06-30T12:29:25Z</time>
      </trkpt>
      <trkpt lat="46.5009" lon="5.30086">
        <ele>220.8</ele>
        <time>2022-06-30T12:29:34Z</time>
      </trkpt>
      <trkpt lat="46.50089" lon="5.30018">
        <ele>221</ele>
        <time>2022-06-30T12:29:42Z</time>
      </trkpt>
      <trkpt lat="46.50087" lon="5.30001">
        <ele>221.2</ele>
        <time>2022-06-30T12:29:44Z</time>
      </trkpt>
      <trkpt lat="46.50075" lon="5.29949">
        <ele>221.6</ele>
        <time>2022-06-30T12:29:50Z</time>
      </trkpt>
      <trkpt lat="46.5005" lon="5.29901">
        <ele>221.2</ele>
        <time>2022-06-30T12:29:56Z</time>
      </trkpt>
      <trkpt lat="46.50015" lon="5.29863">
        <ele>220.4</ele>
        <time>2022-06-30T12:30:02Z</time>
      </trkpt>
      <trkpt lat="46.50009" lon="5.29858">
        <ele>220.4</ele>
        <time>2022-06-30T12:30:03Z</time>
      </trkpt>
      <trkpt lat="46.49995" lon="5.29852">
        <ele>220.2</ele>
        <time>2022-06-30T12:30:05Z</time>
      </trkpt>
      <trkpt lat="46.49987" lon="5.29851">
        <ele>220.2</ele>
        <time>2022-06-30T12:30:06Z</time>
      </trkpt>
      <trkpt lat="46.49946" lon="5.29845">
        <ele>220.2</ele>
        <time>2022-06-30T12:30:12Z</time>
      </trkpt>
      <trkpt lat="46.49911" lon="5.29834">
        <ele>220.4</ele>
        <time>2022-06-30T12:30:18Z</time>
      </trkpt>
      <trkpt lat="46.49888" lon="5.29825">
        <ele>221.2</ele>
        <time>2022-06-30T12:30:22Z</time>
      </trkpt>
      <trkpt lat="46.49873" lon="5.29817">
        <ele>221.6</ele>
        <time>2022-06-30T12:30:25Z</time>
      </trkpt>
      <trkpt lat="46.49852" lon="5.29809">
        <ele>222.4</ele>
        <time>2022-06-30T12:30:29Z</time>
      </trkpt>
      <trkpt lat="46.49836" lon="5.29803">
        <ele>222.6</ele>
        <time>2022-06-30T12:30:32Z</time>
      </trkpt>
      <trkpt lat="46.49785" lon="5.29788">
        <ele>223.4</ele>
        <time>2022-06-30T12:30:41Z</time>
      </trkpt>
      <trkpt lat="46.49772" lon="5.29786">
        <ele>223.4</ele>
        <time>2022-06-30T12:30:43Z</time>
      </trkpt>
      <trkpt lat="46.49759" lon="5.29784">
        <ele>223.4</ele>
        <time>2022-06-30T12:30:45Z</time>
      </trkpt>
      <trkpt lat="46.49753" lon="5.29782">
        <ele>223.4</ele>
        <time>2022-06-30T12:30:46Z</time>
      </trkpt>
      <trkpt lat="46.49745" lon="5.29774">
        <ele>223.4</ele>
        <time>2022-06-30T12:30:48Z</time>
      </trkpt>
      <trkpt lat="46.49739" lon="5.2976">
        <ele>223.4</ele>
        <time>2022-06-30T12:30:50Z</time>
      </trkpt>
      <trkpt lat="46.49732" lon="5.29742">
        <ele>223.4</ele>
        <time>2022-06-30T12:30:52Z</time>
      </trkpt>
      <trkpt lat="46.49702" lon="5.29687">
        <ele>222.6</ele>
        <time>2022-06-30T12:30:59Z</time>
      </trkpt>
      <trkpt lat="46.49667" lon="5.29623">
        <ele>223.2</ele>
        <time>2022-06-30T12:31:08Z</time>
      </trkpt>
      <trkpt lat="46.49632" lon="5.29563">
        <ele>224.4</ele>
        <time>2022-06-30T12:31:17Z</time>
      </trkpt>
      <trkpt lat="46.49623" lon="5.29549">
        <ele>224.6</ele>
        <time>2022-06-30T12:31:19Z</time>
      </trkpt>
      <trkpt lat="46.49595" lon="5.29498">
        <ele>224.4</ele>
        <time>2022-06-30T12:31:26Z</time>
      </trkpt>
      <trkpt lat="46.49567" lon="5.29445">
        <ele>224.4</ele>
        <time>2022-06-30T12:31:33Z</time>
      </trkpt>
      <trkpt lat="46.49533" lon="5.29382">
        <ele>223.8</ele>
        <time>2022-06-30T12:31:41Z</time>
      </trkpt>
      <trkpt lat="46.49528" lon="5.29373">
        <ele>223.8</ele>
        <time>2022-06-30T12:31:42Z</time>
      </trkpt>
      <trkpt lat="46.49524" lon="5.29362">
        <ele>223.6</ele>
        <time>2022-06-30T12:31:43Z</time>
      </trkpt>
      <trkpt lat="46.49518" lon="5.2934">
        <ele>223</ele>
        <time>2022-06-30T12:31:45Z</time>
      </trkpt>
      <trkpt lat="46.49514" lon="5.29314">
        <ele>222.4</ele>
        <time>2022-06-30T12:31:47Z</time>
      </trkpt>
      <trkpt lat="46.49513" lon="5.29286">
        <ele>221.6</ele>
        <time>2022-06-30T12:31:49Z</time>
      </trkpt>
      <trkpt lat="46.49514" lon="5.29271">
        <ele>221</ele>
        <time>2022-06-30T12:31:50Z</time>
      </trkpt>
      <trkpt lat="46.49519" lon="5.29243">
        <ele>220</ele>
        <time>2022-06-30T12:31:52Z</time>
      </trkpt>
      <trkpt lat="46.49523" lon="5.29229">
        <ele>219.6</ele>
        <time>2022-06-30T12:31:53Z</time>
      </trkpt>
      <trkpt lat="46.49534" lon="5.29203">
        <ele>218.4</ele>
        <time>2022-06-30T12:31:55Z</time>
      </trkpt>
      <trkpt lat="46.49553" lon="5.29166">
        <ele>217.4</ele>
        <time>2022-06-30T12:31:58Z</time>
      </trkpt>
      <trkpt lat="46.49562" lon="5.29139">
        <ele>216</ele>
        <time>2022-06-30T12:32:00Z</time>
      </trkpt>
      <trkpt lat="46.49566" lon="5.29125">
        <ele>215.4</ele>
        <time>2022-06-30T12:32:01Z</time>
      </trkpt>
      <trkpt lat="46.49569" lon="5.2911">
        <ele>214.6</ele>
        <time>2022-06-30T12:32:02Z</time>
      </trkpt>
      <trkpt lat="46.49575" lon="5.29081">
        <ele>213.2</ele>
        <time>2022-06-30T12:32:04Z</time>
      </trkpt>
      <trkpt lat="46.49585" lon="5.2902">
        <ele>212</ele>
        <time>2022-06-30T12:32:08Z</time>
      </trkpt>
      <trkpt lat="46.49591" lon="5.2899">
        <ele>211</ele>
        <time>2022-06-30T12:32:10Z</time>
      </trkpt>
      <trkpt lat="46.49593" lon="5.28975">
        <ele>210.2</ele>
        <time>2022-06-30T12:32:11Z</time>
      </trkpt>
      <trkpt lat="46.49599" lon="5.28944">
        <ele>209</ele>
        <time>2022-06-30T12:32:13Z</time>
      </trkpt>
      <trkpt lat="46.49604" lon="5.28914">
        <ele>207.2</ele>
        <time>2022-06-30T12:32:15Z</time>
      </trkpt>
      <trkpt lat="46.49607" lon="5.28899">
        <ele>205.8</ele>
        <time>2022-06-30T12:32:16Z</time>
      </trkpt>
      <trkpt lat="46.49612" lon="5.2887">
        <ele>204.6</ele>
        <time>2022-06-30T12:32:18Z</time>
      </trkpt>
      <trkpt lat="46.49617" lon="5.28842">
        <ele>204.4</ele>
        <time>2022-06-30T12:32:20Z</time>
      </trkpt>
      <trkpt lat="46.49631" lon="5.28764">
        <ele>203.8</ele>
        <time>2022-06-30T12:32:26Z</time>
      </trkpt>
      <trkpt lat="46.49633" lon="5.28752">
        <ele>203.8</ele>
        <time>2022-06-30T12:32:27Z</time>
      </trkpt>
      <trkpt lat="46.49643" lon="5.28706">
        <ele>203.6</ele>
        <time>2022-06-30T12:32:31Z</time>
      </trkpt>
      <trkpt lat="46.49661" lon="5.28632">
        <ele>203.2</ele>
        <time>2022-06-30T12:32:38Z</time>
      </trkpt>
      <trkpt lat="46.49674" lon="5.28576">
        <ele>203.2</ele>
        <time>2022-06-30T12:32:44Z</time>
      </trkpt>
      <trkpt lat="46.49689" lon="5.28505">
        <ele>203.8</ele>
        <time>2022-06-30T12:32:52Z</time>
      </trkpt>
      <trkpt lat="46.49697" lon="5.28445">
        <ele>203.6</ele>
        <time>2022-06-30T12:32:58Z</time>
      </trkpt>
      <trkpt lat="46.49709" lon="5.28374">
        <ele>203.4</ele>
        <time>2022-06-30T12:33:05Z</time>
      </trkpt>
      <trkpt lat="46.4973" lon="5.28301">
        <ele>203</ele>
        <time>2022-06-30T12:33:13Z</time>
      </trkpt>
      <trkpt lat="46.49743" lon="5.28237">
        <ele>202.8</ele>
        <time>2022-06-30T12:33:20Z</time>
      </trkpt>
      <trkpt lat="46.49756" lon="5.2816">
        <ele>202.6</ele>
        <time>2022-06-30T12:33:28Z</time>
      </trkpt>
      <trkpt lat="46.49757" lon="5.2815">
        <ele>202.6</ele>
        <time>2022-06-30T12:33:29Z</time>
      </trkpt>
      <trkpt lat="46.49768" lon="5.28065">
        <ele>202.6</ele>
        <time>2022-06-30T12:33:38Z</time>
      </trkpt>
      <trkpt lat="46.49768" lon="5.28055">
        <ele>202.6</ele>
        <time>2022-06-30T12:33:39Z</time>
      </trkpt>
      <trkpt lat="46.49766" lon="5.27974">
        <ele>203.2</ele>
        <time>2022-06-30T12:33:48Z</time>
      </trkpt>
      <trkpt lat="46.49766" lon="5.27904">
        <ele>203.6</ele>
        <time>2022-06-30T12:33:56Z</time>
      </trkpt>
      <trkpt lat="46.49763" lon="5.27846">
        <ele>204.2</ele>
        <time>2022-06-30T12:34:03Z</time>
      </trkpt>
      <trkpt lat="46.49763" lon="5.27838">
        <ele>204.2</ele>
        <time>2022-06-30T12:34:04Z</time>
      </trkpt>
      <trkpt lat="46.49752" lon="5.27774">
        <ele>205.4</ele>
        <time>2022-06-30T12:34:12Z</time>
      </trkpt>
      <trkpt lat="46.49749" lon="5.2776">
        <ele>205.6</ele>
        <time>2022-06-30T12:34:14Z</time>
      </trkpt>
      <trkpt lat="46.49743" lon="5.27723">
        <ele>205.8</ele>
        <time>2022-06-30T12:34:19Z</time>
      </trkpt>
      <trkpt lat="46.49738" lon="5.27696">
        <ele>206.6</ele>
        <time>2022-06-30T12:34:23Z</time>
      </trkpt>
      <trkpt lat="46.49734" lon="5.2767">
        <ele>207</ele>
        <time>2022-06-30T12:34:27Z</time>
      </trkpt>
      <trkpt lat="46.49732" lon="5.27658">
        <ele>207.6</ele>
        <time>2022-06-30T12:34:29Z</time>
      </trkpt>
      <trkpt lat="46.49727" lon="5.27618">
        <ele>208.4</ele>
        <time>2022-06-30T12:34:35Z</time>
      </trkpt>
      <trkpt lat="46.49726" lon="5.27605">
        <ele>208.8</ele>
        <time>2022-06-30T12:34:37Z</time>
      </trkpt>
      <trkpt lat="46.49727" lon="5.2758">
        <ele>209.8</ele>
        <time>2022-06-30T12:34:41Z</time>
      </trkpt>
      <trkpt lat="46.49727" lon="5.27568">
        <ele>210.2</ele>
        <time>2022-06-30T12:34:43Z</time>
      </trkpt>
      <trkpt lat="46.49728" lon="5.27544">
        <ele>211</ele>
        <time>2022-06-30T12:34:47Z</time>
      </trkpt>
      <trkpt lat="46.49728" lon="5.27522">
        <ele>211.2</ele>
        <time>2022-06-30T12:34:51Z</time>
      </trkpt>
      <trkpt lat="46.49729" lon="5.27505">
        <ele>212.2</ele>
        <time>2022-06-30T12:34:54Z</time>
      </trkpt>
      <trkpt lat="46.49728" lon="5.27473">
        <ele>213</ele>
        <time>2022-06-30T12:35:00Z</time>
      </trkpt>
      <trkpt lat="46.49728" lon="5.27468">
        <ele>213.4</ele>
        <time>2022-06-30T12:35:01Z</time>
      </trkpt>
      <trkpt lat="46.49724" lon="5.27442">
        <ele>214.4</ele>
        <time>2022-06-30T12:35:06Z</time>
      </trkpt>
      <trkpt lat="46.49722" lon="5.27432">
        <ele>214.8</ele>
        <time>2022-06-30T12:35:08Z</time>
      </trkpt>
      <trkpt lat="46.49718" lon="5.27418">
        <ele>215.4</ele>
        <time>2022-06-30T12:35:11Z</time>
      </trkpt>
      <trkpt lat="46.49711" lon="5.27396">
        <ele>215.8</ele>
        <time>2022-06-30T12:35:16Z</time>
      </trkpt>
      <trkpt lat="46.49703" lon="5.27379">
        <ele>216.8</ele>
        <time>2022-06-30T12:35:20Z</time>
      </trkpt>
      <trkpt lat="46.49692" lon="5.27358">
        <ele>218</ele>
        <time>2022-06-30T12:35:25Z</time>
      </trkpt>
      <trkpt lat="46.4969" lon="5.27355">
        <ele>218</ele>
        <time>2022-06-30T12:35:26Z</time>
      </trkpt>
      <trkpt lat="46.4968" lon="5.27338">
        <ele>219</ele>
        <time>2022-06-30T12:35:30Z</time>
      </trkpt>
      <trkpt lat="46.49672" lon="5.2732">
        <ele>219.6</ele>
        <time>2022-06-30T12:35:34Z</time>
      </trkpt>
      <trkpt lat="46.49664" lon="5.27303">
        <ele>220</ele>
        <time>2022-06-30T12:35:38Z</time>
      </trkpt>
      <trkpt lat="46.49658" lon="5.27289">
        <ele>220.6</ele>
        <time>2022-06-30T12:35:41Z</time>
      </trkpt>
      <trkpt lat="46.49655" lon="5.27279">
        <ele>221.2</ele>
        <time>2022-06-30T12:35:43Z</time>
      </trkpt>
      <trkpt lat="46.49646" lon="5.27249">
        <ele>222.2</ele>
        <time>2022-06-30T12:35:49Z</time>
      </trkpt>
      <trkpt lat="46.49645" lon="5.27244">
        <ele>222.4</ele>
        <time>2022-06-30T12:35:50Z</time>
      </trkpt>
      <trkpt lat="46.4964" lon="5.27208">
        <ele>223.4</ele>
        <time>2022-06-30T12:35:57Z</time>
      </trkpt>
      <trkpt lat="46.4964" lon="5.27203">
        <ele>223.4</ele>
        <time>2022-06-30T12:35:58Z</time>
      </trkpt>
      <trkpt lat="46.49641" lon="5.27176">
        <ele>224.6</ele>
        <time>2022-06-30T12:36:03Z</time>
      </trkpt>
      <trkpt lat="46.49641" lon="5.27165">
        <ele>224.8</ele>
        <time>2022-06-30T12:36:05Z</time>
      </trkpt>
      <trkpt lat="46.4965" lon="5.27115">
        <ele>225.4</ele>
        <time>2022-06-30T12:36:13Z</time>
      </trkpt>
      <trkpt lat="46.49652" lon="5.27109">
        <ele>225.6</ele>
        <time>2022-06-30T12:36:14Z</time>
      </trkpt>
      <trkpt lat="46.49668" lon="5.27061">
        <ele>226.4</ele>
        <time>2022-06-30T12:36:21Z</time>
      </trkpt>
      <trkpt lat="46.49676" lon="5.2705">
        <ele>226.4</ele>
        <time>2022-06-30T12:36:23Z</time>
      </trkpt>
      <trkpt lat="46.49687" lon="5.27043">
        <ele>226.6</ele>
        <time>2022-06-30T12:36:25Z</time>
      </trkpt>
      <trkpt lat="46.49704" lon="5.2704">
        <ele>227</ele>
        <time>2022-06-30T12:36:28Z</time>
      </trkpt>
      <trkpt lat="46.49714" lon="5.27039">
        <ele>227.2</ele>
        <time>2022-06-30T12:36:30Z</time>
      </trkpt>
      <trkpt lat="46.49735" lon="5.27035">
        <ele>227.2</ele>
        <time>2022-06-30T12:36:34Z</time>
      </trkpt>
      <trkpt lat="46.49741" lon="5.27033">
        <ele>227.4</ele>
        <time>2022-06-30T12:36:35Z</time>
      </trkpt>
      <trkpt lat="46.4976" lon="5.27026">
        <ele>227.4</ele>
        <time>2022-06-30T12:36:38Z</time>
      </trkpt>
      <trkpt lat="46.49775" lon="5.27006">
        <ele>227.8</ele>
        <time>2022-06-30T12:36:41Z</time>
      </trkpt>
      <trkpt lat="46.49781" lon="5.26995">
        <ele>228</ele>
        <time>2022-06-30T12:36:42Z</time>
      </trkpt>
      <trkpt lat="46.49786" lon="5.26985">
        <ele>228</ele>
        <time>2022-06-30T12:36:43Z</time>
      </trkpt>
      <trkpt lat="46.49791" lon="5.26964">
        <ele>228</ele>
        <time>2022-06-30T12:36:45Z</time>
      </trkpt>
      <trkpt lat="46.49801" lon="5.26917">
        <ele>227.8</ele>
        <time>2022-06-30T12:36:49Z</time>
      </trkpt>
      <trkpt lat="46.49805" lon="5.26906">
        <ele>227.6</ele>
        <time>2022-06-30T12:36:50Z</time>
      </trkpt>
      <trkpt lat="46.49811" lon="5.26898">
        <ele>228</ele>
        <time>2022-06-30T12:36:51Z</time>
      </trkpt>
      <trkpt lat="46.49823" lon="5.26888">
        <ele>227.8</ele>
        <time>2022-06-30T12:36:53Z</time>
      </trkpt>
      <trkpt lat="46.49855" lon="5.26863">
        <ele>227.8</ele>
        <time>2022-06-30T12:36:58Z</time>
      </trkpt>
      <trkpt lat="46.49888" lon="5.26843">
        <ele>228</ele>
        <time>2022-06-30T12:37:02Z</time>
      </trkpt>
      <trkpt lat="46.49895" lon="5.26839">
        <ele>228</ele>
        <time>2022-06-30T12:37:03Z</time>
      </trkpt>
      <trkpt lat="46.49922" lon="5.26825">
        <ele>228.2</ele>
        <time>2022-06-30T12:37:07Z</time>
      </trkpt>
      <trkpt lat="46.49927" lon="5.26819">
        <ele>228.2</ele>
        <time>2022-06-30T12:37:08Z</time>
      </trkpt>
      <trkpt lat="46.49938" lon="5.26805">
        <ele>228</ele>
        <time>2022-06-30T12:37:10Z</time>
      </trkpt>
      <trkpt lat="46.49953" lon="5.26781">
        <ele>227.6</ele>
        <time>2022-06-30T12:37:13Z</time>
      </trkpt>
      <trkpt lat="46.49967" lon="5.26765">
        <ele>227</ele>
        <time>2022-06-30T12:37:15Z</time>
      </trkpt>
      <trkpt lat="46.49983" lon="5.26749">
        <ele>226.4</ele>
        <time>2022-06-30T12:37:17Z</time>
      </trkpt>
      <trkpt lat="46.49991" lon="5.26743">
        <ele>226.2</ele>
        <time>2022-06-30T12:37:18Z</time>
      </trkpt>
      <trkpt lat="46.5" lon="5.26737">
        <ele>225.4</ele>
        <time>2022-06-30T12:37:19Z</time>
      </trkpt>
      <trkpt lat="46.5001" lon="5.26733">
        <ele>225</ele>
        <time>2022-06-30T12:37:20Z</time>
      </trkpt>
      <trkpt lat="46.5002" lon="5.2673">
        <ele>224</ele>
        <time>2022-06-30T12:37:21Z</time>
      </trkpt>
      <trkpt lat="46.5003" lon="5.26727">
        <ele>223.2</ele>
        <time>2022-06-30T12:37:22Z</time>
      </trkpt>
      <trkpt lat="46.50039" lon="5.26726">
        <ele>222.8</ele>
        <time>2022-06-30T12:37:23Z</time>
      </trkpt>
      <trkpt lat="46.50049" lon="5.26723">
        <ele>222.4</ele>
        <time>2022-06-30T12:37:24Z</time>
      </trkpt>
      <trkpt lat="46.50066" lon="5.26713">
        <ele>222</ele>
        <time>2022-06-30T12:37:26Z</time>
      </trkpt>
      <trkpt lat="46.50074" lon="5.26707">
        <ele>221.8</ele>
        <time>2022-06-30T12:37:27Z</time>
      </trkpt>
      <trkpt lat="46.50104" lon="5.26684">
        <ele>221.2</ele>
        <time>2022-06-30T12:37:31Z</time>
      </trkpt>
      <trkpt lat="46.50135" lon="5.26675">
        <ele>221.2</ele>
        <time>2022-06-30T12:37:35Z</time>
      </trkpt>
      <trkpt lat="46.50178" lon="5.26664">
        <ele>221.8</ele>
        <time>2022-06-30T12:37:41Z</time>
      </trkpt>
      <trkpt lat="46.50207" lon="5.26658">
        <ele>222.6</ele>
        <time>2022-06-30T12:37:45Z</time>
      </trkpt>
      <trkpt lat="46.50215" lon="5.26655">
        <ele>222.8</ele>
        <time>2022-06-30T12:37:46Z</time>
      </trkpt>
      <trkpt lat="46.50221" lon="5.2665">
        <ele>222.8</ele>
        <time>2022-06-30T12:37:47Z</time>
      </trkpt>
      <trkpt lat="46.50233" lon="5.26635">
        <ele>223.2</ele>
        <time>2022-06-30T12:37:49Z</time>
      </trkpt>
      <trkpt lat="46.50263" lon="5.26571">
        <ele>223.6</ele>
        <time>2022-06-30T12:37:56Z</time>
      </trkpt>
      <trkpt lat="46.50279" lon="5.2654">
        <ele>224</ele>
        <time>2022-06-30T12:38:00Z</time>
      </trkpt>
      <trkpt lat="46.5029" lon="5.26528">
        <ele>224.4</ele>
        <time>2022-06-30T12:38:02Z</time>
      </trkpt>
      <trkpt lat="46.50302" lon="5.26522">
        <ele>224.8</ele>
        <time>2022-06-30T12:38:04Z</time>
      </trkpt>
      <trkpt lat="46.50309" lon="5.26522">
        <ele>225</ele>
        <time>2022-06-30T12:38:05Z</time>
      </trkpt>
      <trkpt lat="46.50316" lon="5.26523">
        <ele>225</ele>
        <time>2022-06-30T12:38:06Z</time>
      </trkpt>
      <trkpt lat="46.50359" lon="5.26529">
        <ele>225.6</ele>
        <time>2022-06-30T12:38:12Z</time>
      </trkpt>
      <trkpt lat="46.50366" lon="5.26527">
        <ele>225.6</ele>
        <time>2022-06-30T12:38:13Z</time>
      </trkpt>
      <trkpt lat="46.50373" lon="5.26525">
        <ele>225.6</ele>
        <time>2022-06-30T12:38:14Z</time>
      </trkpt>
      <trkpt lat="46.50386" lon="5.26516">
        <ele>225.6</ele>
        <time>2022-06-30T12:38:16Z</time>
      </trkpt>
      <trkpt lat="46.50391" lon="5.26511">
        <ele>225.6</ele>
        <time>2022-06-30T12:38:17Z</time>
      </trkpt>
      <trkpt lat="46.50425" lon="5.26473">
        <ele>225.4</ele>
        <time>2022-06-30T12:38:23Z</time>
      </trkpt>
      <trkpt lat="46.50439" lon="5.26468">
        <ele>225.2</ele>
        <time>2022-06-30T12:38:25Z</time>
      </trkpt>
      <trkpt lat="46.50446" lon="5.2647">
        <ele>225.4</ele>
        <time>2022-06-30T12:38:26Z</time>
      </trkpt>
      <trkpt lat="46.50453" lon="5.26474">
        <ele>225.4</ele>
        <time>2022-06-30T12:38:27Z</time>
      </trkpt>
      <trkpt lat="46.50468" lon="5.26481">
        <ele>225.2</ele>
        <time>2022-06-30T12:38:29Z</time>
      </trkpt>
      <trkpt lat="46.50476" lon="5.26482">
        <ele>225.4</ele>
        <time>2022-06-30T12:38:30Z</time>
      </trkpt>
      <trkpt lat="46.50484" lon="5.26483">
        <ele>225.2</ele>
        <time>2022-06-30T12:38:31Z</time>
      </trkpt>
      <trkpt lat="46.50509" lon="5.26479">
        <ele>225</ele>
        <time>2022-06-30T12:38:34Z</time>
      </trkpt>
      <trkpt lat="46.50534" lon="5.2648">
        <ele>224.2</ele>
        <time>2022-06-30T12:38:37Z</time>
      </trkpt>
      <trkpt lat="46.50543" lon="5.26482">
        <ele>223.8</ele>
        <time>2022-06-30T12:38:38Z</time>
      </trkpt>
      <trkpt lat="46.50551" lon="5.26486">
        <ele>223.6</ele>
        <time>2022-06-30T12:38:39Z</time>
      </trkpt>
      <trkpt lat="46.50574" lon="5.26501">
        <ele>223.2</ele>
        <time>2022-06-30T12:38:42Z</time>
      </trkpt>
      <trkpt lat="46.50604" lon="5.26513">
        <ele>223</ele>
        <time>2022-06-30T12:38:46Z</time>
      </trkpt>
      <trkpt lat="46.50633" lon="5.26524">
        <ele>223.2</ele>
        <time>2022-06-30T12:38:50Z</time>
      </trkpt>
      <trkpt lat="46.50639" lon="5.26528">
        <ele>223.2</ele>
        <time>2022-06-30T12:38:51Z</time>
      </trkpt>
      <trkpt lat="46.50645" lon="5.26534">
        <ele>223.4</ele>
        <time>2022-06-30T12:38:52Z</time>
      </trkpt>
      <trkpt lat="46.50656" lon="5.26548">
        <ele>223.6</ele>
        <time>2022-06-30T12:38:54Z</time>
      </trkpt>
      <trkpt lat="46.50671" lon="5.26572">
        <ele>224.2</ele>
        <time>2022-06-30T12:38:57Z</time>
      </trkpt>
      <trkpt lat="46.50691" lon="5.26608">
        <ele>224.2</ele>
        <time>2022-06-30T12:39:01Z</time>
      </trkpt>
      <trkpt lat="46.50697" lon="5.26617">
        <ele>224.2</ele>
        <time>2022-06-30T12:39:02Z</time>
      </trkpt>
      <trkpt lat="46.50717" lon="5.26638">
        <ele>224</ele>
        <time>2022-06-30T12:39:05Z</time>
      </trkpt>
      <trkpt lat="46.50737" lon="5.26661">
        <ele>223.6</ele>
        <time>2022-06-30T12:39:08Z</time>
      </trkpt>
      <trkpt lat="46.50742" lon="5.26671">
        <ele>223.2</ele>
        <time>2022-06-30T12:39:09Z</time>
      </trkpt>
      <trkpt lat="46.50744" lon="5.26683">
        <ele>223.2</ele>
        <time>2022-06-30T12:39:10Z</time>
      </trkpt>
      <trkpt lat="46.50746" lon="5.26707">
        <ele>223.2</ele>
        <time>2022-06-30T12:39:12Z</time>
      </trkpt>
      <trkpt lat="46.50747" lon="5.26719">
        <ele>223</ele>
        <time>2022-06-30T12:39:13Z</time>
      </trkpt>
      <trkpt lat="46.50752" lon="5.26742">
        <ele>222.8</ele>
        <time>2022-06-30T12:39:15Z</time>
      </trkpt>
      <trkpt lat="46.50763" lon="5.2676">
        <ele>222.8</ele>
        <time>2022-06-30T12:39:17Z</time>
      </trkpt>
      <trkpt lat="46.5077" lon="5.26767">
        <ele>222.8</ele>
        <time>2022-06-30T12:39:18Z</time>
      </trkpt>
      <trkpt lat="46.50816" lon="5.26807">
        <ele>222.2</ele>
        <time>2022-06-30T12:39:24Z</time>
      </trkpt>
      <trkpt lat="46.50823" lon="5.26815">
        <ele>221.8</ele>
        <time>2022-06-30T12:39:25Z</time>
      </trkpt>
      <trkpt lat="46.50844" lon="5.26839">
        <ele>221.2</ele>
        <time>2022-06-30T12:39:28Z</time>
      </trkpt>
      <trkpt lat="46.50851" lon="5.26845">
        <ele>221.2</ele>
        <time>2022-06-30T12:39:29Z</time>
      </trkpt>
      <trkpt lat="46.50859" lon="5.26848">
        <ele>221</ele>
        <time>2022-06-30T12:39:30Z</time>
      </trkpt>
      <trkpt lat="46.50877" lon="5.26847">
        <ele>221</ele>
        <time>2022-06-30T12:39:32Z</time>
      </trkpt>
      <trkpt lat="46.50896" lon="5.26845">
        <ele>220.8</ele>
        <time>2022-06-30T12:39:34Z</time>
      </trkpt>
      <trkpt lat="46.50933" lon="5.26843">
        <ele>220.2</ele>
        <time>2022-06-30T12:39:38Z</time>
      </trkpt>
      <trkpt lat="46.50962" lon="5.26846">
        <ele>219.6</ele>
        <time>2022-06-30T12:39:41Z</time>
      </trkpt>
      <trkpt lat="46.5099" lon="5.26854">
        <ele>219</ele>
        <time>2022-06-30T12:39:44Z</time>
      </trkpt>
      <trkpt lat="46.50999" lon="5.26857">
        <ele>218.8</ele>
        <time>2022-06-30T12:39:45Z</time>
      </trkpt>
      <trkpt lat="46.51008" lon="5.26858">
        <ele>218.6</ele>
        <time>2022-06-30T12:39:46Z</time>
      </trkpt>
      <trkpt lat="46.51018" lon="5.26858">
        <ele>218.4</ele>
        <time>2022-06-30T12:39:47Z</time>
      </trkpt>
      <trkpt lat="46.51027" lon="5.26857">
        <ele>218.2</ele>
        <time>2022-06-30T12:39:48Z</time>
      </trkpt>
      <trkpt lat="46.51088" lon="5.26846">
        <ele>218</ele>
        <time>2022-06-30T12:39:55Z</time>
      </trkpt>
      <trkpt lat="46.51128" lon="5.26847">
        <ele>218.2</ele>
        <time>2022-06-30T12:40:00Z</time>
      </trkpt>
      <trkpt lat="46.51162" lon="5.26854">
        <ele>218.6</ele>
        <time>2022-06-30T12:40:05Z</time>
      </trkpt>
      <trkpt lat="46.51201" lon="5.26858">
        <ele>219.2</ele>
        <time>2022-06-30T12:40:11Z</time>
      </trkpt>
      <trkpt lat="46.51219" lon="5.26861">
        <ele>220</ele>
        <time>2022-06-30T12:40:14Z</time>
      </trkpt>
      <trkpt lat="46.51235" lon="5.26867">
        <ele>221.2</ele>
        <time>2022-06-30T12:40:17Z</time>
      </trkpt>
      <trkpt lat="46.51245" lon="5.26875">
        <ele>221.6</ele>
        <time>2022-06-30T12:40:19Z</time>
      </trkpt>
      <trkpt lat="46.51252" lon="5.2689">
        <ele>221.8</ele>
        <time>2022-06-30T12:40:21Z</time>
      </trkpt>
      <trkpt lat="46.51257" lon="5.26928">
        <ele>222</ele>
        <time>2022-06-30T12:40:25Z</time>
      </trkpt>
      <trkpt lat="46.51265" lon="5.26982">
        <ele>222</ele>
        <time>2022-06-30T12:40:30Z</time>
      </trkpt>
      <trkpt lat="46.51273" lon="5.27002">
        <ele>221.8</ele>
        <time>2022-06-30T12:40:32Z</time>
      </trkpt>
      <trkpt lat="46.51284" lon="5.2702">
        <ele>221.6</ele>
        <time>2022-06-30T12:40:34Z</time>
      </trkpt>
      <trkpt lat="46.51304" lon="5.27039">
        <ele>221</ele>
        <time>2022-06-30T12:40:37Z</time>
      </trkpt>
      <trkpt lat="46.51311" lon="5.27043">
        <ele>221</ele>
        <time>2022-06-30T12:40:38Z</time>
      </trkpt>
      <trkpt lat="46.51319" lon="5.27046">
        <ele>220.8</ele>
        <time>2022-06-30T12:40:39Z</time>
      </trkpt>
      <trkpt lat="46.51334" lon="5.27048">
        <ele>220.8</ele>
        <time>2022-06-30T12:40:41Z</time>
      </trkpt>
      <trkpt lat="46.51341" lon="5.27048">
        <ele>220.8</ele>
        <time>2022-06-30T12:40:42Z</time>
      </trkpt>
      <trkpt lat="46.51348" lon="5.27046">
        <ele>220.8</ele>
        <time>2022-06-30T12:40:43Z</time>
      </trkpt>
      <trkpt lat="46.51367" lon="5.27036">
        <ele>221</ele>
        <time>2022-06-30T12:40:46Z</time>
      </trkpt>
      <trkpt lat="46.51404" lon="5.27015">
        <ele>221.6</ele>
        <time>2022-06-30T12:40:52Z</time>
      </trkpt>
      <trkpt lat="46.51434" lon="5.26996">
        <ele>221.8</ele>
        <time>2022-06-30T12:40:57Z</time>
      </trkpt>
      <trkpt lat="46.51448" lon="5.26991">
        <ele>221.8</ele>
        <time>2022-06-30T12:40:59Z</time>
      </trkpt>
      <trkpt lat="46.51462" lon="5.26988">
        <ele>221.8</ele>
        <time>2022-06-30T12:41:01Z</time>
      </trkpt>
      <trkpt lat="46.51477" lon="5.2699">
        <ele>221.8</ele>
        <time>2022-06-30T12:41:03Z</time>
      </trkpt>
      <trkpt lat="46.51527" lon="5.26996">
        <ele>221.6</ele>
        <time>2022-06-30T12:41:10Z</time>
      </trkpt>
      <trkpt lat="46.51571" lon="5.26996">
        <ele>221.4</ele>
        <time>2022-06-30T12:41:16Z</time>
      </trkpt>
      <trkpt lat="46.51609" lon="5.26983">
        <ele>221.2</ele>
        <time>2022-06-30T12:41:21Z</time>
      </trkpt>
      <trkpt lat="46.51639" lon="5.26971">
        <ele>220.8</ele>
        <time>2022-06-30T12:41:25Z</time>
      </trkpt>
      <trkpt lat="46.51654" lon="5.26965">
        <ele>220.6</ele>
        <time>2022-06-30T12:41:27Z</time>
      </trkpt>
      <trkpt lat="46.51688" lon="5.26954">
        <ele>220.8</ele>
        <time>2022-06-30T12:41:32Z</time>
      </trkpt>
      <trkpt lat="46.51725" lon="5.26947">
        <ele>221.4</ele>
        <time>2022-06-30T12:41:38Z</time>
      </trkpt>
      <trkpt lat="46.51761" lon="5.26951">
        <ele>222</ele>
        <time>2022-06-30T12:41:44Z</time>
      </trkpt>
      <trkpt lat="46.5182" lon="5.26965">
        <ele>222.2</ele>
        <time>2022-06-30T12:41:53Z</time>
      </trkpt>
      <trkpt lat="46.51833" lon="5.26968">
        <ele>222.2</ele>
        <time>2022-06-30T12:41:55Z</time>
      </trkpt>
      <trkpt lat="46.51875" lon="5.26974">
        <ele>222</ele>
        <time>2022-06-30T12:42:01Z</time>
      </trkpt>
      <trkpt lat="46.51894" lon="5.26974">
        <ele>221.8</ele>
        <time>2022-06-30T12:42:04Z</time>
      </trkpt>
      <trkpt lat="46.51938" lon="5.26971">
        <ele>221.6</ele>
        <time>2022-06-30T12:42:11Z</time>
      </trkpt>
      <trkpt lat="46.51958" lon="5.26969">
        <ele>221.6</ele>
        <time>2022-06-30T12:42:14Z</time>
      </trkpt>
      <trkpt lat="46.51972" lon="5.26969">
        <ele>221.4</ele>
        <time>2022-06-30T12:42:17Z</time>
      </trkpt>
      <trkpt lat="46.5198" lon="5.26961">
        <ele>221.4</ele>
        <time>2022-06-30T12:42:19Z</time>
      </trkpt>
      <trkpt lat="46.51982" lon="5.26956">
        <ele>221.2</ele>
        <time>2022-06-30T12:42:20Z</time>
      </trkpt>
      <trkpt lat="46.51981" lon="5.26943">
        <ele>221.2</ele>
        <time>2022-06-30T12:42:22Z</time>
      </trkpt>
      <trkpt lat="46.51978" lon="5.2693">
        <ele>221</ele>
        <time>2022-06-30T12:42:24Z</time>
      </trkpt>
      <trkpt lat="46.51973" lon="5.26915">
        <ele>221</ele>
        <time>2022-06-30T12:42:26Z</time>
      </trkpt>
      <trkpt lat="46.51965" lon="5.26898">
        <ele>221</ele>
        <time>2022-06-30T12:42:28Z</time>
      </trkpt>
      <trkpt lat="46.51961" lon="5.26889">
        <ele>221</ele>
        <time>2022-06-30T12:42:29Z</time>
      </trkpt>
      <trkpt lat="46.51954" lon="5.26856">
        <ele>221</ele>
        <time>2022-06-30T12:42:32Z</time>
      </trkpt>
      <trkpt lat="46.51954" lon="5.26829">
        <ele>220.8</ele>
        <time>2022-06-30T12:42:34Z</time>
      </trkpt>
      <trkpt lat="46.51955" lon="5.26817">
        <ele>220.6</ele>
        <time>2022-06-30T12:42:35Z</time>
      </trkpt>
      <trkpt lat="46.51957" lon="5.26806">
        <ele>220.6</ele>
        <time>2022-06-30T12:42:36Z</time>
      </trkpt>
      <trkpt lat="46.51963" lon="5.26795">
        <ele>220.4</ele>
        <time>2022-06-30T12:42:37Z</time>
      </trkpt>
      <trkpt lat="46.51974" lon="5.26786">
        <ele>220</ele>
        <time>2022-06-30T12:42:38Z</time>
      </trkpt>
      <trkpt lat="46.51992" lon="5.26768">
        <ele>219</ele>
        <time>2022-06-30T12:42:40Z</time>
      </trkpt>
      <trkpt lat="46.52002" lon="5.2676">
        <ele>218.4</ele>
        <time>2022-06-30T12:42:41Z</time>
      </trkpt>
      <trkpt lat="46.52028" lon="5.26736">
        <ele>216.8</ele>
        <time>2022-06-30T12:42:44Z</time>
      </trkpt>
      <trkpt lat="46.52037" lon="5.26728">
        <ele>216.6</ele>
        <time>2022-06-30T12:42:45Z</time>
      </trkpt>
      <trkpt lat="46.52047" lon="5.26719">
        <ele>216.2</ele>
        <time>2022-06-30T12:42:46Z</time>
      </trkpt>
      <trkpt lat="46.52067" lon="5.26704">
        <ele>215.4</ele>
        <time>2022-06-30T12:42:48Z</time>
      </trkpt>
      <trkpt lat="46.52088" lon="5.26688">
        <ele>208.2</ele>
        <time>2022-06-30T12:42:50Z</time>
      </trkpt>
      <trkpt lat="46.52117" lon="5.26662">
        <ele>212.8</ele>
        <time>2022-06-30T12:42:53Z</time>
      </trkpt>
      <trkpt lat="46.52135" lon="5.26642">
        <ele>211.6</ele>
        <time>2022-06-30T12:42:55Z</time>
      </trkpt>
      <trkpt lat="46.5215" lon="5.26618">
        <ele>210.4</ele>
        <time>2022-06-30T12:42:57Z</time>
      </trkpt>
      <trkpt lat="46.52157" lon="5.26605">
        <ele>209.8</ele>
        <time>2022-06-30T12:42:58Z</time>
      </trkpt>
      <trkpt lat="46.52164" lon="5.26592">
        <ele>209</ele>
        <time>2022-06-30T12:42:59Z</time>
      </trkpt>
      <trkpt lat="46.52185" lon="5.26557">
        <ele>208.2</ele>
        <time>2022-06-30T12:43:02Z</time>
      </trkpt>
      <trkpt lat="46.52193" lon="5.26547">
        <ele>207.8</ele>
        <time>2022-06-30T12:43:03Z</time>
      </trkpt>
      <trkpt lat="46.5221" lon="5.26532">
        <ele>207.4</ele>
        <time>2022-06-30T12:43:05Z</time>
      </trkpt>
      <trkpt lat="46.5222" lon="5.26526">
        <ele>207.4</ele>
        <time>2022-06-30T12:43:06Z</time>
      </trkpt>
      <trkpt lat="46.5224" lon="5.26517">
        <ele>207.2</ele>
        <time>2022-06-30T12:43:08Z</time>
      </trkpt>
      <trkpt lat="46.52277" lon="5.26499">
        <ele>206.2</ele>
        <time>2022-06-30T12:43:12Z</time>
      </trkpt>
      <trkpt lat="46.52287" lon="5.26495">
        <ele>206.2</ele>
        <time>2022-06-30T12:43:13Z</time>
      </trkpt>
      <trkpt lat="46.5233" lon="5.26476">
        <ele>205</ele>
        <time>2022-06-30T12:43:17Z</time>
      </trkpt>
      <trkpt lat="46.52351" lon="5.26468">
        <ele>204</ele>
        <time>2022-06-30T12:43:19Z</time>
      </trkpt>
      <trkpt lat="46.52381" lon="5.2645">
        <ele>203</ele>
        <time>2022-06-30T12:43:22Z</time>
      </trkpt>
      <trkpt lat="46.52389" lon="5.2644">
        <ele>202.4</ele>
        <time>2022-06-30T12:43:23Z</time>
      </trkpt>
      <trkpt lat="46.52396" lon="5.26428">
        <ele>202.2</ele>
        <time>2022-06-30T12:43:24Z</time>
      </trkpt>
      <trkpt lat="46.52408" lon="5.26403">
        <ele>201.4</ele>
        <time>2022-06-30T12:43:26Z</time>
      </trkpt>
      <trkpt lat="46.52413" lon="5.26391">
        <ele>201</ele>
        <time>2022-06-30T12:43:27Z</time>
      </trkpt>
      <trkpt lat="46.52432" lon="5.26341">
        <ele>200.2</ele>
        <time>2022-06-30T12:43:31Z</time>
      </trkpt>
      <trkpt lat="46.5244" lon="5.26317">
        <ele>200</ele>
        <time>2022-06-30T12:43:33Z</time>
      </trkpt>
      <trkpt lat="46.52462" lon="5.2626">
        <ele>199.2</ele>
        <time>2022-06-30T12:43:38Z</time>
      </trkpt>
      <trkpt lat="46.52474" lon="5.26227">
        <ele>199</ele>
        <time>2022-06-30T12:43:41Z</time>
      </trkpt>
      <trkpt lat="46.52502" lon="5.26154">
        <ele>198.6</ele>
        <time>2022-06-30T12:43:48Z</time>
      </trkpt>
      <trkpt lat="46.52505" lon="5.26144">
        <ele>198.6</ele>
        <time>2022-06-30T12:43:49Z</time>
      </trkpt>
      <trkpt lat="46.52514" lon="5.26125">
        <ele>198.6</ele>
        <time>2022-06-30T12:43:51Z</time>
      </trkpt>
      <trkpt lat="46.52521" lon="5.26119">
        <ele>198.6</ele>
        <time>2022-06-30T12:43:52Z</time>
      </trkpt>
      <trkpt lat="46.52529" lon="5.26116">
        <ele>198.6</ele>
        <time>2022-06-30T12:43:53Z</time>
      </trkpt>
      <trkpt lat="46.52544" lon="5.26115">
        <ele>198.8</ele>
        <time>2022-06-30T12:43:55Z</time>
      </trkpt>
      <trkpt lat="46.52551" lon="5.26117">
        <ele>198.8</ele>
        <time>2022-06-30T12:43:56Z</time>
      </trkpt>
      <trkpt lat="46.52565" lon="5.26127">
        <ele>198.8</ele>
        <time>2022-06-30T12:43:58Z</time>
      </trkpt>
      <trkpt lat="46.5259" lon="5.26176">
        <ele>199</ele>
        <time>2022-06-30T12:44:03Z</time>
      </trkpt>
      <trkpt lat="46.52602" lon="5.26193">
        <ele>199</ele>
        <time>2022-06-30T12:44:04Z</time>
      </trkpt>
      <trkpt lat="46.52621" lon="5.26216">
        <ele>199</ele>
        <time>2022-06-30T12:44:08Z</time>
      </trkpt>
      <trkpt lat="46.52635" lon="5.26227">
        <ele>199.2</ele>
        <time>2022-06-30T12:44:10Z</time>
      </trkpt>
      <trkpt lat="46.52677" lon="5.26254">
        <ele>200.4</ele>
        <time>2022-06-30T12:44:16Z</time>
      </trkpt>
      <trkpt lat="46.52684" lon="5.26257">
        <ele>200.6</ele>
        <time>2022-06-30T12:44:17Z</time>
      </trkpt>
      <trkpt lat="46.52732" lon="5.26279">
        <ele>201</ele>
        <time>2022-06-30T12:44:24Z</time>
      </trkpt>
      <trkpt lat="46.52786" lon="5.26303">
        <ele>201.6</ele>
        <time>2022-06-30T12:44:32Z</time>
      </trkpt>
      <trkpt lat="46.52792" lon="5.26306">
        <ele>201.8</ele>
        <time>2022-06-30T12:44:33Z</time>
      </trkpt>
      <trkpt lat="46.5282" lon="5.26312">
        <ele>202</ele>
        <time>2022-06-30T12:44:37Z</time>
      </trkpt>
      <trkpt lat="46.52827" lon="5.26312">
        <ele>202.2</ele>
        <time>2022-06-30T12:44:38Z</time>
      </trkpt>
      <trkpt lat="46.52863" lon="5.26309">
        <ele>202.2</ele>
        <time>2022-06-30T12:44:43Z</time>
      </trkpt>
      <trkpt lat="46.52886" lon="5.2631">
        <ele>202.4</ele>
        <time>2022-06-30T12:44:46Z</time>
      </trkpt>
      <trkpt lat="46.52922" lon="5.26326">
        <ele>202.4</ele>
        <time>2022-06-30T12:44:51Z</time>
      </trkpt>
      <trkpt lat="46.52974" lon="5.26355">
        <ele>201.6</ele>
        <time>2022-06-30T12:44:58Z</time>
      </trkpt>
      <trkpt lat="46.52989" lon="5.26364">
        <ele>201.6</ele>
        <time>2022-06-30T12:45:00Z</time>
      </trkpt>
      <trkpt lat="46.53034" lon="5.2639">
        <ele>201.2</ele>
        <time>2022-06-30T12:45:06Z</time>
      </trkpt>
      <trkpt lat="46.53087" lon="5.26421">
        <ele>200.8</ele>
        <time>2022-06-30T12:45:13Z</time>
      </trkpt>
      <trkpt lat="46.53095" lon="5.26424">
        <ele>200.8</ele>
        <time>2022-06-30T12:45:14Z</time>
      </trkpt>
      <trkpt lat="46.53126" lon="5.26433">
        <ele>200.6</ele>
        <time>2022-06-30T12:45:17Z</time>
      </trkpt>
      <trkpt lat="46.53151" lon="5.26437">
        <ele>200.6</ele>
        <time>2022-06-30T12:45:21Z</time>
      </trkpt>
      <trkpt lat="46.53209" lon="5.26445">
        <ele>200.4</ele>
        <time>2022-06-30T12:45:28Z</time>
      </trkpt>
      <trkpt lat="46.53225" lon="5.26448">
        <ele>200.2</ele>
        <time>2022-06-30T12:45:29Z</time>
      </trkpt>
      <trkpt lat="46.53276" lon="5.26456">
        <ele>200</ele>
        <time>2022-06-30T12:45:36Z</time>
      </trkpt>
      <trkpt lat="46.5331" lon="5.26461">
        <ele>200</ele>
        <time>2022-06-30T12:45:39Z</time>
      </trkpt>
      <trkpt lat="46.5337" lon="5.26467">
        <ele>200</ele>
        <time>2022-06-30T12:45:46Z</time>
      </trkpt>
      <trkpt lat="46.53387" lon="5.26467">
        <ele>200</ele>
        <time>2022-06-30T12:45:48Z</time>
      </trkpt>
      <trkpt lat="46.53444" lon="5.26468">
        <ele>200.2</ele>
        <time>2022-06-30T12:45:55Z</time>
      </trkpt>
      <trkpt lat="46.53452" lon="5.26468">
        <ele>200.2</ele>
        <time>2022-06-30T12:45:56Z</time>
      </trkpt>
      <trkpt lat="46.53508" lon="5.26473">
        <ele>200.4</ele>
        <time>2022-06-30T12:46:03Z</time>
      </trkpt>
      <trkpt lat="46.53531" lon="5.26477">
        <ele>200.2</ele>
        <time>2022-06-30T12:46:06Z</time>
      </trkpt>
      <trkpt lat="46.5357" lon="5.26481">
        <ele>199.8</ele>
        <time>2022-06-30T12:46:11Z</time>
      </trkpt>
      <trkpt lat="46.53585" lon="5.26479">
        <ele>199.8</ele>
        <time>2022-06-30T12:46:13Z</time>
      </trkpt>
      <trkpt lat="46.53637" lon="5.26482">
        <ele>199.4</ele>
        <time>2022-06-30T12:46:20Z</time>
      </trkpt>
      <trkpt lat="46.53679" lon="5.26481">
        <ele>199.4</ele>
        <time>2022-06-30T12:46:26Z</time>
      </trkpt>
      <trkpt lat="46.53712" lon="5.26469">
        <ele>199.8</ele>
        <time>2022-06-30T12:46:31Z</time>
      </trkpt>
      <trkpt lat="46.53718" lon="5.26466">
        <ele>200</ele>
        <time>2022-06-30T12:46:32Z</time>
      </trkpt>
      <trkpt lat="46.53766" lon="5.26443">
        <ele>200.6</ele>
        <time>2022-06-30T12:46:40Z</time>
      </trkpt>
      <trkpt lat="46.53776" lon="5.26439">
        <ele>201</ele>
        <time>2022-06-30T12:46:42Z</time>
      </trkpt>
      <trkpt lat="46.53785" lon="5.26437">
        <ele>201.2</ele>
        <time>2022-06-30T12:46:44Z</time>
      </trkpt>
      <trkpt lat="46.53789" lon="5.26438">
        <ele>201.2</ele>
        <time>2022-06-30T12:46:45Z</time>
      </trkpt>
      <trkpt lat="46.53794" lon="5.26441">
        <ele>201.2</ele>
        <time>2022-06-30T12:46:46Z</time>
      </trkpt>
      <trkpt lat="46.53803" lon="5.26455">
        <ele>201.2</ele>
        <time>2022-06-30T12:46:48Z</time>
      </trkpt>
      <trkpt lat="46.5381" lon="5.26475">
        <ele>201.2</ele>
        <time>2022-06-30T12:46:50Z</time>
      </trkpt>
      <trkpt lat="46.53814" lon="5.26497">
        <ele>201.2</ele>
        <time>2022-06-30T12:46:52Z</time>
      </trkpt>
      <trkpt lat="46.53823" lon="5.26568">
        <ele>201</ele>
        <time>2022-06-30T12:46:59Z</time>
      </trkpt>
      <trkpt lat="46.5383" lon="5.26588">
        <ele>200.6</ele>
        <time>2022-06-30T12:47:01Z</time>
      </trkpt>
      <trkpt lat="46.53839" lon="5.26619">
        <ele>200.2</ele>
        <time>2022-06-30T12:47:04Z</time>
      </trkpt>
      <trkpt lat="46.53845" lon="5.26644">
        <ele>199.8</ele>
        <time>2022-06-30T12:47:07Z</time>
      </trkpt>
      <trkpt lat="46.53847" lon="5.26646">
        <ele>199.6</ele>
        <time>2022-06-30T12:47:08Z</time>
      </trkpt>
      <trkpt lat="46.53851" lon="5.26646">
        <ele>199</ele>
        <time>2022-06-30T12:47:09Z</time>
      </trkpt>
      <trkpt lat="46.53855" lon="5.26643">
        <ele>198.6</ele>
        <time>2022-06-30T12:47:10Z</time>
      </trkpt>
      <trkpt lat="46.53859" lon="5.26639">
        <ele>198.6</ele>
        <time>2022-06-30T12:47:11Z</time>
      </trkpt>
      <trkpt lat="46.53881" lon="5.26602">
        <ele>198</ele>
        <time>2022-06-30T12:47:17Z</time>
      </trkpt>
      <trkpt lat="46.53896" lon="5.26562">
        <ele>199</ele>
        <time>2022-06-30T12:47:24Z</time>
      </trkpt>
      <trkpt lat="46.53901" lon="5.26549">
        <ele>199.2</ele>
        <time>2022-06-30T12:47:25Z</time>
      </trkpt>
      <trkpt lat="46.53909" lon="5.26525">
        <ele>199.8</ele>
        <time>2022-06-30T12:47:29Z</time>
      </trkpt>
      <trkpt lat="46.53911" lon="5.26518">
        <ele>200</ele>
        <time>2022-06-30T12:47:30Z</time>
      </trkpt>
      <trkpt lat="46.53921" lon="5.2649">
        <ele>201</ele>
        <time>2022-06-30T12:47:34Z</time>
      </trkpt>
      <trkpt lat="46.53932" lon="5.26462">
        <ele>201.8</ele>
        <time>2022-06-30T12:47:38Z</time>
      </trkpt>
      <trkpt lat="46.53937" lon="5.26447">
        <ele>202.2</ele>
        <time>2022-06-30T12:47:40Z</time>
      </trkpt>
      <trkpt lat="46.53949" lon="5.26413">
        <ele>203.4</ele>
        <time>2022-06-30T12:47:45Z</time>
      </trkpt>
      <trkpt lat="46.53971" lon="5.26353">
        <ele>204</ele>
        <time>2022-06-30T12:47:54Z</time>
      </trkpt>
      <trkpt lat="46.53979" lon="5.26327">
        <ele>204.4</ele>
        <time>2022-06-30T12:47:58Z</time>
      </trkpt>
      <trkpt lat="46.53987" lon="5.26309">
        <ele>204.8</ele>
        <time>2022-06-30T12:48:01Z</time>
      </trkpt>
      <trkpt lat="46.53989" lon="5.26302">
        <ele>204.8</ele>
        <time>2022-06-30T12:48:02Z</time>
      </trkpt>
      <trkpt lat="46.53998" lon="5.26278">
        <ele>205.8</ele>
        <time>2022-06-30T12:48:06Z</time>
      </trkpt>
      <trkpt lat="46.54006" lon="5.26261">
        <ele>206.4</ele>
        <time>2022-06-30T12:48:09Z</time>
      </trkpt>
      <trkpt lat="46.54008" lon="5.26255">
        <ele>206.6</ele>
        <time>2022-06-30T12:48:10Z</time>
      </trkpt>
      <trkpt lat="46.54011" lon="5.2625">
        <ele>206.8</ele>
        <time>2022-06-30T12:48:11Z</time>
      </trkpt>
      <trkpt lat="46.54017" lon="5.26239">
        <ele>207.6</ele>
        <time>2022-06-30T12:48:13Z</time>
      </trkpt>
      <trkpt lat="46.54023" lon="5.26229">
        <ele>208</ele>
        <time>2022-06-30T12:48:15Z</time>
      </trkpt>
      <trkpt lat="46.54027" lon="5.26226">
        <ele>208.2</ele>
        <time>2022-06-30T12:48:16Z</time>
      </trkpt>
      <trkpt lat="46.54031" lon="5.26222">
        <ele>208.6</ele>
        <time>2022-06-30T12:48:17Z</time>
      </trkpt>
      <trkpt lat="46.54039" lon="5.26216">
        <ele>209.2</ele>
        <time>2022-06-30T12:48:19Z</time>
      </trkpt>
      <trkpt lat="46.54054" lon="5.26208">
        <ele>210</ele>
        <time>2022-06-30T12:48:22Z</time>
      </trkpt>
      <trkpt lat="46.54063" lon="5.26202">
        <ele>210.4</ele>
        <time>2022-06-30T12:48:24Z</time>
      </trkpt>
      <trkpt lat="46.54089" lon="5.26188">
        <ele>211</ele>
        <time>2022-06-30T12:48:29Z</time>
      </trkpt>
      <trkpt lat="46.54099" lon="5.26182">
        <ele>211.4</ele>
        <time>2022-06-30T12:48:31Z</time>
      </trkpt>
      <trkpt lat="46.54108" lon="5.26174">
        <ele>211.4</ele>
        <time>2022-06-30T12:48:33Z</time>
      </trkpt>
      <trkpt lat="46.54116" lon="5.26165">
        <ele>211.6</ele>
        <time>2022-06-30T12:48:35Z</time>
      </trkpt>
      <trkpt lat="46.54126" lon="5.2615">
        <ele>211.8</ele>
        <time>2022-06-30T12:48:38Z</time>
      </trkpt>
      <trkpt lat="46.54135" lon="5.26144">
        <ele>211.8</ele>
        <time>2022-06-30T12:48:40Z</time>
      </trkpt>
      <trkpt lat="46.54176" lon="5.26135">
        <ele>212</ele>
        <time>2022-06-30T12:48:47Z</time>
      </trkpt>
      <trkpt lat="46.54191" lon="5.26137">
        <ele>212</ele>
        <time>2022-06-30T12:48:49Z</time>
      </trkpt>
      <trkpt lat="46.54198" lon="5.26141">
        <ele>212</ele>
        <time>2022-06-30T12:48:50Z</time>
      </trkpt>
      <trkpt lat="46.54206" lon="5.26147">
        <ele>212</ele>
        <time>2022-06-30T12:48:51Z</time>
      </trkpt>
      <trkpt lat="46.54219" lon="5.26163">
        <ele>212</ele>
        <time>2022-06-30T12:48:53Z</time>
      </trkpt>
      <trkpt lat="46.5424" lon="5.26188">
        <ele>210.8</ele>
        <time>2022-06-30T12:48:56Z</time>
      </trkpt>
      <trkpt lat="46.54256" lon="5.262">
        <ele>210.2</ele>
        <time>2022-06-30T12:48:58Z</time>
      </trkpt>
      <trkpt lat="46.54276" lon="5.26203">
        <ele>209</ele>
        <time>2022-06-30T12:49:00Z</time>
      </trkpt>
      <trkpt lat="46.54286" lon="5.26197">
        <ele>208.6</ele>
        <time>2022-06-30T12:49:01Z</time>
      </trkpt>
      <trkpt lat="46.54296" lon="5.26192">
        <ele>208</ele>
        <time>2022-06-30T12:49:02Z</time>
      </trkpt>
      <trkpt lat="46.54318" lon="5.26181">
        <ele>206.8</ele>
        <time>2022-06-30T12:49:04Z</time>
      </trkpt>
      <trkpt lat="46.54348" lon="5.26166">
        <ele>205.4</ele>
        <time>2022-06-30T12:49:07Z</time>
      </trkpt>
      <trkpt lat="46.54358" lon="5.26161">
        <ele>204.6</ele>
        <time>2022-06-30T12:49:08Z</time>
      </trkpt>
      <trkpt lat="46.54367" lon="5.26155">
        <ele>204.2</ele>
        <time>2022-06-30T12:49:09Z</time>
      </trkpt>
      <trkpt lat="46.54395" lon="5.26134">
        <ele>203.2</ele>
        <time>2022-06-30T12:49:13Z</time>
      </trkpt>
      <trkpt lat="46.54437" lon="5.26095">
        <ele>202</ele>
        <time>2022-06-30T12:49:17Z</time>
      </trkpt>
      <trkpt lat="46.54461" lon="5.26075">
        <ele>201.4</ele>
        <time>2022-06-30T12:49:20Z</time>
      </trkpt>
      <trkpt lat="46.54512" lon="5.26037">
        <ele>201.4</ele>
        <time>2022-06-30T12:49:27Z</time>
      </trkpt>
      <trkpt lat="46.54555" lon="5.26019">
        <ele>201.6</ele>
        <time>2022-06-30T12:49:33Z</time>
      </trkpt>
      <trkpt lat="46.54596" lon="5.2601">
        <ele>202</ele>
        <time>2022-06-30T12:49:39Z</time>
      </trkpt>
      <trkpt lat="46.54637" lon="5.26004">
        <ele>203</ele>
        <time>2022-06-30T12:49:45Z</time>
      </trkpt>
      <trkpt lat="46.54643" lon="5.26004">
        <ele>203</ele>
        <time>2022-06-30T12:49:46Z</time>
      </trkpt>
      <trkpt lat="46.54692" lon="5.25996">
        <ele>203.2</ele>
        <time>2022-06-30T12:49:53Z</time>
      </trkpt>
      <trkpt lat="46.54732" lon="5.25992">
        <ele>202.6</ele>
        <time>2022-06-30T12:49:59Z</time>
      </trkpt>
      <trkpt lat="46.54765" lon="5.25999">
        <ele>202</ele>
        <time>2022-06-30T12:50:03Z</time>
      </trkpt>
      <trkpt lat="46.54809" lon="5.26016">
        <ele>201.2</ele>
        <time>2022-06-30T12:50:08Z</time>
      </trkpt>
      <trkpt lat="46.54817" lon="5.2602">
        <ele>200.8</ele>
        <time>2022-06-30T12:50:09Z</time>
      </trkpt>
      <trkpt lat="46.54833" lon="5.26026">
        <ele>200.2</ele>
        <time>2022-06-30T12:50:11Z</time>
      </trkpt>
      <trkpt lat="46.54863" lon="5.26035">
        <ele>199.6</ele>
        <time>2022-06-30T12:50:15Z</time>
      </trkpt>
      <trkpt lat="46.54899" lon="5.26039">
        <ele>199.8</ele>
        <time>2022-06-30T12:50:20Z</time>
      </trkpt>
      <trkpt lat="46.5493" lon="5.26039">
        <ele>200.6</ele>
        <time>2022-06-30T12:50:25Z</time>
      </trkpt>
      <trkpt lat="46.54947" lon="5.2604">
        <ele>201.4</ele>
        <time>2022-06-30T12:50:28Z</time>
      </trkpt>
      <trkpt lat="46.54962" lon="5.26041">
        <ele>202</ele>
        <time>2022-06-30T12:50:31Z</time>
      </trkpt>
      <trkpt lat="46.54966" lon="5.26041">
        <ele>202.2</ele>
        <time>2022-06-30T12:50:32Z</time>
      </trkpt>
      <trkpt lat="46.54971" lon="5.26042">
        <ele>202.4</ele>
        <time>2022-06-30T12:50:33Z</time>
      </trkpt>
      <trkpt lat="46.54984" lon="5.26043">
        <ele>203.6</ele>
        <time>2022-06-30T12:50:36Z</time>
      </trkpt>
      <trkpt lat="46.54993" lon="5.26044">
        <ele>204.2</ele>
        <time>2022-06-30T12:50:38Z</time>
      </trkpt>
      <trkpt lat="46.54998" lon="5.26045">
        <ele>204.6</ele>
        <time>2022-06-30T12:50:39Z</time>
      </trkpt>
      <trkpt lat="46.5501" lon="5.26046">
        <ele>205.8</ele>
        <time>2022-06-30T12:50:42Z</time>
      </trkpt>
      <trkpt lat="46.55026" lon="5.26047">
        <ele>206.8</ele>
        <time>2022-06-30T12:50:46Z</time>
      </trkpt>
      <trkpt lat="46.5503" lon="5.26048">
        <ele>207.2</ele>
        <time>2022-06-30T12:50:47Z</time>
      </trkpt>
      <trkpt lat="46.55043" lon="5.26051">
        <ele>208</ele>
        <time>2022-06-30T12:50:50Z</time>
      </trkpt>
      <trkpt lat="46.55065" lon="5.26058">
        <ele>209</ele>
        <time>2022-06-30T12:50:55Z</time>
      </trkpt>
      <trkpt lat="46.55078" lon="5.26062">
        <ele>210</ele>
        <time>2022-06-30T12:50:58Z</time>
      </trkpt>
      <trkpt lat="46.55083" lon="5.26064">
        <ele>210</ele>
        <time>2022-06-30T12:50:59Z</time>
      </trkpt>
      <trkpt lat="46.55093" lon="5.26068">
        <ele>210.4</ele>
        <time>2022-06-30T12:51:01Z</time>
      </trkpt>
      <trkpt lat="46.55103" lon="5.26072">
        <ele>211.4</ele>
        <time>2022-06-30T12:51:03Z</time>
      </trkpt>
      <trkpt lat="46.55126" lon="5.26085">
        <ele>212</ele>
        <time>2022-06-30T12:51:08Z</time>
      </trkpt>
      <trkpt lat="46.55131" lon="5.26087">
        <ele>212.4</ele>
        <time>2022-06-30T12:51:09Z</time>
      </trkpt>
      <trkpt lat="46.55152" lon="5.26101">
        <ele>213.6</ele>
        <time>2022-06-30T12:51:14Z</time>
      </trkpt>
      <trkpt lat="46.55162" lon="5.26106">
        <ele>214</ele>
        <time>2022-06-30T12:51:16Z</time>
      </trkpt>
      <trkpt lat="46.55185" lon="5.2612">
        <ele>214.6</ele>
        <time>2022-06-30T12:51:21Z</time>
      </trkpt>
      <trkpt lat="46.55199" lon="5.26129">
        <ele>215</ele>
        <time>2022-06-30T12:51:24Z</time>
      </trkpt>
      <trkpt lat="46.55228" lon="5.2614">
        <ele>215.6</ele>
        <time>2022-06-30T12:51:29Z</time>
      </trkpt>
      <trkpt lat="46.55235" lon="5.2614">
        <ele>215.6</ele>
        <time>2022-06-30T12:51:30Z</time>
      </trkpt>
      <trkpt lat="46.55242" lon="5.26139">
        <ele>215.6</ele>
        <time>2022-06-30T12:51:31Z</time>
      </trkpt>
      <trkpt lat="46.55263" lon="5.26131">
        <ele>215.6</ele>
        <time>2022-06-30T12:51:34Z</time>
      </trkpt>
      <trkpt lat="46.55278" lon="5.26126">
        <ele>215.4</ele>
        <time>2022-06-30T12:51:36Z</time>
      </trkpt>
      <trkpt lat="46.55293" lon="5.26125">
        <ele>215</ele>
        <time>2022-06-30T12:51:38Z</time>
      </trkpt>
      <trkpt lat="46.55331" lon="5.26132">
        <ele>214.8</ele>
        <time>2022-06-30T12:51:43Z</time>
      </trkpt>
      <trkpt lat="46.55375" lon="5.2615">
        <ele>214.6</ele>
        <time>2022-06-30T12:51:49Z</time>
      </trkpt>
      <trkpt lat="46.55381" lon="5.26154">
        <ele>214.6</ele>
        <time>2022-06-30T12:51:50Z</time>
      </trkpt>
      <trkpt lat="46.55419" lon="5.26184">
        <ele>214.8</ele>
        <time>2022-06-30T12:51:56Z</time>
      </trkpt>
      <trkpt lat="46.55462" lon="5.26211">
        <ele>214.8</ele>
        <time>2022-06-30T12:52:02Z</time>
      </trkpt>
      <trkpt lat="46.55477" lon="5.26216">
        <ele>214.8</ele>
        <time>2022-06-30T12:52:04Z</time>
      </trkpt>
      <trkpt lat="46.55492" lon="5.26217">
        <ele>214.6</ele>
        <time>2022-06-30T12:52:06Z</time>
      </trkpt>
      <trkpt lat="46.55543" lon="5.2621">
        <ele>214.2</ele>
        <time>2022-06-30T12:52:13Z</time>
      </trkpt>
      <trkpt lat="46.5555" lon="5.26209">
        <ele>214.2</ele>
        <time>2022-06-30T12:52:14Z</time>
      </trkpt>
      <trkpt lat="46.55564" lon="5.2621">
        <ele>214.2</ele>
        <time>2022-06-30T12:52:16Z</time>
      </trkpt>
      <trkpt lat="46.55571" lon="5.26212">
        <ele>214.2</ele>
        <time>2022-06-30T12:52:17Z</time>
      </trkpt>
      <trkpt lat="46.5562" lon="5.26219">
        <ele>214.6</ele>
        <time>2022-06-30T12:52:24Z</time>
      </trkpt>
      <trkpt lat="46.55664" lon="5.26214">
        <ele>214.8</ele>
        <time>2022-06-30T12:52:30Z</time>
      </trkpt>
      <trkpt lat="46.55722" lon="5.2621">
        <ele>214.8</ele>
        <time>2022-06-30T12:52:38Z</time>
      </trkpt>
      <trkpt lat="46.55779" lon="5.26208">
        <ele>215</ele>
        <time>2022-06-30T12:52:46Z</time>
      </trkpt>
      <trkpt lat="46.55821" lon="5.26206">
        <ele>215.4</ele>
        <time>2022-06-30T12:52:52Z</time>
      </trkpt>
      <trkpt lat="46.5586" lon="5.26204">
        <ele>215.2</ele>
        <time>2022-06-30T12:52:57Z</time>
      </trkpt>
      <trkpt lat="46.55914" lon="5.26202">
        <ele>214.4</ele>
        <time>2022-06-30T12:53:03Z</time>
      </trkpt>
      <trkpt lat="46.55934" lon="5.26201">
        <ele>213.2</ele>
        <time>2022-06-30T12:53:05Z</time>
      </trkpt>
      <trkpt lat="46.55955" lon="5.262">
        <ele>212.2</ele>
        <time>2022-06-30T12:53:07Z</time>
      </trkpt>
      <trkpt lat="46.55966" lon="5.262">
        <ele>211.4</ele>
        <time>2022-06-30T12:53:08Z</time>
      </trkpt>
      <trkpt lat="46.55977" lon="5.262">
        <ele>211</ele>
        <time>2022-06-30T12:53:09Z</time>
      </trkpt>
      <trkpt lat="46.56022" lon="5.262">
        <ele>209</ele>
        <time>2022-06-30T12:53:13Z</time>
      </trkpt>
      <trkpt lat="46.56056" lon="5.26202">
        <ele>208</ele>
        <time>2022-06-30T12:53:16Z</time>
      </trkpt>
      <trkpt lat="46.56067" lon="5.26204">
        <ele>206.6</ele>
        <time>2022-06-30T12:53:17Z</time>
      </trkpt>
      <trkpt lat="46.56078" lon="5.26206">
        <ele>206.2</ele>
        <time>2022-06-30T12:53:18Z</time>
      </trkpt>
      <trkpt lat="46.561" lon="5.26211">
        <ele>205.2</ele>
        <time>2022-06-30T12:53:20Z</time>
      </trkpt>
      <trkpt lat="46.5612" lon="5.26216">
        <ele>204</ele>
        <time>2022-06-30T12:53:22Z</time>
      </trkpt>
      <trkpt lat="46.56129" lon="5.26217">
        <ele>203.6</ele>
        <time>2022-06-30T12:53:23Z</time>
      </trkpt>
      <trkpt lat="46.56147" lon="5.26214">
        <ele>202.8</ele>
        <time>2022-06-30T12:53:25Z</time>
      </trkpt>
      <trkpt lat="46.56164" lon="5.26204">
        <ele>202</ele>
        <time>2022-06-30T12:53:27Z</time>
      </trkpt>
      <trkpt lat="46.5618" lon="5.26189">
        <ele>201.8</ele>
        <time>2022-06-30T12:53:29Z</time>
      </trkpt>
      <trkpt lat="46.56211" lon="5.2616">
        <ele>201.4</ele>
        <time>2022-06-30T12:53:33Z</time>
      </trkpt>
      <trkpt lat="46.56257" lon="5.26116">
        <ele>200.8</ele>
        <time>2022-06-30T12:53:39Z</time>
      </trkpt>
      <trkpt lat="46.56272" lon="5.26101">
        <ele>200.6</ele>
        <time>2022-06-30T12:53:41Z</time>
      </trkpt>
      <trkpt lat="46.56322" lon="5.26052">
        <ele>200.2</ele>
        <time>2022-06-30T12:53:48Z</time>
      </trkpt>
      <trkpt lat="46.56352" lon="5.26025">
        <ele>199.8</ele>
        <time>2022-06-30T12:53:52Z</time>
      </trkpt>
      <trkpt lat="46.56403" lon="5.25976">
        <ele>199.8</ele>
        <time>2022-06-30T12:53:59Z</time>
      </trkpt>
      <trkpt lat="46.56424" lon="5.25956">
        <ele>199.8</ele>
        <time>2022-06-30T12:54:02Z</time>
      </trkpt>
      <trkpt lat="46.56438" lon="5.25943">
        <ele>199.6</ele>
        <time>2022-06-30T12:54:04Z</time>
      </trkpt>
      <trkpt lat="46.56473" lon="5.2591">
        <ele>199.8</ele>
        <time>2022-06-30T12:54:09Z</time>
      </trkpt>
      <trkpt lat="46.56519" lon="5.25866">
        <ele>200</ele>
        <time>2022-06-30T12:54:16Z</time>
      </trkpt>
      <trkpt lat="46.56564" lon="5.25822">
        <ele>200</ele>
        <time>2022-06-30T12:54:23Z</time>
      </trkpt>
      <trkpt lat="46.56576" lon="5.25809">
        <ele>200</ele>
        <time>2022-06-30T12:54:25Z</time>
      </trkpt>
      <trkpt lat="46.56583" lon="5.25802">
        <ele>200</ele>
        <time>2022-06-30T12:54:26Z</time>
      </trkpt>
      <trkpt lat="46.56625" lon="5.25753">
        <ele>199.8</ele>
        <time>2022-06-30T12:54:33Z</time>
      </trkpt>
      <trkpt lat="46.56636" lon="5.25739">
        <ele>199.8</ele>
        <time>2022-06-30T12:54:35Z</time>
      </trkpt>
      <trkpt lat="46.56679" lon="5.25689">
        <ele>199.4</ele>
        <time>2022-06-30T12:54:42Z</time>
      </trkpt>
      <trkpt lat="46.56715" lon="5.25647">
        <ele>199.2</ele>
        <time>2022-06-30T12:54:48Z</time>
      </trkpt>
      <trkpt lat="46.56758" lon="5.25586">
        <ele>198.8</ele>
        <time>2022-06-30T12:54:56Z</time>
      </trkpt>
      <trkpt lat="46.56789" lon="5.25517">
        <ele>198.2</ele>
        <time>2022-06-30T12:55:03Z</time>
      </trkpt>
      <trkpt lat="46.56804" lon="5.25476">
        <ele>197.8</ele>
        <time>2022-06-30T12:55:07Z</time>
      </trkpt>
      <trkpt lat="46.56814" lon="5.25444">
        <ele>197.4</ele>
        <time>2022-06-30T12:55:10Z</time>
      </trkpt>
      <trkpt lat="46.56816" lon="5.25409">
        <ele>197</ele>
        <time>2022-06-30T12:55:13Z</time>
      </trkpt>
      <trkpt lat="46.56816" lon="5.25398">
        <ele>196.8</ele>
        <time>2022-06-30T12:55:14Z</time>
      </trkpt>
      <trkpt lat="46.56815" lon="5.25387">
        <ele>196.6</ele>
        <time>2022-06-30T12:55:15Z</time>
      </trkpt>
      <trkpt lat="46.56809" lon="5.25355">
        <ele>196.2</ele>
        <time>2022-06-30T12:55:18Z</time>
      </trkpt>
      <trkpt lat="46.5679" lon="5.25287">
        <ele>196.4</ele>
        <time>2022-06-30T12:55:25Z</time>
      </trkpt>
      <trkpt lat="46.56783" lon="5.2524">
        <ele>196.6</ele>
        <time>2022-06-30T12:55:30Z</time>
      </trkpt>
      <trkpt lat="46.56786" lon="5.25186">
        <ele>196.6</ele>
        <time>2022-06-30T12:55:36Z</time>
      </trkpt>
      <trkpt lat="46.56803" lon="5.25121">
        <ele>197.6</ele>
        <time>2022-06-30T12:55:44Z</time>
      </trkpt>
      <trkpt lat="46.56809" lon="5.25087">
        <ele>198</ele>
        <time>2022-06-30T12:55:48Z</time>
      </trkpt>
      <trkpt lat="46.5681" lon="5.25078">
        <ele>198</ele>
        <time>2022-06-30T12:55:49Z</time>
      </trkpt>
      <trkpt lat="46.5681" lon="5.25069">
        <ele>198</ele>
        <time>2022-06-30T12:55:50Z</time>
      </trkpt>
      <trkpt lat="46.56811" lon="5.25024">
        <ele>198.4</ele>
        <time>2022-06-30T12:55:55Z</time>
      </trkpt>
      <trkpt lat="46.56812" lon="5.25015">
        <ele>198.4</ele>
        <time>2022-06-30T12:55:56Z</time>
      </trkpt>
      <trkpt lat="46.56814" lon="5.25007">
        <ele>198.4</ele>
        <time>2022-06-30T12:55:57Z</time>
      </trkpt>
      <trkpt lat="46.5682" lon="5.2499">
        <ele>198.4</ele>
        <time>2022-06-30T12:55:59Z</time>
      </trkpt>
      <trkpt lat="46.56823" lon="5.24983">
        <ele>198.6</ele>
        <time>2022-06-30T12:56:00Z</time>
      </trkpt>
      <trkpt lat="46.56848" lon="5.24942">
        <ele>198.8</ele>
        <time>2022-06-30T12:56:06Z</time>
      </trkpt>
      <trkpt lat="46.56875" lon="5.24902">
        <ele>198.8</ele>
        <time>2022-06-30T12:56:12Z</time>
      </trkpt>
      <trkpt lat="46.56884" lon="5.24887">
        <ele>198.8</ele>
        <time>2022-06-30T12:56:14Z</time>
      </trkpt>
      <trkpt lat="46.56898" lon="5.24852">
        <ele>198.4</ele>
        <time>2022-06-30T12:56:18Z</time>
      </trkpt>
      <trkpt lat="46.56924" lon="5.2478">
        <ele>197.8</ele>
        <time>2022-06-30T12:56:26Z</time>
      </trkpt>
      <trkpt lat="46.56931" lon="5.24763">
        <ele>197.8</ele>
        <time>2022-06-30T12:56:28Z</time>
      </trkpt>
      <trkpt lat="46.56952" lon="5.24705">
        <ele>197.8</ele>
        <time>2022-06-30T12:56:35Z</time>
      </trkpt>
      <trkpt lat="46.56956" lon="5.24698">
        <ele>197.8</ele>
        <time>2022-06-30T12:56:36Z</time>
      </trkpt>
      <trkpt lat="46.56973" lon="5.24657">
        <ele>198.6</ele>
        <time>2022-06-30T12:56:42Z</time>
      </trkpt>
      <trkpt lat="46.56975" lon="5.24652">
        <ele>198.6</ele>
        <time>2022-06-30T12:56:43Z</time>
      </trkpt>
      <trkpt lat="46.56982" lon="5.24645">
        <ele>199</ele>
        <time>2022-06-30T12:56:46Z</time>
      </trkpt>
      <trkpt lat="46.56991" lon="5.24648">
        <ele>199.4</ele>
        <time>2022-06-30T12:56:48Z</time>
      </trkpt>
      <trkpt lat="46.56996" lon="5.2465">
        <ele>199.4</ele>
        <time>2022-06-30T12:56:49Z</time>
      </trkpt>
      <trkpt lat="46.57022" lon="5.24661">
        <ele>199.6</ele>
        <time>2022-06-30T12:56:53Z</time>
      </trkpt>
      <trkpt lat="46.57077" lon="5.2468">
        <ele>198.8</ele>
        <time>2022-06-30T12:57:00Z</time>
      </trkpt>
      <trkpt lat="46.57118" lon="5.24694">
        <ele>198</ele>
        <time>2022-06-30T12:57:05Z</time>
      </trkpt>
      <trkpt lat="46.57127" lon="5.24696">
        <ele>198</ele>
        <time>2022-06-30T12:57:06Z</time>
      </trkpt>
      <trkpt lat="46.57136" lon="5.24696">
        <ele>197.8</ele>
        <time>2022-06-30T12:57:07Z</time>
      </trkpt>
      <trkpt lat="46.57162" lon="5.24691">
        <ele>196.8</ele>
        <time>2022-06-30T12:57:10Z</time>
      </trkpt>
      <trkpt lat="46.57188" lon="5.24681">
        <ele>196.2</ele>
        <time>2022-06-30T12:57:13Z</time>
      </trkpt>
      <trkpt lat="46.57205" lon="5.24675">
        <ele>195.8</ele>
        <time>2022-06-30T12:57:15Z</time>
      </trkpt>
      <trkpt lat="46.57253" lon="5.24657">
        <ele>194.8</ele>
        <time>2022-06-30T12:57:21Z</time>
      </trkpt>
      <trkpt lat="46.57261" lon="5.24654">
        <ele>194.6</ele>
        <time>2022-06-30T12:57:22Z</time>
      </trkpt>
      <trkpt lat="46.57269" lon="5.24653">
        <ele>194.6</ele>
        <time>2022-06-30T12:57:23Z</time>
      </trkpt>
      <trkpt lat="46.57277" lon="5.24655">
        <ele>194.6</ele>
        <time>2022-06-30T12:57:24Z</time>
      </trkpt>
      <trkpt lat="46.57284" lon="5.2466">
        <ele>194.4</ele>
        <time>2022-06-30T12:57:25Z</time>
      </trkpt>
      <trkpt lat="46.57288" lon="5.24667">
        <ele>194.2</ele>
        <time>2022-06-30T12:57:26Z</time>
      </trkpt>
      <trkpt lat="46.5729" lon="5.24677">
        <ele>194.2</ele>
        <time>2022-06-30T12:57:27Z</time>
      </trkpt>
      <trkpt lat="46.573" lon="5.24708">
        <ele>193.8</ele>
        <time>2022-06-30T12:57:30Z</time>
      </trkpt>
      <trkpt lat="46.57312" lon="5.24726">
        <ele>193.6</ele>
        <time>2022-06-30T12:57:32Z</time>
      </trkpt>
      <trkpt lat="46.57318" lon="5.24733">
        <ele>193.4</ele>
        <time>2022-06-30T12:57:33Z</time>
      </trkpt>
      <trkpt lat="46.57325" lon="5.24739">
        <ele>193.4</ele>
        <time>2022-06-30T12:57:34Z</time>
      </trkpt>
      <trkpt lat="46.57374" lon="5.24791">
        <ele>194</ele>
        <time>2022-06-30T12:57:42Z</time>
      </trkpt>
      <trkpt lat="46.57397" lon="5.24838">
        <ele>194.2</ele>
        <time>2022-06-30T12:57:47Z</time>
      </trkpt>
      <trkpt lat="46.57426" lon="5.24904">
        <ele>194.2</ele>
        <time>2022-06-30T12:57:54Z</time>
      </trkpt>
      <trkpt lat="46.57435" lon="5.24921">
        <ele>194.2</ele>
        <time>2022-06-30T12:57:56Z</time>
      </trkpt>
      <trkpt lat="46.57467" lon="5.24995">
        <ele>194.2</ele>
        <time>2022-06-30T12:58:04Z</time>
      </trkpt>
      <trkpt lat="46.57483" lon="5.25033">
        <ele>194.2</ele>
        <time>2022-06-30T12:58:08Z</time>
      </trkpt>
      <trkpt lat="46.57514" lon="5.25094">
        <ele>194.4</ele>
        <time>2022-06-30T12:58:15Z</time>
      </trkpt>
      <trkpt lat="46.57541" lon="5.25126">
        <ele>194.6</ele>
        <time>2022-06-30T12:58:20Z</time>
      </trkpt>
      <trkpt lat="46.57548" lon="5.25131">
        <ele>194.6</ele>
        <time>2022-06-30T12:58:21Z</time>
      </trkpt>
      <trkpt lat="46.57554" lon="5.25134">
        <ele>194.8</ele>
        <time>2022-06-30T12:58:22Z</time>
      </trkpt>
      <trkpt lat="46.57568" lon="5.25139">
        <ele>195</ele>
        <time>2022-06-30T12:58:24Z</time>
      </trkpt>
      <trkpt lat="46.57594" lon="5.25146">
        <ele>196</ele>
        <time>2022-06-30T12:58:28Z</time>
      </trkpt>
      <trkpt lat="46.57601" lon="5.25146">
        <ele>196.2</ele>
        <time>2022-06-30T12:58:29Z</time>
      </trkpt>
      <trkpt lat="46.57608" lon="5.25145">
        <ele>196.2</ele>
        <time>2022-06-30T12:58:30Z</time>
      </trkpt>
      <trkpt lat="46.57638" lon="5.25133">
        <ele>197</ele>
        <time>2022-06-30T12:58:35Z</time>
      </trkpt>
      <trkpt lat="46.57644" lon="5.2513">
        <ele>197.2</ele>
        <time>2022-06-30T12:58:36Z</time>
      </trkpt>
      <trkpt lat="46.57679" lon="5.25109">
        <ele>198.4</ele>
        <time>2022-06-30T12:58:42Z</time>
      </trkpt>
      <trkpt lat="46.57685" lon="5.25106">
        <ele>198.6</ele>
        <time>2022-06-30T12:58:43Z</time>
      </trkpt>
      <trkpt lat="46.57708" lon="5.251">
        <ele>199.6</ele>
        <time>2022-06-30T12:58:47Z</time>
      </trkpt>
      <trkpt lat="46.57735" lon="5.25097">
        <ele>201</ele>
        <time>2022-06-30T12:58:52Z</time>
      </trkpt>
      <trkpt lat="46.57753" lon="5.25098">
        <ele>201.6</ele>
        <time>2022-06-30T12:58:55Z</time>
      </trkpt>
      <trkpt lat="46.57776" lon="5.25098">
        <ele>202</ele>
        <time>2022-06-30T12:58:59Z</time>
      </trkpt>
      <trkpt lat="46.57815" lon="5.251">
        <ele>202.4</ele>
        <time>2022-06-30T12:59:05Z</time>
      </trkpt>
      <trkpt lat="46.57874" lon="5.25102">
        <ele>201.6</ele>
        <time>2022-06-30T12:59:13Z</time>
      </trkpt>
      <trkpt lat="46.57906" lon="5.25101">
        <ele>201.2</ele>
        <time>2022-06-30T12:59:17Z</time>
      </trkpt>
      <trkpt lat="46.57931" lon="5.25099">
        <ele>200.8</ele>
        <time>2022-06-30T12:59:20Z</time>
      </trkpt>
      <trkpt lat="46.57965" lon="5.25097">
        <ele>199.8</ele>
        <time>2022-06-30T12:59:24Z</time>
      </trkpt>
      <trkpt lat="46.58001" lon="5.25095">
        <ele>198.6</ele>
        <time>2022-06-30T12:59:28Z</time>
      </trkpt>
      <trkpt lat="46.58061" lon="5.25094">
        <ele>197.6</ele>
        <time>2022-06-30T12:59:35Z</time>
      </trkpt>
      <trkpt lat="46.58117" lon="5.25098">
        <ele>197.2</ele>
        <time>2022-06-30T12:59:42Z</time>
      </trkpt>
      <trkpt lat="46.58167" lon="5.25096">
        <ele>197.4</ele>
        <time>2022-06-30T12:59:49Z</time>
      </trkpt>
      <trkpt lat="46.58208" lon="5.25083">
        <ele>197.4</ele>
        <time>2022-06-30T12:59:55Z</time>
      </trkpt>
      <trkpt lat="46.58267" lon="5.25059">
        <ele>197.4</ele>
        <time>2022-06-30T13:00:03Z</time>
      </trkpt>
      <trkpt lat="46.58275" lon="5.25056">
        <ele>197.2</ele>
        <time>2022-06-30T13:00:04Z</time>
      </trkpt>
      <trkpt lat="46.58313" lon="5.25039">
        <ele>196.6</ele>
        <time>2022-06-30T13:00:09Z</time>
      </trkpt>
      <trkpt lat="46.58351" lon="5.25023">
        <ele>196</ele>
        <time>2022-06-30T13:00:14Z</time>
      </trkpt>
      <trkpt lat="46.584" lon="5.25003">
        <ele>195.6</ele>
        <time>2022-06-30T13:00:21Z</time>
      </trkpt>
      <trkpt lat="46.58406" lon="5.25">
        <ele>195.6</ele>
        <time>2022-06-30T13:00:22Z</time>
      </trkpt>
      <trkpt lat="46.58443" lon="5.24985">
        <ele>195.6</ele>
        <time>2022-06-30T13:00:28Z</time>
      </trkpt>
      <trkpt lat="46.58475" lon="5.24971">
        <ele>196.6</ele>
        <time>2022-06-30T13:00:34Z</time>
      </trkpt>
      <trkpt lat="46.58481" lon="5.24969">
        <ele>196.8</ele>
        <time>2022-06-30T13:00:35Z</time>
      </trkpt>
      <trkpt lat="46.58506" lon="5.24959">
        <ele>197.8</ele>
        <time>2022-06-30T13:00:40Z</time>
      </trkpt>
      <trkpt lat="46.58525" lon="5.24951">
        <ele>198.6</ele>
        <time>2022-06-30T13:00:44Z</time>
      </trkpt>
      <trkpt lat="46.58544" lon="5.24943">
        <ele>199</ele>
        <time>2022-06-30T13:00:48Z</time>
      </trkpt>
      <trkpt lat="46.58557" lon="5.24937">
        <ele>200.2</ele>
        <time>2022-06-30T13:00:51Z</time>
      </trkpt>
      <trkpt lat="46.58562" lon="5.24935">
        <ele>200.4</ele>
        <time>2022-06-30T13:00:52Z</time>
      </trkpt>
      <trkpt lat="46.58581" lon="5.24928">
        <ele>201.2</ele>
        <time>2022-06-30T13:00:56Z</time>
      </trkpt>
      <trkpt lat="46.58585" lon="5.24925">
        <ele>201.6</ele>
        <time>2022-06-30T13:00:57Z</time>
      </trkpt>
      <trkpt lat="46.58598" lon="5.2492">
        <ele>202.2</ele>
        <time>2022-06-30T13:01:00Z</time>
      </trkpt>
      <trkpt lat="46.58603" lon="5.24918">
        <ele>202.4</ele>
        <time>2022-06-30T13:01:01Z</time>
      </trkpt>
      <trkpt lat="46.58626" lon="5.24908">
        <ele>203.6</ele>
        <time>2022-06-30T13:01:06Z</time>
      </trkpt>
      <trkpt lat="46.58639" lon="5.24903">
        <ele>204.2</ele>
        <time>2022-06-30T13:01:09Z</time>
      </trkpt>
      <trkpt lat="46.58648" lon="5.249">
        <ele>204.6</ele>
        <time>2022-06-30T13:01:11Z</time>
      </trkpt>
      <trkpt lat="46.58669" lon="5.24891">
        <ele>206</ele>
        <time>2022-06-30T13:01:16Z</time>
      </trkpt>
      <trkpt lat="46.5869" lon="5.24882">
        <ele>207</ele>
        <time>2022-06-30T13:01:21Z</time>
      </trkpt>
      <trkpt lat="46.58711" lon="5.24873">
        <ele>208.2</ele>
        <time>2022-06-30T13:01:26Z</time>
      </trkpt>
      <trkpt lat="46.58736" lon="5.24863">
        <ele>209.2</ele>
        <time>2022-06-30T13:01:32Z</time>
      </trkpt>
      <trkpt lat="46.58756" lon="5.24855">
        <ele>210.4</ele>
        <time>2022-06-30T13:01:37Z</time>
      </trkpt>
      <trkpt lat="46.58778" lon="5.24846">
        <ele>211.6</ele>
        <time>2022-06-30T13:01:42Z</time>
      </trkpt>
      <trkpt lat="46.58782" lon="5.24844">
        <ele>211.8</ele>
        <time>2022-06-30T13:01:43Z</time>
      </trkpt>
      <trkpt lat="46.58796" lon="5.24838">
        <ele>212.6</ele>
        <time>2022-06-30T13:01:46Z</time>
      </trkpt>
      <trkpt lat="46.58825" lon="5.24825">
        <ele>213.4</ele>
        <time>2022-06-30T13:01:52Z</time>
      </trkpt>
      <trkpt lat="46.5884" lon="5.24819">
        <ele>213.6</ele>
        <time>2022-06-30T13:01:55Z</time>
      </trkpt>
      <trkpt lat="46.58884" lon="5.248">
        <ele>214.4</ele>
        <time>2022-06-30T13:02:03Z</time>
      </trkpt>
      <trkpt lat="46.58932" lon="5.2478">
        <ele>214.4</ele>
        <time>2022-06-30T13:02:11Z</time>
      </trkpt>
      <trkpt lat="46.58962" lon="5.24766">
        <ele>214.6</ele>
        <time>2022-06-30T13:02:16Z</time>
      </trkpt>
      <trkpt lat="46.58974" lon="5.24761">
        <ele>214.6</ele>
        <time>2022-06-30T13:02:18Z</time>
      </trkpt>
      <trkpt lat="46.58986" lon="5.24756">
        <ele>214.6</ele>
        <time>2022-06-30T13:02:20Z</time>
      </trkpt>
      <trkpt lat="46.58995" lon="5.24759">
        <ele>214.6</ele>
        <time>2022-06-30T13:02:22Z</time>
      </trkpt>
      <trkpt lat="46.58994" lon="5.24773">
        <ele>214.4</ele>
        <time>2022-06-30T13:02:24Z</time>
      </trkpt>
      <trkpt lat="46.58991" lon="5.24781">
        <ele>214.4</ele>
        <time>2022-06-30T13:02:25Z</time>
      </trkpt>
      <trkpt lat="46.58985" lon="5.24798">
        <ele>214.2</ele>
        <time>2022-06-30T13:02:27Z</time>
      </trkpt>
      <trkpt lat="46.58982" lon="5.24808">
        <ele>214</ele>
        <time>2022-06-30T13:02:28Z</time>
      </trkpt>
      <trkpt lat="46.58963" lon="5.2487">
        <ele>213.8</ele>
        <time>2022-06-30T13:02:34Z</time>
      </trkpt>
      <trkpt lat="46.58936" lon="5.24941">
        <ele>213.8</ele>
        <time>2022-06-30T13:02:41Z</time>
      </trkpt>
      <trkpt lat="46.58909" lon="5.25012">
        <ele>214</ele>
        <time>2022-06-30T13:02:48Z</time>
      </trkpt>
      <trkpt lat="46.58905" lon="5.25022">
        <ele>214</ele>
        <time>2022-06-30T13:02:49Z</time>
      </trkpt>
      <trkpt lat="46.58878" lon="5.25094">
        <ele>214.2</ele>
        <time>2022-06-30T13:02:56Z</time>
      </trkpt>
      <trkpt lat="46.58869" lon="5.25115">
        <ele>214.2</ele>
        <time>2022-06-30T13:02:58Z</time>
      </trkpt>
      <trkpt lat="46.58845" lon="5.25176">
        <ele>214</ele>
        <time>2022-06-30T13:03:04Z</time>
      </trkpt>
      <trkpt lat="46.58828" lon="5.25215">
        <ele>213.6</ele>
        <time>2022-06-30T13:03:08Z</time>
      </trkpt>
      <trkpt lat="46.58824" lon="5.25223">
        <ele>213.6</ele>
        <time>2022-06-30T13:03:09Z</time>
      </trkpt>
      <trkpt lat="46.58791" lon="5.25282">
        <ele>214</ele>
        <time>2022-06-30T13:03:16Z</time>
      </trkpt>
      <trkpt lat="46.58773" lon="5.25315">
        <ele>214.2</ele>
        <time>2022-06-30T13:03:20Z</time>
      </trkpt>
      <trkpt lat="46.58765" lon="5.25333">
        <ele>214.4</ele>
        <time>2022-06-30T13:03:22Z</time>
      </trkpt>
      <trkpt lat="46.58762" lon="5.25343">
        <ele>214.4</ele>
        <time>2022-06-30T13:03:23Z</time>
      </trkpt>
      <trkpt lat="46.58752" lon="5.25384">
        <ele>214.6</ele>
        <time>2022-06-30T13:03:27Z</time>
      </trkpt>
      <trkpt lat="46.5874" lon="5.25449">
        <ele>214.8</ele>
        <time>2022-06-30T13:03:33Z</time>
      </trkpt>
      <trkpt lat="46.58725" lon="5.25529">
        <ele>214.6</ele>
        <time>2022-06-30T13:03:40Z</time>
      </trkpt>
      <trkpt lat="46.58722" lon="5.25553">
        <ele>214.4</ele>
        <time>2022-06-30T13:03:42Z</time>
      </trkpt>
      <trkpt lat="46.58721" lon="5.25565">
        <ele>214.4</ele>
        <time>2022-06-30T13:03:43Z</time>
      </trkpt>
      <trkpt lat="46.58723" lon="5.25601">
        <ele>214.2</ele>
        <time>2022-06-30T13:03:46Z</time>
      </trkpt>
      <trkpt lat="46.58737" lon="5.25656">
        <ele>213.8</ele>
        <time>2022-06-30T13:03:51Z</time>
      </trkpt>
      <trkpt lat="46.58757" lon="5.25729">
        <ele>214</ele>
        <time>2022-06-30T13:03:58Z</time>
      </trkpt>
      <trkpt lat="46.58762" lon="5.25786">
        <ele>214.6</ele>
        <time>2022-06-30T13:04:03Z</time>
      </trkpt>
      <trkpt lat="46.58767" lon="5.25865">
        <ele>214.8</ele>
        <time>2022-06-30T13:04:10Z</time>
      </trkpt>
      <trkpt lat="46.58767" lon="5.25876">
        <ele>214.8</ele>
        <time>2022-06-30T13:04:11Z</time>
      </trkpt>
      <trkpt lat="46.58771" lon="5.25957">
        <ele>215</ele>
        <time>2022-06-30T13:04:18Z</time>
      </trkpt>
      <trkpt lat="46.58773" lon="5.26013">
        <ele>215</ele>
        <time>2022-06-30T13:04:23Z</time>
      </trkpt>
      <trkpt lat="46.5877" lon="5.26035">
        <ele>215</ele>
        <time>2022-06-30T13:04:25Z</time>
      </trkpt>
      <trkpt lat="46.58768" lon="5.26046">
        <ele>215.2</ele>
        <time>2022-06-30T13:04:26Z</time>
      </trkpt>
      <trkpt lat="46.58756" lon="5.26088">
        <ele>215.2</ele>
        <time>2022-06-30T13:04:30Z</time>
      </trkpt>
      <trkpt lat="46.58726" lon="5.26142">
        <ele>215.2</ele>
        <time>2022-06-30T13:04:36Z</time>
      </trkpt>
      <trkpt lat="46.58687" lon="5.26199">
        <ele>215.4</ele>
        <time>2022-06-30T13:04:43Z</time>
      </trkpt>
      <trkpt lat="46.58665" lon="5.26232">
        <ele>215.4</ele>
        <time>2022-06-30T13:04:47Z</time>
      </trkpt>
      <trkpt lat="46.58628" lon="5.26292">
        <ele>215.6</ele>
        <time>2022-06-30T13:04:54Z</time>
      </trkpt>
      <trkpt lat="46.58618" lon="5.2631">
        <ele>215.6</ele>
        <time>2022-06-30T13:04:56Z</time>
      </trkpt>
      <trkpt lat="46.58584" lon="5.26374">
        <ele>215.6</ele>
        <time>2022-06-30T13:05:03Z</time>
      </trkpt>
      <trkpt lat="46.58574" lon="5.26391">
        <ele>215.6</ele>
        <time>2022-06-30T13:05:05Z</time>
      </trkpt>
      <trkpt lat="46.58541" lon="5.26455">
        <ele>215.6</ele>
        <time>2022-06-30T13:05:12Z</time>
      </trkpt>
      <trkpt lat="46.58533" lon="5.26474">
        <ele>215.6</ele>
        <time>2022-06-30T13:05:14Z</time>
      </trkpt>
      <trkpt lat="46.58508" lon="5.26544">
        <ele>215.8</ele>
        <time>2022-06-30T13:05:21Z</time>
      </trkpt>
      <trkpt lat="46.58503" lon="5.26563">
        <ele>215.8</ele>
        <time>2022-06-30T13:05:23Z</time>
      </trkpt>
      <trkpt lat="46.585" lon="5.26572">
        <ele>215.8</ele>
        <time>2022-06-30T13:05:24Z</time>
      </trkpt>
      <trkpt lat="46.58491" lon="5.26587">
        <ele>215.8</ele>
        <time>2022-06-30T13:05:26Z</time>
      </trkpt>
      <trkpt lat="46.58479" lon="5.26587">
        <ele>215.6</ele>
        <time>2022-06-30T13:05:28Z</time>
      </trkpt>
      <trkpt lat="46.58456" lon="5.26566">
        <ele>215.8</ele>
        <time>2022-06-30T13:05:32Z</time>
      </trkpt>
      <trkpt lat="46.58429" lon="5.26541">
        <ele>216</ele>
        <time>2022-06-30T13:05:36Z</time>
      </trkpt>
      <trkpt lat="46.58417" lon="5.26527">
        <ele>216</ele>
        <time>2022-06-30T13:05:38Z</time>
      </trkpt>
      <trkpt lat="46.58399" lon="5.26504">
        <ele>216.4</ele>
        <time>2022-06-30T13:05:41Z</time>
      </trkpt>
      <trkpt lat="46.58395" lon="5.26495">
        <ele>216.6</ele>
        <time>2022-06-30T13:05:42Z</time>
      </trkpt>
      <trkpt lat="46.58379" lon="5.26455">
        <ele>216.6</ele>
        <time>2022-06-30T13:05:46Z</time>
      </trkpt>
      <trkpt lat="46.58376" lon="5.26445">
        <ele>216.6</ele>
        <time>2022-06-30T13:05:47Z</time>
      </trkpt>
      <trkpt lat="46.58355" lon="5.26371">
        <ele>216</ele>
        <time>2022-06-30T13:05:54Z</time>
      </trkpt>
      <trkpt lat="46.5835" lon="5.26352">
        <ele>215.8</ele>
        <time>2022-06-30T13:05:56Z</time>
      </trkpt>
      <trkpt lat="46.58331" lon="5.26284">
        <ele>215.8</ele>
        <time>2022-06-30T13:06:03Z</time>
      </trkpt>
      <trkpt lat="46.5831" lon="5.26208">
        <ele>216.2</ele>
        <time>2022-06-30T13:06:11Z</time>
      </trkpt>
      <trkpt lat="46.58287" lon="5.26127">
        <ele>215.2</ele>
        <time>2022-06-30T13:06:19Z</time>
      </trkpt>
      <trkpt lat="46.58268" lon="5.26077">
        <ele>215.2</ele>
        <time>2022-06-30T13:06:24Z</time>
      </trkpt>
      <trkpt lat="46.58263" lon="5.26068">
        <ele>215</ele>
        <time>2022-06-30T13:06:25Z</time>
      </trkpt>
      <trkpt lat="46.58243" lon="5.26044">
        <ele>214.8</ele>
        <time>2022-06-30T13:06:28Z</time>
      </trkpt>
      <trkpt lat="46.58227" lon="5.26029">
        <ele>214.6</ele>
        <time>2022-06-30T13:06:30Z</time>
      </trkpt>
      <trkpt lat="46.58212" lon="5.26011">
        <ele>213.4</ele>
        <time>2022-06-30T13:06:32Z</time>
      </trkpt>
      <trkpt lat="46.58186" lon="5.25985">
        <ele>212.2</ele>
        <time>2022-06-30T13:06:35Z</time>
      </trkpt>
      <trkpt lat="46.58178" lon="5.25977">
        <ele>211.8</ele>
        <time>2022-06-30T13:06:36Z</time>
      </trkpt>
      <trkpt lat="46.58159" lon="5.25962">
        <ele>211</ele>
        <time>2022-06-30T13:06:38Z</time>
      </trkpt>
      <trkpt lat="46.58131" lon="5.25941">
        <ele>209.2</ele>
        <time>2022-06-30T13:06:41Z</time>
      </trkpt>
      <trkpt lat="46.58112" lon="5.25928">
        <ele>207.8</ele>
        <time>2022-06-30T13:06:43Z</time>
      </trkpt>
      <trkpt lat="46.58086" lon="5.2591">
        <ele>206.8</ele>
        <time>2022-06-30T13:06:46Z</time>
      </trkpt>
      <trkpt lat="46.58061" lon="5.25893">
        <ele>206</ele>
        <time>2022-06-30T13:06:49Z</time>
      </trkpt>
      <trkpt lat="46.5802" lon="5.25864">
        <ele>206.2</ele>
        <time>2022-06-30T13:06:55Z</time>
      </trkpt>
      <trkpt lat="46.57993" lon="5.25838">
        <ele>207.2</ele>
        <time>2022-06-30T13:07:00Z</time>
      </trkpt>
      <trkpt lat="46.57989" lon="5.25832">
        <ele>207.2</ele>
        <time>2022-06-30T13:07:01Z</time>
      </trkpt>
      <trkpt lat="46.57982" lon="5.25818">
        <ele>208</ele>
        <time>2022-06-30T13:07:03Z</time>
      </trkpt>
      <trkpt lat="46.57973" lon="5.25796">
        <ele>208.8</ele>
        <time>2022-06-30T13:07:06Z</time>
      </trkpt>
      <trkpt lat="46.5797" lon="5.2579">
        <ele>209.4</ele>
        <time>2022-06-30T13:07:07Z</time>
      </trkpt>
      <trkpt lat="46.57966" lon="5.25784">
        <ele>210</ele>
        <time>2022-06-30T13:07:08Z</time>
      </trkpt>
      <trkpt lat="46.57956" lon="5.25775">
        <ele>210.8</ele>
        <time>2022-06-30T13:07:10Z</time>
      </trkpt>
      <trkpt lat="46.57945" lon="5.2577">
        <ele>211.4</ele>
        <time>2022-06-30T13:07:12Z</time>
      </trkpt>
      <trkpt lat="46.57933" lon="5.25769">
        <ele>211.8</ele>
        <time>2022-06-30T13:07:14Z</time>
      </trkpt>
      <trkpt lat="46.57915" lon="5.25768">
        <ele>213</ele>
        <time>2022-06-30T13:07:17Z</time>
      </trkpt>
      <trkpt lat="46.57872" lon="5.25769">
        <ele>213.8</ele>
        <time>2022-06-30T13:07:24Z</time>
      </trkpt>
      <trkpt lat="46.5783" lon="5.25768">
        <ele>214.2</ele>
        <time>2022-06-30T13:07:31Z</time>
      </trkpt>
      <trkpt lat="46.57817" lon="5.25766">
        <ele>214.2</ele>
        <time>2022-06-30T13:07:33Z</time>
      </trkpt>
      <trkpt lat="46.57771" lon="5.25747">
        <ele>215</ele>
        <time>2022-06-30T13:07:41Z</time>
      </trkpt>
      <trkpt lat="46.57765" lon="5.25744">
        <ele>215.2</ele>
        <time>2022-06-30T13:07:42Z</time>
      </trkpt>
      <trkpt lat="46.57738" lon="5.25723">
        <ele>216</ele>
        <time>2022-06-30T13:07:47Z</time>
      </trkpt>
      <trkpt lat="46.57721" lon="5.25712">
        <ele>216</ele>
        <time>2022-06-30T13:07:50Z</time>
      </trkpt>
      <trkpt lat="46.57708" lon="5.25708">
        <ele>216.2</ele>
        <time>2022-06-30T13:07:52Z</time>
      </trkpt>
      <trkpt lat="46.57702" lon="5.25707">
        <ele>216.2</ele>
        <time>2022-06-30T13:07:53Z</time>
      </trkpt>
      <trkpt lat="46.57677" lon="5.25704">
        <ele>216</ele>
        <time>2022-06-30T13:07:57Z</time>
      </trkpt>
      <trkpt lat="46.57655" lon="5.25703">
        <ele>216</ele>
        <time>2022-06-30T13:08:01Z</time>
      </trkpt>
      <trkpt lat="46.57649" lon="5.25702">
        <ele>216</ele>
        <time>2022-06-30T13:08:02Z</time>
      </trkpt>
      <trkpt lat="46.57626" lon="5.25699">
        <ele>216.2</ele>
        <time>2022-06-30T13:08:06Z</time>
      </trkpt>
      <trkpt lat="46.57621" lon="5.25699">
        <ele>216.2</ele>
        <time>2022-06-30T13:08:07Z</time>
      </trkpt>
      <trkpt lat="46.57619" lon="5.25701">
        <ele>216</ele>
        <time>2022-06-30T13:08:08Z</time>
      </trkpt>
      <trkpt lat="46.57617" lon="5.25704">
        <ele>216</ele>
        <time>2022-06-30T13:08:09Z</time>
      </trkpt>
      <trkpt lat="46.57621" lon="5.25727">
        <ele>215.8</ele>
        <time>2022-06-30T13:08:13Z</time>
      </trkpt>
      <trkpt lat="46.57632" lon="5.25759">
        <ele>215.6</ele>
        <time>2022-06-30T13:08:17Z</time>
      </trkpt>
      <trkpt lat="46.57634" lon="5.25767">
        <ele>215.6</ele>
        <time>2022-06-30T13:08:18Z</time>
      </trkpt>
      <trkpt lat="46.57649" lon="5.25824">
        <ele>216.2</ele>
        <time>2022-06-30T13:08:25Z</time>
      </trkpt>
      <trkpt lat="46.57662" lon="5.25868">
        <ele>217</ele>
        <time>2022-06-30T13:08:30Z</time>
      </trkpt>
      <trkpt lat="46.57684" lon="5.25937">
        <ele>216.8</ele>
        <time>2022-06-30T13:08:37Z</time>
      </trkpt>
      <trkpt lat="46.57708" lon="5.26009">
        <ele>216.2</ele>
        <time>2022-06-30T13:08:44Z</time>
      </trkpt>
      <trkpt lat="46.57712" lon="5.2602">
        <ele>216</ele>
        <time>2022-06-30T13:08:45Z</time>
      </trkpt>
      <trkpt lat="46.57733" lon="5.26078">
        <ele>215</ele>
        <time>2022-06-30T13:08:50Z</time>
      </trkpt>
      <trkpt lat="46.57737" lon="5.26091">
        <ele>214.8</ele>
        <time>2022-06-30T13:08:51Z</time>
      </trkpt>
      <trkpt lat="46.57746" lon="5.26115">
        <ele>213.8</ele>
        <time>2022-06-30T13:08:53Z</time>
      </trkpt>
      <trkpt lat="46.57759" lon="5.2615">
        <ele>212.8</ele>
        <time>2022-06-30T13:08:56Z</time>
      </trkpt>
      <trkpt lat="46.57772" lon="5.26185">
        <ele>211.8</ele>
        <time>2022-06-30T13:08:59Z</time>
      </trkpt>
      <trkpt lat="46.57777" lon="5.26196">
        <ele>211.8</ele>
        <time>2022-06-30T13:09:00Z</time>
      </trkpt>
      <trkpt lat="46.57806" lon="5.26272">
        <ele>211</ele>
        <time>2022-06-30T13:09:07Z</time>
      </trkpt>
      <trkpt lat="46.57813" lon="5.26292">
        <ele>211</ele>
        <time>2022-06-30T13:09:09Z</time>
      </trkpt>
      <trkpt lat="46.57833" lon="5.26343">
        <ele>211.4</ele>
        <time>2022-06-30T13:09:15Z</time>
      </trkpt>
      <trkpt lat="46.57845" lon="5.2638">
        <ele>213</ele>
        <time>2022-06-30T13:09:20Z</time>
      </trkpt>
      <trkpt lat="46.57848" lon="5.26387">
        <ele>213.2</ele>
        <time>2022-06-30T13:09:21Z</time>
      </trkpt>
      <trkpt lat="46.57853" lon="5.264">
        <ele>214</ele>
        <time>2022-06-30T13:09:23Z</time>
      </trkpt>
      <trkpt lat="46.57863" lon="5.26428">
        <ele>215.2</ele>
        <time>2022-06-30T13:09:27Z</time>
      </trkpt>
      <trkpt lat="46.57868" lon="5.26443">
        <ele>215.8</ele>
        <time>2022-06-30T13:09:29Z</time>
      </trkpt>
      <trkpt lat="46.57876" lon="5.26465">
        <ele>216.6</ele>
        <time>2022-06-30T13:09:32Z</time>
      </trkpt>
      <trkpt lat="46.57893" lon="5.2651">
        <ele>217.2</ele>
        <time>2022-06-30T13:09:38Z</time>
      </trkpt>
      <trkpt lat="46.5791" lon="5.26556">
        <ele>217.6</ele>
        <time>2022-06-30T13:09:44Z</time>
      </trkpt>
      <trkpt lat="46.5792" lon="5.26579">
        <ele>218</ele>
        <time>2022-06-30T13:09:47Z</time>
      </trkpt>
      <trkpt lat="46.57952" lon="5.26648">
        <ele>218.4</ele>
        <time>2022-06-30T13:09:56Z</time>
      </trkpt>
      <trkpt lat="46.57991" lon="5.26708">
        <ele>218.6</ele>
        <time>2022-06-30T13:10:04Z</time>
      </trkpt>
      <trkpt lat="46.57996" lon="5.26716">
        <ele>218.6</ele>
        <time>2022-06-30T13:10:05Z</time>
      </trkpt>
      <trkpt lat="46.58037" lon="5.26781">
        <ele>218</ele>
        <time>2022-06-30T13:10:13Z</time>
      </trkpt>
      <trkpt lat="46.58079" lon="5.26846">
        <ele>217.8</ele>
        <time>2022-06-30T13:10:21Z</time>
      </trkpt>
      <trkpt lat="46.58084" lon="5.26854">
        <ele>217.8</ele>
        <time>2022-06-30T13:10:22Z</time>
      </trkpt>
      <trkpt lat="46.58125" lon="5.26916">
        <ele>217.6</ele>
        <time>2022-06-30T13:10:30Z</time>
      </trkpt>
      <trkpt lat="46.58134" lon="5.26931">
        <ele>217.6</ele>
        <time>2022-06-30T13:10:32Z</time>
      </trkpt>
      <trkpt lat="46.58173" lon="5.26991">
        <ele>217.6</ele>
        <time>2022-06-30T13:10:40Z</time>
      </trkpt>
      <trkpt lat="46.58178" lon="5.26999">
        <ele>217.6</ele>
        <time>2022-06-30T13:10:41Z</time>
      </trkpt>
      <trkpt lat="46.58216" lon="5.27057">
        <ele>217.8</ele>
        <time>2022-06-30T13:10:49Z</time>
      </trkpt>
      <trkpt lat="46.58229" lon="5.27076">
        <ele>217.8</ele>
        <time>2022-06-30T13:10:52Z</time>
      </trkpt>
      <trkpt lat="46.58241" lon="5.27098">
        <ele>218</ele>
        <time>2022-06-30T13:10:56Z</time>
      </trkpt>
      <trkpt lat="46.58242" lon="5.27101">
        <ele>217.8</ele>
        <time>2022-06-30T13:10:57Z</time>
      </trkpt>
      <trkpt lat="46.58245" lon="5.2711">
        <ele>217.6</ele>
        <time>2022-06-30T13:11:01Z</time>
      </trkpt>
      <trkpt lat="46.58246" lon="5.27116">
        <ele>217.4</ele>
        <time>2022-06-30T13:11:03Z</time>
      </trkpt>
      <trkpt lat="46.58251" lon="5.27119">
        <ele>217.4</ele>
        <time>2022-06-30T13:11:05Z</time>
      </trkpt>
      <trkpt lat="46.58259" lon="5.27124">
        <ele>217.2</ele>
        <time>2022-06-30T13:11:07Z</time>
      </trkpt>
      <trkpt lat="46.58264" lon="5.27129">
        <ele>217.2</ele>
        <time>2022-06-30T13:11:08Z</time>
      </trkpt>
      <trkpt lat="46.58267" lon="5.27134">
        <ele>217.2</ele>
        <time>2022-06-30T13:11:09Z</time>
      </trkpt>
      <trkpt lat="46.58285" lon="5.27159">
        <ele>217.2</ele>
        <time>2022-06-30T13:11:13Z</time>
      </trkpt>
      <trkpt lat="46.5829" lon="5.27166">
        <ele>217.2</ele>
        <time>2022-06-30T13:11:14Z</time>
      </trkpt>
      <trkpt lat="46.58311" lon="5.27193">
        <ele>217.4</ele>
        <time>2022-06-30T13:11:18Z</time>
      </trkpt>
      <trkpt lat="46.58361" lon="5.27246">
        <ele>217.4</ele>
        <time>2022-06-30T13:11:26Z</time>
      </trkpt>
      <trkpt lat="46.58407" lon="5.2729">
        <ele>217.6</ele>
        <time>2022-06-30T13:11:33Z</time>
      </trkpt>
      <trkpt lat="46.58426" lon="5.2731">
        <ele>217.6</ele>
        <time>2022-06-30T13:11:36Z</time>
      </trkpt>
      <trkpt lat="46.58464" lon="5.27365">
        <ele>217.4</ele>
        <time>2022-06-30T13:11:43Z</time>
      </trkpt>
      <trkpt lat="46.58497" lon="5.27426">
        <ele>217.4</ele>
        <time>2022-06-30T13:11:50Z</time>
      </trkpt>
      <trkpt lat="46.58527" lon="5.27492">
        <ele>217.2</ele>
        <time>2022-06-30T13:11:57Z</time>
      </trkpt>
      <trkpt lat="46.58535" lon="5.27511">
        <ele>217.2</ele>
        <time>2022-06-30T13:11:59Z</time>
      </trkpt>
      <trkpt lat="46.58538" lon="5.2752">
        <ele>217.2</ele>
        <time>2022-06-30T13:12:00Z</time>
      </trkpt>
      <trkpt lat="46.58542" lon="5.27542">
        <ele>217.2</ele>
        <time>2022-06-30T13:12:02Z</time>
      </trkpt>
      <trkpt lat="46.58543" lon="5.27553">
        <ele>217.2</ele>
        <time>2022-06-30T13:12:03Z</time>
      </trkpt>
      <trkpt lat="46.58542" lon="5.27564">
        <ele>217.2</ele>
        <time>2022-06-30T13:12:04Z</time>
      </trkpt>
      <trkpt lat="46.58536" lon="5.27608">
        <ele>217</ele>
        <time>2022-06-30T13:12:08Z</time>
      </trkpt>
      <trkpt lat="46.58523" lon="5.27686">
        <ele>217</ele>
        <time>2022-06-30T13:12:15Z</time>
      </trkpt>
      <trkpt lat="46.58511" lon="5.27744">
        <ele>216.8</ele>
        <time>2022-06-30T13:12:20Z</time>
      </trkpt>
      <trkpt lat="46.58508" lon="5.27756">
        <ele>216.6</ele>
        <time>2022-06-30T13:12:21Z</time>
      </trkpt>
      <trkpt lat="46.58498" lon="5.27796">
        <ele>216.2</ele>
        <time>2022-06-30T13:12:24Z</time>
      </trkpt>
      <trkpt lat="46.58488" lon="5.2784">
        <ele>215.2</ele>
        <time>2022-06-30T13:12:27Z</time>
      </trkpt>
      <trkpt lat="46.58478" lon="5.27886">
        <ele>214</ele>
        <time>2022-06-30T13:12:30Z</time>
      </trkpt>
      <trkpt lat="46.58466" lon="5.27933">
        <ele>212.4</ele>
        <time>2022-06-30T13:12:33Z</time>
      </trkpt>
      <trkpt lat="46.58458" lon="5.27966">
        <ele>211</ele>
        <time>2022-06-30T13:12:35Z</time>
      </trkpt>
      <trkpt lat="46.58454" lon="5.27983">
        <ele>210.4</ele>
        <time>2022-06-30T13:12:36Z</time>
      </trkpt>
      <trkpt lat="46.58452" lon="5.28">
        <ele>209.6</ele>
        <time>2022-06-30T13:12:37Z</time>
      </trkpt>
      <trkpt lat="46.58451" lon="5.28034">
        <ele>208.4</ele>
        <time>2022-06-30T13:12:39Z</time>
      </trkpt>
      <trkpt lat="46.58457" lon="5.28066">
        <ele>207.4</ele>
        <time>2022-06-30T13:12:41Z</time>
      </trkpt>
      <trkpt lat="46.58463" lon="5.2808">
        <ele>206.8</ele>
        <time>2022-06-30T13:12:42Z</time>
      </trkpt>
      <trkpt lat="46.58476" lon="5.28106">
        <ele>205.6</ele>
        <time>2022-06-30T13:12:44Z</time>
      </trkpt>
      <trkpt lat="46.5849" lon="5.2813">
        <ele>205</ele>
        <time>2022-06-30T13:12:46Z</time>
      </trkpt>
      <trkpt lat="46.58504" lon="5.28153">
        <ele>204.6</ele>
        <time>2022-06-30T13:12:48Z</time>
      </trkpt>
      <trkpt lat="46.58525" lon="5.28187">
        <ele>204</ele>
        <time>2022-06-30T13:12:51Z</time>
      </trkpt>
      <trkpt lat="46.58538" lon="5.28207">
        <ele>203.6</ele>
        <time>2022-06-30T13:12:53Z</time>
      </trkpt>
      <trkpt lat="46.58556" lon="5.28237">
        <ele>203.2</ele>
        <time>2022-06-30T13:12:56Z</time>
      </trkpt>
      <trkpt lat="46.58595" lon="5.28304">
        <ele>203.4</ele>
        <time>2022-06-30T13:13:03Z</time>
      </trkpt>
      <trkpt lat="46.586" lon="5.28313">
        <ele>203.6</ele>
        <time>2022-06-30T13:13:04Z</time>
      </trkpt>
      <trkpt lat="46.58637" lon="5.28375">
        <ele>204.6</ele>
        <time>2022-06-30T13:13:11Z</time>
      </trkpt>
      <trkpt lat="46.58647" lon="5.28392">
        <ele>204.8</ele>
        <time>2022-06-30T13:13:13Z</time>
      </trkpt>
      <trkpt lat="46.58652" lon="5.284">
        <ele>204.8</ele>
        <time>2022-06-30T13:13:14Z</time>
      </trkpt>
      <trkpt lat="46.58685" lon="5.28455">
        <ele>205.8</ele>
        <time>2022-06-30T13:13:21Z</time>
      </trkpt>
      <trkpt lat="46.58689" lon="5.28462">
        <ele>206.2</ele>
        <time>2022-06-30T13:13:22Z</time>
      </trkpt>
      <trkpt lat="46.58709" lon="5.28497">
        <ele>207.2</ele>
        <time>2022-06-30T13:13:27Z</time>
      </trkpt>
      <trkpt lat="46.58723" lon="5.28522">
        <ele>208.2</ele>
        <time>2022-06-30T13:13:31Z</time>
      </trkpt>
      <trkpt lat="46.58737" lon="5.28546">
        <ele>209.2</ele>
        <time>2022-06-30T13:13:35Z</time>
      </trkpt>
      <trkpt lat="46.58741" lon="5.28552">
        <ele>209.4</ele>
        <time>2022-06-30T13:13:36Z</time>
      </trkpt>
      <trkpt lat="46.58752" lon="5.28568">
        <ele>210.4</ele>
        <time>2022-06-30T13:13:39Z</time>
      </trkpt>
      <trkpt lat="46.58766" lon="5.2859">
        <ele>211.6</ele>
        <time>2022-06-30T13:13:43Z</time>
      </trkpt>
      <trkpt lat="46.5877" lon="5.28595">
        <ele>211.8</ele>
        <time>2022-06-30T13:13:44Z</time>
      </trkpt>
      <trkpt lat="46.58782" lon="5.28615">
        <ele>212.6</ele>
        <time>2022-06-30T13:13:48Z</time>
      </trkpt>
      <trkpt lat="46.58795" lon="5.28636">
        <ele>213.8</ele>
        <time>2022-06-30T13:13:52Z</time>
      </trkpt>
      <trkpt lat="46.58802" lon="5.28648">
        <ele>214</ele>
        <time>2022-06-30T13:13:54Z</time>
      </trkpt>
      <trkpt lat="46.58815" lon="5.28664">
        <ele>214.6</ele>
        <time>2022-06-30T13:13:57Z</time>
      </trkpt>
      <trkpt lat="46.58824" lon="5.28673">
        <ele>215</ele>
        <time>2022-06-30T13:13:59Z</time>
      </trkpt>
      <trkpt lat="46.5884" lon="5.28683">
        <ele>215.6</ele>
        <time>2022-06-30T13:14:02Z</time>
      </trkpt>
      <trkpt lat="46.58874" lon="5.28701">
        <ele>216</ele>
        <time>2022-06-30T13:14:08Z</time>
      </trkpt>
      <trkpt lat="46.5888" lon="5.28704">
        <ele>216</ele>
        <time>2022-06-30T13:14:09Z</time>
      </trkpt>
      <trkpt lat="46.58918" lon="5.28728">
        <ele>216</ele>
        <time>2022-06-30T13:14:15Z</time>
      </trkpt>
      <trkpt lat="46.58924" lon="5.28735">
        <ele>216</ele>
        <time>2022-06-30T13:14:16Z</time>
      </trkpt>
      <trkpt lat="46.58938" lon="5.28759">
        <ele>215.8</ele>
        <time>2022-06-30T13:14:19Z</time>
      </trkpt>
      <trkpt lat="46.58961" lon="5.288">
        <ele>215.2</ele>
        <time>2022-06-30T13:14:24Z</time>
      </trkpt>
      <trkpt lat="46.58967" lon="5.28807">
        <ele>215</ele>
        <time>2022-06-30T13:14:25Z</time>
      </trkpt>
      <trkpt lat="46.58973" lon="5.28812">
        <ele>215</ele>
        <time>2022-06-30T13:14:26Z</time>
      </trkpt>
      <trkpt lat="46.58987" lon="5.2882">
        <ele>215</ele>
        <time>2022-06-30T13:14:28Z</time>
      </trkpt>
      <trkpt lat="46.59044" lon="5.28839">
        <ele>214.6</ele>
        <time>2022-06-30T13:14:36Z</time>
      </trkpt>
      <trkpt lat="46.59101" lon="5.28856">
        <ele>214.8</ele>
        <time>2022-06-30T13:14:44Z</time>
      </trkpt>
      <trkpt lat="46.59154" lon="5.28881">
        <ele>215</ele>
        <time>2022-06-30T13:14:51Z</time>
      </trkpt>
      <trkpt lat="46.59208" lon="5.28913">
        <ele>214.2</ele>
        <time>2022-06-30T13:14:57Z</time>
      </trkpt>
      <trkpt lat="46.59217" lon="5.28918">
        <ele>213.8</ele>
        <time>2022-06-30T13:14:58Z</time>
      </trkpt>
      <trkpt lat="46.59235" lon="5.28929">
        <ele>212.6</ele>
        <time>2022-06-30T13:15:00Z</time>
      </trkpt>
      <trkpt lat="46.59269" lon="5.28949">
        <ele>211.8</ele>
        <time>2022-06-30T13:15:04Z</time>
      </trkpt>
      <trkpt lat="46.59277" lon="5.28954">
        <ele>211.4</ele>
        <time>2022-06-30T13:15:05Z</time>
      </trkpt>
      <trkpt lat="46.59312" lon="5.28975">
        <ele>211</ele>
        <time>2022-06-30T13:15:10Z</time>
      </trkpt>
      <trkpt lat="46.59355" lon="5.28999">
        <ele>212.4</ele>
        <time>2022-06-30T13:15:17Z</time>
      </trkpt>
      <trkpt lat="46.59361" lon="5.29003">
        <ele>212.4</ele>
        <time>2022-06-30T13:15:18Z</time>
      </trkpt>
      <trkpt lat="46.59383" lon="5.29017">
        <ele>213.6</ele>
        <time>2022-06-30T13:15:22Z</time>
      </trkpt>
      <trkpt lat="46.594" lon="5.29027">
        <ele>214.2</ele>
        <time>2022-06-30T13:15:25Z</time>
      </trkpt>
      <trkpt lat="46.59418" lon="5.29039">
        <ele>214.6</ele>
        <time>2022-06-30T13:15:28Z</time>
      </trkpt>
      <trkpt lat="46.59442" lon="5.2906">
        <ele>215</ele>
        <time>2022-06-30T13:15:32Z</time>
      </trkpt>
      <trkpt lat="46.59491" lon="5.29114">
        <ele>214.6</ele>
        <time>2022-06-30T13:15:40Z</time>
      </trkpt>
      <trkpt lat="46.59534" lon="5.29163">
        <ele>214</ele>
        <time>2022-06-30T13:15:47Z</time>
      </trkpt>
      <trkpt lat="46.59546" lon="5.29176">
        <ele>214.2</ele>
        <time>2022-06-30T13:15:49Z</time>
      </trkpt>
      <trkpt lat="46.59591" lon="5.29218">
        <ele>214.2</ele>
        <time>2022-06-30T13:15:56Z</time>
      </trkpt>
      <trkpt lat="46.59629" lon="5.29231">
        <ele>213.8</ele>
        <time>2022-06-30T13:16:01Z</time>
      </trkpt>
      <trkpt lat="46.59686" lon="5.29242">
        <ele>213.6</ele>
        <time>2022-06-30T13:16:08Z</time>
      </trkpt>
      <trkpt lat="46.59703" lon="5.29245">
        <ele>213.2</ele>
        <time>2022-06-30T13:16:10Z</time>
      </trkpt>
      <trkpt lat="46.59752" lon="5.2926">
        <ele>212.6</ele>
        <time>2022-06-30T13:16:16Z</time>
      </trkpt>
      <trkpt lat="46.5976" lon="5.29265">
        <ele>212.4</ele>
        <time>2022-06-30T13:16:17Z</time>
      </trkpt>
      <trkpt lat="46.59787" lon="5.29288">
        <ele>212.4</ele>
        <time>2022-06-30T13:16:21Z</time>
      </trkpt>
      <trkpt lat="46.59822" lon="5.29321">
        <ele>211.6</ele>
        <time>2022-06-30T13:16:26Z</time>
      </trkpt>
      <trkpt lat="46.59829" lon="5.29331">
        <ele>211.4</ele>
        <time>2022-06-30T13:16:27Z</time>
      </trkpt>
      <trkpt lat="46.59843" lon="5.29358">
        <ele>211</ele>
        <time>2022-06-30T13:16:29Z</time>
      </trkpt>
      <trkpt lat="46.59844" lon="5.29388">
        <ele>210.6</ele>
        <time>2022-06-30T13:16:31Z</time>
      </trkpt>
      <trkpt lat="46.59845" lon="5.29403">
        <ele>210.4</ele>
        <time>2022-06-30T13:16:32Z</time>
      </trkpt>
      <trkpt lat="46.59846" lon="5.29447">
        <ele>209</ele>
        <time>2022-06-30T13:16:35Z</time>
      </trkpt>
      <trkpt lat="46.5985" lon="5.29521">
        <ele>207.8</ele>
        <time>2022-06-30T13:16:40Z</time>
      </trkpt>
      <trkpt lat="46.59856" lon="5.29594">
        <ele>206.8</ele>
        <time>2022-06-30T13:16:45Z</time>
      </trkpt>
      <trkpt lat="46.59858" lon="5.29624">
        <ele>206.4</ele>
        <time>2022-06-30T13:16:47Z</time>
      </trkpt>
      <trkpt lat="46.59857" lon="5.29639">
        <ele>206.4</ele>
        <time>2022-06-30T13:16:48Z</time>
      </trkpt>
      <trkpt lat="46.59854" lon="5.2967">
        <ele>205.6</ele>
        <time>2022-06-30T13:16:50Z</time>
      </trkpt>
      <trkpt lat="46.59851" lon="5.29686">
        <ele>204.8</ele>
        <time>2022-06-30T13:16:51Z</time>
      </trkpt>
      <trkpt lat="46.59848" lon="5.29702">
        <ele>204.4</ele>
        <time>2022-06-30T13:16:52Z</time>
      </trkpt>
      <trkpt lat="46.59837" lon="5.29748">
        <ele>203.2</ele>
        <time>2022-06-30T13:16:55Z</time>
      </trkpt>
      <trkpt lat="46.59833" lon="5.29763">
        <ele>202.2</ele>
        <time>2022-06-30T13:16:56Z</time>
      </trkpt>
      <trkpt lat="46.59829" lon="5.29778">
        <ele>201.6</ele>
        <time>2022-06-30T13:16:57Z</time>
      </trkpt>
      <trkpt lat="46.59821" lon="5.29807">
        <ele>200.6</ele>
        <time>2022-06-30T13:16:59Z</time>
      </trkpt>
      <trkpt lat="46.59809" lon="5.29848">
        <ele>199.4</ele>
        <time>2022-06-30T13:17:02Z</time>
      </trkpt>
      <trkpt lat="46.59795" lon="5.29914">
        <ele>198.6</ele>
        <time>2022-06-30T13:17:07Z</time>
      </trkpt>
      <trkpt lat="46.59787" lon="5.29988">
        <ele>199</ele>
        <time>2022-06-30T13:17:13Z</time>
      </trkpt>
      <trkpt lat="46.5978" lon="5.30071">
        <ele>199</ele>
        <time>2022-06-30T13:17:19Z</time>
      </trkpt>
      <trkpt lat="46.59779" lon="5.30085">
        <ele>199</ele>
        <time>2022-06-30T13:17:20Z</time>
      </trkpt>
      <trkpt lat="46.59776" lon="5.30113">
        <ele>198.6</ele>
        <time>2022-06-30T13:17:22Z</time>
      </trkpt>
      <trkpt lat="46.59766" lon="5.30165">
        <ele>198</ele>
        <time>2022-06-30T13:17:26Z</time>
      </trkpt>
      <trkpt lat="46.59751" lon="5.30226">
        <ele>197.6</ele>
        <time>2022-06-30T13:17:31Z</time>
      </trkpt>
      <trkpt lat="46.59748" lon="5.30251">
        <ele>197.4</ele>
        <time>2022-06-30T13:17:33Z</time>
      </trkpt>
      <trkpt lat="46.59747" lon="5.30263">
        <ele>197.4</ele>
        <time>2022-06-30T13:17:34Z</time>
      </trkpt>
      <trkpt lat="46.59748" lon="5.30288">
        <ele>197.4</ele>
        <time>2022-06-30T13:17:36Z</time>
      </trkpt>
      <trkpt lat="46.5975" lon="5.303">
        <ele>197.4</ele>
        <time>2022-06-30T13:17:37Z</time>
      </trkpt>
      <trkpt lat="46.59762" lon="5.30344">
        <ele>197.4</ele>
        <time>2022-06-30T13:17:41Z</time>
      </trkpt>
      <trkpt lat="46.59767" lon="5.30353">
        <ele>197.4</ele>
        <time>2022-06-30T13:17:42Z</time>
      </trkpt>
      <trkpt lat="46.59797" lon="5.30406">
        <ele>197.4</ele>
        <time>2022-06-30T13:17:48Z</time>
      </trkpt>
      <trkpt lat="46.59805" lon="5.30424">
        <ele>197.8</ele>
        <time>2022-06-30T13:17:50Z</time>
      </trkpt>
      <trkpt lat="46.59814" lon="5.30454">
        <ele>198</ele>
        <time>2022-06-30T13:17:53Z</time>
      </trkpt>
      <trkpt lat="46.59827" lon="5.30498">
        <ele>198.6</ele>
        <time>2022-06-30T13:17:58Z</time>
      </trkpt>
      <trkpt lat="46.5983" lon="5.30506">
        <ele>198.8</ele>
        <time>2022-06-30T13:17:59Z</time>
      </trkpt>
      <trkpt lat="46.59843" lon="5.30543">
        <ele>199.6</ele>
        <time>2022-06-30T13:18:04Z</time>
      </trkpt>
      <trkpt lat="46.59847" lon="5.30557">
        <ele>200</ele>
        <time>2022-06-30T13:18:06Z</time>
      </trkpt>
      <trkpt lat="46.59851" lon="5.30572">
        <ele>200.4</ele>
        <time>2022-06-30T13:18:08Z</time>
      </trkpt>
      <trkpt lat="46.59851" lon="5.30586">
        <ele>200.6</ele>
        <time>2022-06-30T13:18:10Z</time>
      </trkpt>
      <trkpt lat="46.59851" lon="5.30593">
        <ele>200.8</ele>
        <time>2022-06-30T13:18:11Z</time>
      </trkpt>
      <trkpt lat="46.59849" lon="5.30608">
        <ele>201.2</ele>
        <time>2022-06-30T13:18:13Z</time>
      </trkpt>
      <trkpt lat="46.59843" lon="5.30623">
        <ele>201.6</ele>
        <time>2022-06-30T13:18:15Z</time>
      </trkpt>
      <trkpt lat="46.59837" lon="5.30636">
        <ele>201.8</ele>
        <time>2022-06-30T13:18:17Z</time>
      </trkpt>
      <trkpt lat="46.59835" lon="5.30642">
        <ele>202</ele>
        <time>2022-06-30T13:18:18Z</time>
      </trkpt>
      <trkpt lat="46.59832" lon="5.30649">
        <ele>202</ele>
        <time>2022-06-30T13:18:19Z</time>
      </trkpt>
      <trkpt lat="46.59828" lon="5.30664">
        <ele>202.6</ele>
        <time>2022-06-30T13:18:21Z</time>
      </trkpt>
      <trkpt lat="46.59824" lon="5.30686">
        <ele>203.2</ele>
        <time>2022-06-30T13:18:24Z</time>
      </trkpt>
      <trkpt lat="46.59819" lon="5.30717">
        <ele>204</ele>
        <time>2022-06-30T13:18:28Z</time>
      </trkpt>
      <trkpt lat="46.59817" lon="5.30724">
        <ele>204.2</ele>
        <time>2022-06-30T13:18:29Z</time>
      </trkpt>
      <trkpt lat="46.59811" lon="5.30768">
        <ele>204.8</ele>
        <time>2022-06-30T13:18:35Z</time>
      </trkpt>
      <trkpt lat="46.59809" lon="5.30779">
        <ele>205.2</ele>
        <time>2022-06-30T13:18:37Z</time>
      </trkpt>
      <trkpt lat="46.59809" lon="5.3079">
        <ele>205.6</ele>
        <time>2022-06-30T13:18:39Z</time>
      </trkpt>
      <trkpt lat="46.5981" lon="5.30796">
        <ele>205.8</ele>
        <time>2022-06-30T13:18:40Z</time>
      </trkpt>
      <trkpt lat="46.59814" lon="5.308">
        <ele>206</ele>
        <time>2022-06-30T13:18:41Z</time>
      </trkpt>
      <trkpt lat="46.59824" lon="5.30806">
        <ele>206</ele>
        <time>2022-06-30T13:18:43Z</time>
      </trkpt>
      <trkpt lat="46.59835" lon="5.3081">
        <ele>206.2</ele>
        <time>2022-06-30T13:18:45Z</time>
      </trkpt>
      <trkpt lat="46.59854" lon="5.30816">
        <ele>206.4</ele>
        <time>2022-06-30T13:18:48Z</time>
      </trkpt>
      <trkpt lat="46.59873" lon="5.30822">
        <ele>206.8</ele>
        <time>2022-06-30T13:18:51Z</time>
      </trkpt>
      <trkpt lat="46.59885" lon="5.30825">
        <ele>207.4</ele>
        <time>2022-06-30T13:18:53Z</time>
      </trkpt>
      <trkpt lat="46.59939" lon="5.30835">
        <ele>208.4</ele>
        <time>2022-06-30T13:19:02Z</time>
      </trkpt>
      <trkpt lat="46.59957" lon="5.30839">
        <ele>208.8</ele>
        <time>2022-06-30T13:19:05Z</time>
      </trkpt>
      <trkpt lat="46.59968" lon="5.30846">
        <ele>209.2</ele>
        <time>2022-06-30T13:19:07Z</time>
      </trkpt>
      <trkpt lat="46.59973" lon="5.30851">
        <ele>209.4</ele>
        <time>2022-06-30T13:19:08Z</time>
      </trkpt>
      <trkpt lat="46.59977" lon="5.30856">
        <ele>209.6</ele>
        <time>2022-06-30T13:19:09Z</time>
      </trkpt>
      <trkpt lat="46.60008" lon="5.30891">
        <ele>210.6</ele>
        <time>2022-06-30T13:19:16Z</time>
      </trkpt>
      <trkpt lat="46.60032" lon="5.3092">
        <ele>211.6</ele>
        <time>2022-06-30T13:19:22Z</time>
      </trkpt>
      <trkpt lat="46.60054" lon="5.30945">
        <ele>212.8</ele>
        <time>2022-06-30T13:19:27Z</time>
      </trkpt>
      <trkpt lat="46.60058" lon="5.30951">
        <ele>212.8</ele>
        <time>2022-06-30T13:19:28Z</time>
      </trkpt>
      <trkpt lat="46.60091" lon="5.30988">
        <ele>213.6</ele>
        <time>2022-06-30T13:19:36Z</time>
      </trkpt>
      <trkpt lat="46.60094" lon="5.30992">
        <ele>213.8</ele>
        <time>2022-06-30T13:19:37Z</time>
      </trkpt>
      <trkpt lat="46.60098" lon="5.30996">
        <ele>214</ele>
        <time>2022-06-30T13:19:38Z</time>
      </trkpt>
      <trkpt lat="46.60103" lon="5.31006">
        <ele>214.2</ele>
        <time>2022-06-30T13:19:40Z</time>
      </trkpt>
      <trkpt lat="46.60103" lon="5.31012">
        <ele>214.2</ele>
        <time>2022-06-30T13:19:41Z</time>
      </trkpt>
      <trkpt lat="46.60091" lon="5.31037">
        <ele>214.2</ele>
        <time>2022-06-30T13:19:45Z</time>
      </trkpt>
      <trkpt lat="46.60079" lon="5.3106">
        <ele>214.4</ele>
        <time>2022-06-30T13:19:48Z</time>
      </trkpt>
      <trkpt lat="46.60073" lon="5.31078">
        <ele>214.4</ele>
        <time>2022-06-30T13:19:50Z</time>
      </trkpt>
      <trkpt lat="46.60067" lon="5.31121">
        <ele>214.4</ele>
        <time>2022-06-30T13:19:54Z</time>
      </trkpt>
      <trkpt lat="46.60063" lon="5.31188">
        <ele>214.8</ele>
        <time>2022-06-30T13:20:00Z</time>
      </trkpt>
      <trkpt lat="46.60061" lon="5.31222">
        <ele>215</ele>
        <time>2022-06-30T13:20:03Z</time>
      </trkpt>
      <trkpt lat="46.60056" lon="5.31303">
        <ele>215.2</ele>
        <time>2022-06-30T13:20:10Z</time>
      </trkpt>
      <trkpt lat="46.60052" lon="5.31387">
        <ele>214.8</ele>
        <time>2022-06-30T13:20:17Z</time>
      </trkpt>
      <trkpt lat="46.60052" lon="5.31459">
        <ele>214</ele>
        <time>2022-06-30T13:20:23Z</time>
      </trkpt>
      <trkpt lat="46.60057" lon="5.31483">
        <ele>213.8</ele>
        <time>2022-06-30T13:20:25Z</time>
      </trkpt>
      <trkpt lat="46.60068" lon="5.31517">
        <ele>213.6</ele>
        <time>2022-06-30T13:20:28Z</time>
      </trkpt>
      <trkpt lat="46.60097" lon="5.31577">
        <ele>213.2</ele>
        <time>2022-06-30T13:20:34Z</time>
      </trkpt>
      <trkpt lat="46.60132" lon="5.31646">
        <ele>212.8</ele>
        <time>2022-06-30T13:20:41Z</time>
      </trkpt>
      <trkpt lat="46.60141" lon="5.31665">
        <ele>212.8</ele>
        <time>2022-06-30T13:20:43Z</time>
      </trkpt>
      <trkpt lat="46.60168" lon="5.31717">
        <ele>213</ele>
        <time>2022-06-30T13:20:49Z</time>
      </trkpt>
      <trkpt lat="46.60195" lon="5.31771">
        <ele>213.6</ele>
        <time>2022-06-30T13:20:56Z</time>
      </trkpt>
      <trkpt lat="46.60223" lon="5.31826">
        <ele>214.8</ele>
        <time>2022-06-30T13:21:03Z</time>
      </trkpt>
      <trkpt lat="46.60227" lon="5.31834">
        <ele>215</ele>
        <time>2022-06-30T13:21:04Z</time>
      </trkpt>
      <trkpt lat="46.60243" lon="5.31865">
        <ele>215.8</ele>
        <time>2022-06-30T13:21:08Z</time>
      </trkpt>
      <trkpt lat="46.6027" lon="5.31918">
        <ele>216.8</ele>
        <time>2022-06-30T13:21:15Z</time>
      </trkpt>
      <trkpt lat="46.60273" lon="5.31926">
        <ele>216.8</ele>
        <time>2022-06-30T13:21:16Z</time>
      </trkpt>
      <trkpt lat="46.60303" lon="5.31986">
        <ele>217</ele>
        <time>2022-06-30T13:21:24Z</time>
      </trkpt>
      <trkpt lat="46.60337" lon="5.32055">
        <ele>217.8</ele>
        <time>2022-06-30T13:21:33Z</time>
      </trkpt>
      <trkpt lat="46.60345" lon="5.32071">
        <ele>218</ele>
        <time>2022-06-30T13:21:35Z</time>
      </trkpt>
      <trkpt lat="46.6038" lon="5.32139">
        <ele>218</ele>
        <time>2022-06-30T13:21:43Z</time>
      </trkpt>
      <trkpt lat="46.60416" lon="5.32209">
        <ele>217.6</ele>
        <time>2022-06-30T13:21:51Z</time>
      </trkpt>
      <trkpt lat="46.60449" lon="5.32281">
        <ele>217.8</ele>
        <time>2022-06-30T13:21:59Z</time>
      </trkpt>
      <trkpt lat="46.6046" lon="5.32309">
        <ele>218</ele>
        <time>2022-06-30T13:22:02Z</time>
      </trkpt>
      <trkpt lat="46.60486" lon="5.32384">
        <ele>218.2</ele>
        <time>2022-06-30T13:22:10Z</time>
      </trkpt>
      <trkpt lat="46.60511" lon="5.3246">
        <ele>218.8</ele>
        <time>2022-06-30T13:22:18Z</time>
      </trkpt>
      <trkpt lat="46.6052" lon="5.32489">
        <ele>219</ele>
        <time>2022-06-30T13:22:21Z</time>
      </trkpt>
      <trkpt lat="46.60545" lon="5.32567">
        <ele>218.8</ele>
        <time>2022-06-30T13:22:29Z</time>
      </trkpt>
      <trkpt lat="46.60548" lon="5.32578">
        <ele>218.8</ele>
        <time>2022-06-30T13:22:30Z</time>
      </trkpt>
      <trkpt lat="46.60552" lon="5.32599">
        <ele>218.8</ele>
        <time>2022-06-30T13:22:32Z</time>
      </trkpt>
      <trkpt lat="46.60554" lon="5.32633">
        <ele>218.6</ele>
        <time>2022-06-30T13:22:35Z</time>
      </trkpt>
      <trkpt lat="46.60555" lon="5.32713">
        <ele>218.6</ele>
        <time>2022-06-30T13:22:42Z</time>
      </trkpt>
      <trkpt lat="46.60554" lon="5.32788">
        <ele>217.8</ele>
        <time>2022-06-30T13:22:48Z</time>
      </trkpt>
      <trkpt lat="46.60553" lon="5.32867">
        <ele>216.6</ele>
        <time>2022-06-30T13:22:54Z</time>
      </trkpt>
      <trkpt lat="46.60553" lon="5.32943">
        <ele>215.8</ele>
        <time>2022-06-30T13:23:00Z</time>
      </trkpt>
      <trkpt lat="46.60553" lon="5.32966">
        <ele>215.6</ele>
        <time>2022-06-30T13:23:02Z</time>
      </trkpt>
      <trkpt lat="46.60553" lon="5.33022">
        <ele>215.6</ele>
        <time>2022-06-30T13:23:07Z</time>
      </trkpt>
      <trkpt lat="46.60553" lon="5.33104">
        <ele>216.2</ele>
        <time>2022-06-30T13:23:15Z</time>
      </trkpt>
      <trkpt lat="46.60553" lon="5.33134">
        <ele>216.6</ele>
        <time>2022-06-30T13:23:18Z</time>
      </trkpt>
      <trkpt lat="46.60548" lon="5.33175">
        <ele>217.6</ele>
        <time>2022-06-30T13:23:22Z</time>
      </trkpt>
      <trkpt lat="46.60546" lon="5.33185">
        <ele>217.8</ele>
        <time>2022-06-30T13:23:23Z</time>
      </trkpt>
      <trkpt lat="46.6053" lon="5.3325">
        <ele>218.6</ele>
        <time>2022-06-30T13:23:29Z</time>
      </trkpt>
      <trkpt lat="46.60513" lon="5.33324">
        <ele>218</ele>
        <time>2022-06-30T13:23:36Z</time>
      </trkpt>
      <trkpt lat="46.60494" lon="5.33403">
        <ele>218.6</ele>
        <time>2022-06-30T13:23:44Z</time>
      </trkpt>
      <trkpt lat="46.60489" lon="5.33422">
        <ele>218.8</ele>
        <time>2022-06-30T13:23:46Z</time>
      </trkpt>
      <trkpt lat="46.60477" lon="5.33471">
        <ele>219</ele>
        <time>2022-06-30T13:23:51Z</time>
      </trkpt>
      <trkpt lat="46.60475" lon="5.33481">
        <ele>219.2</ele>
        <time>2022-06-30T13:23:52Z</time>
      </trkpt>
      <trkpt lat="46.60469" lon="5.33501">
        <ele>219.8</ele>
        <time>2022-06-30T13:23:54Z</time>
      </trkpt>
      <trkpt lat="46.60453" lon="5.33571">
        <ele>220.4</ele>
        <time>2022-06-30T13:24:01Z</time>
      </trkpt>
      <trkpt lat="46.60439" lon="5.33655">
        <ele>220.6</ele>
        <time>2022-06-30T13:24:09Z</time>
      </trkpt>
      <trkpt lat="46.60431" lon="5.33733">
        <ele>220</ele>
        <time>2022-06-30T13:24:16Z</time>
      </trkpt>
      <trkpt lat="46.6043" lon="5.33744">
        <ele>220</ele>
        <time>2022-06-30T13:24:17Z</time>
      </trkpt>
      <trkpt lat="46.60424" lon="5.33811">
        <ele>219.8</ele>
        <time>2022-06-30T13:24:23Z</time>
      </trkpt>
      <trkpt lat="46.60419" lon="5.3389">
        <ele>219.8</ele>
        <time>2022-06-30T13:24:30Z</time>
      </trkpt>
      <trkpt lat="46.6042" lon="5.33901">
        <ele>219.8</ele>
        <time>2022-06-30T13:24:31Z</time>
      </trkpt>
      <trkpt lat="46.60429" lon="5.3398">
        <ele>220.2</ele>
        <time>2022-06-30T13:24:38Z</time>
      </trkpt>
      <trkpt lat="46.60444" lon="5.34056">
        <ele>220.2</ele>
        <time>2022-06-30T13:24:45Z</time>
      </trkpt>
      <trkpt lat="46.60448" lon="5.34066">
        <ele>220.2</ele>
        <time>2022-06-30T13:24:46Z</time>
      </trkpt>
      <trkpt lat="46.60461" lon="5.34094">
        <ele>220.4</ele>
        <time>2022-06-30T13:24:49Z</time>
      </trkpt>
      <trkpt lat="46.60499" lon="5.34158">
        <ele>220.4</ele>
        <time>2022-06-30T13:24:56Z</time>
      </trkpt>
      <trkpt lat="46.60504" lon="5.34168">
        <ele>220.4</ele>
        <time>2022-06-30T13:24:57Z</time>
      </trkpt>
      <trkpt lat="46.60509" lon="5.34179">
        <ele>220.2</ele>
        <time>2022-06-30T13:24:58Z</time>
      </trkpt>
      <trkpt lat="46.60516" lon="5.34203">
        <ele>220</ele>
        <time>2022-06-30T13:25:00Z</time>
      </trkpt>
      <trkpt lat="46.60519" lon="5.34261">
        <ele>219</ele>
        <time>2022-06-30T13:25:04Z</time>
      </trkpt>
      <trkpt lat="46.60521" lon="5.34309">
        <ele>217.8</ele>
        <time>2022-06-30T13:25:07Z</time>
      </trkpt>
      <trkpt lat="46.60523" lon="5.34343">
        <ele>216.6</ele>
        <time>2022-06-30T13:25:09Z</time>
      </trkpt>
      <trkpt lat="46.60524" lon="5.34361">
        <ele>216.4</ele>
        <time>2022-06-30T13:25:10Z</time>
      </trkpt>
      <trkpt lat="46.60525" lon="5.34397">
        <ele>215.6</ele>
        <time>2022-06-30T13:25:12Z</time>
      </trkpt>
      <trkpt lat="46.60528" lon="5.34453">
        <ele>214.4</ele>
        <time>2022-06-30T13:25:15Z</time>
      </trkpt>
      <trkpt lat="46.60528" lon="5.34471">
        <ele>213.2</ele>
        <time>2022-06-30T13:25:16Z</time>
      </trkpt>
      <trkpt lat="46.6053" lon="5.34508">
        <ele>211.8</ele>
        <time>2022-06-30T13:25:18Z</time>
      </trkpt>
      <trkpt lat="46.60532" lon="5.34544">
        <ele>210.6</ele>
        <time>2022-06-30T13:25:20Z</time>
      </trkpt>
      <trkpt lat="46.60534" lon="5.34595">
        <ele>210</ele>
        <time>2022-06-30T13:25:23Z</time>
      </trkpt>
      <trkpt lat="46.60536" lon="5.34643">
        <ele>209.4</ele>
        <time>2022-06-30T13:25:26Z</time>
      </trkpt>
      <trkpt lat="46.6054" lon="5.34706">
        <ele>208.8</ele>
        <time>2022-06-30T13:25:30Z</time>
      </trkpt>
      <trkpt lat="46.60543" lon="5.34771">
        <ele>208.4</ele>
        <time>2022-06-30T13:25:34Z</time>
      </trkpt>
      <trkpt lat="46.60547" lon="5.34855">
        <ele>207</ele>
        <time>2022-06-30T13:25:39Z</time>
      </trkpt>
      <trkpt lat="46.60549" lon="5.34889">
        <ele>206.6</ele>
        <time>2022-06-30T13:25:41Z</time>
      </trkpt>
      <trkpt lat="46.6055" lon="5.34922">
        <ele>206</ele>
        <time>2022-06-30T13:25:43Z</time>
      </trkpt>
      <trkpt lat="46.60551" lon="5.34939">
        <ele>205.6</ele>
        <time>2022-06-30T13:25:44Z</time>
      </trkpt>
      <trkpt lat="46.60554" lon="5.35">
        <ele>204.6</ele>
        <time>2022-06-30T13:25:48Z</time>
      </trkpt>
      <trkpt lat="46.60555" lon="5.35014">
        <ele>204.6</ele>
        <time>2022-06-30T13:25:49Z</time>
      </trkpt>
      <trkpt lat="46.60559" lon="5.35098">
        <ele>204.8</ele>
        <time>2022-06-30T13:25:55Z</time>
      </trkpt>
      <trkpt lat="46.6056" lon="5.35126">
        <ele>205.8</ele>
        <time>2022-06-30T13:25:57Z</time>
      </trkpt>
      <trkpt lat="46.60556" lon="5.35169">
        <ele>207</ele>
        <time>2022-06-30T13:26:00Z</time>
      </trkpt>
      <trkpt lat="46.60548" lon="5.35196">
        <ele>207.4</ele>
        <time>2022-06-30T13:26:02Z</time>
      </trkpt>
      <trkpt lat="46.60542" lon="5.35208">
        <ele>207.6</ele>
        <time>2022-06-30T13:26:03Z</time>
      </trkpt>
      <trkpt lat="46.60513" lon="5.35256">
        <ele>207.2</ele>
        <time>2022-06-30T13:26:07Z</time>
      </trkpt>
      <trkpt lat="46.60475" lon="5.35317">
        <ele>205.6</ele>
        <time>2022-06-30T13:26:12Z</time>
      </trkpt>
      <trkpt lat="46.6046" lon="5.3534">
        <ele>205.6</ele>
        <time>2022-06-30T13:26:14Z</time>
      </trkpt>
      <trkpt lat="46.60439" lon="5.35372">
        <ele>204.6</ele>
        <time>2022-06-30T13:26:17Z</time>
      </trkpt>
      <trkpt lat="46.60425" lon="5.35392">
        <ele>204.4</ele>
        <time>2022-06-30T13:26:19Z</time>
      </trkpt>
      <trkpt lat="46.60385" lon="5.35451">
        <ele>204</ele>
        <time>2022-06-30T13:26:25Z</time>
      </trkpt>
      <trkpt lat="46.60379" lon="5.3546">
        <ele>203.8</ele>
        <time>2022-06-30T13:26:26Z</time>
      </trkpt>
      <trkpt lat="46.60366" lon="5.35479">
        <ele>203.6</ele>
        <time>2022-06-30T13:26:28Z</time>
      </trkpt>
      <trkpt lat="46.60336" lon="5.35526">
        <ele>203.6</ele>
        <time>2022-06-30T13:26:33Z</time>
      </trkpt>
      <trkpt lat="46.60314" lon="5.35582">
        <ele>203.6</ele>
        <time>2022-06-30T13:26:38Z</time>
      </trkpt>
      <trkpt lat="46.60304" lon="5.35643">
        <ele>203.6</ele>
        <time>2022-06-30T13:26:43Z</time>
      </trkpt>
      <trkpt lat="46.60307" lon="5.35703">
        <ele>204</ele>
        <time>2022-06-30T13:26:48Z</time>
      </trkpt>
      <trkpt lat="46.60317" lon="5.35755">
        <ele>204.6</ele>
        <time>2022-06-30T13:26:53Z</time>
      </trkpt>
      <trkpt lat="46.6032" lon="5.35773">
        <ele>204.8</ele>
        <time>2022-06-30T13:26:55Z</time>
      </trkpt>
      <trkpt lat="46.60318" lon="5.3578">
        <ele>205</ele>
        <time>2022-06-30T13:26:56Z</time>
      </trkpt>
      <trkpt lat="46.60313" lon="5.35789">
        <ele>205.2</ele>
        <time>2022-06-30T13:26:58Z</time>
      </trkpt>
      <trkpt lat="46.60309" lon="5.35791">
        <ele>205.4</ele>
        <time>2022-06-30T13:26:59Z</time>
      </trkpt>
      <trkpt lat="46.603" lon="5.35792">
        <ele>205.8</ele>
        <time>2022-06-30T13:27:01Z</time>
      </trkpt>
      <trkpt lat="46.60289" lon="5.35792">
        <ele>206.4</ele>
        <time>2022-06-30T13:27:04Z</time>
      </trkpt>
      <trkpt lat="46.60278" lon="5.35792">
        <ele>206.8</ele>
        <time>2022-06-30T13:27:06Z</time>
      </trkpt>
      <trkpt lat="46.60259" lon="5.35793">
        <ele>207.4</ele>
        <time>2022-06-30T13:27:10Z</time>
      </trkpt>
      <trkpt lat="46.60249" lon="5.35794">
        <ele>208</ele>
        <time>2022-06-30T13:27:12Z</time>
      </trkpt>
      <trkpt lat="46.6023" lon="5.35798">
        <ele>209.2</ele>
        <time>2022-06-30T13:27:15Z</time>
      </trkpt>
      <trkpt lat="46.6022" lon="5.358">
        <ele>209.4</ele>
        <time>2022-06-30T13:27:17Z</time>
      </trkpt>
      <trkpt lat="46.60197" lon="5.35802">
        <ele>210.4</ele>
        <time>2022-06-30T13:27:21Z</time>
      </trkpt>
      <trkpt lat="46.60187" lon="5.35804">
        <ele>211</ele>
        <time>2022-06-30T13:27:23Z</time>
      </trkpt>
      <trkpt lat="46.60168" lon="5.35806">
        <ele>211.6</ele>
        <time>2022-06-30T13:27:26Z</time>
      </trkpt>
      <trkpt lat="46.60156" lon="5.35808">
        <ele>212</ele>
        <time>2022-06-30T13:27:28Z</time>
      </trkpt>
      <trkpt lat="46.60131" lon="5.35813">
        <ele>212.6</ele>
        <time>2022-06-30T13:27:33Z</time>
      </trkpt>
      <trkpt lat="46.60125" lon="5.35815">
        <ele>212.8</ele>
        <time>2022-06-30T13:27:34Z</time>
      </trkpt>
      <trkpt lat="46.60105" lon="5.35817">
        <ele>213.8</ele>
        <time>2022-06-30T13:27:38Z</time>
      </trkpt>
      <trkpt lat="46.601" lon="5.35816">
        <ele>214</ele>
        <time>2022-06-30T13:27:39Z</time>
      </trkpt>
      <trkpt lat="46.6008" lon="5.35817">
        <ele>215</ele>
        <time>2022-06-30T13:27:43Z</time>
      </trkpt>
      <trkpt lat="46.60061" lon="5.35819">
        <ele>215.6</ele>
        <time>2022-06-30T13:27:47Z</time>
      </trkpt>
      <trkpt lat="46.60047" lon="5.35823">
        <ele>216.2</ele>
        <time>2022-06-30T13:27:50Z</time>
      </trkpt>
      <trkpt lat="46.60033" lon="5.35829">
        <ele>216.6</ele>
        <time>2022-06-30T13:27:53Z</time>
      </trkpt>
      <trkpt lat="46.60028" lon="5.35831">
        <ele>217.4</ele>
        <time>2022-06-30T13:27:54Z</time>
      </trkpt>
      <trkpt lat="46.60023" lon="5.35832">
        <ele>217.4</ele>
        <time>2022-06-30T13:27:55Z</time>
      </trkpt>
      <trkpt lat="46.60013" lon="5.35833">
        <ele>218.2</ele>
        <time>2022-06-30T13:27:57Z</time>
      </trkpt>
      <trkpt lat="46.60003" lon="5.35832">
        <ele>218.4</ele>
        <time>2022-06-30T13:27:59Z</time>
      </trkpt>
      <trkpt lat="46.59993" lon="5.3583">
        <ele>218.8</ele>
        <time>2022-06-30T13:28:01Z</time>
      </trkpt>
      <trkpt lat="46.59978" lon="5.35825">
        <ele>219.4</ele>
        <time>2022-06-30T13:28:04Z</time>
      </trkpt>
      <trkpt lat="46.59946" lon="5.35816">
        <ele>220.6</ele>
        <time>2022-06-30T13:28:10Z</time>
      </trkpt>
      <trkpt lat="46.59924" lon="5.35811">
        <ele>221.6</ele>
        <time>2022-06-30T13:28:14Z</time>
      </trkpt>
      <trkpt lat="46.599" lon="5.35808">
        <ele>222.2</ele>
        <time>2022-06-30T13:28:18Z</time>
      </trkpt>
      <trkpt lat="46.59877" lon="5.35804">
        <ele>222.6</ele>
        <time>2022-06-30T13:28:22Z</time>
      </trkpt>
      <trkpt lat="46.59866" lon="5.358">
        <ele>222.6</ele>
        <time>2022-06-30T13:28:24Z</time>
      </trkpt>
      <trkpt lat="46.59824" lon="5.3577">
        <ele>222.8</ele>
        <time>2022-06-30T13:28:31Z</time>
      </trkpt>
      <trkpt lat="46.59786" lon="5.35743">
        <ele>223.2</ele>
        <time>2022-06-30T13:28:37Z</time>
      </trkpt>
      <trkpt lat="46.59774" lon="5.35732">
        <ele>223.2</ele>
        <time>2022-06-30T13:28:39Z</time>
      </trkpt>
      <trkpt lat="46.59758" lon="5.35711">
        <ele>223.2</ele>
        <time>2022-06-30T13:28:42Z</time>
      </trkpt>
      <trkpt lat="46.59718" lon="5.35652">
        <ele>223</ele>
        <time>2022-06-30T13:28:50Z</time>
      </trkpt>
      <trkpt lat="46.59713" lon="5.35644">
        <ele>223</ele>
        <time>2022-06-30T13:28:51Z</time>
      </trkpt>
      <trkpt lat="46.59707" lon="5.35638">
        <ele>223</ele>
        <time>2022-06-30T13:28:52Z</time>
      </trkpt>
      <trkpt lat="46.59688" lon="5.35622">
        <ele>223</ele>
        <time>2022-06-30T13:28:55Z</time>
      </trkpt>
      <trkpt lat="46.59641" lon="5.3559">
        <ele>223</ele>
        <time>2022-06-30T13:29:02Z</time>
      </trkpt>
      <trkpt lat="46.59635" lon="5.35584">
        <ele>223</ele>
        <time>2022-06-30T13:29:03Z</time>
      </trkpt>
      <trkpt lat="46.5961" lon="5.35545">
        <ele>223</ele>
        <time>2022-06-30T13:29:08Z</time>
      </trkpt>
      <trkpt lat="46.596" lon="5.35532">
        <ele>223.2</ele>
        <time>2022-06-30T13:29:10Z</time>
      </trkpt>
      <trkpt lat="46.59588" lon="5.35523">
        <ele>223.6</ele>
        <time>2022-06-30T13:29:12Z</time>
      </trkpt>
      <trkpt lat="46.59581" lon="5.35521">
        <ele>223.8</ele>
        <time>2022-06-30T13:29:13Z</time>
      </trkpt>
      <trkpt lat="46.5956" lon="5.3552">
        <ele>224</ele>
        <time>2022-06-30T13:29:16Z</time>
      </trkpt>
      <trkpt lat="46.5951" lon="5.35523">
        <ele>223.2</ele>
        <time>2022-06-30T13:29:23Z</time>
      </trkpt>
      <trkpt lat="46.59486" lon="5.35521">
        <ele>222.6</ele>
        <time>2022-06-30T13:29:26Z</time>
      </trkpt>
      <trkpt lat="46.59471" lon="5.35516">
        <ele>222.4</ele>
        <time>2022-06-30T13:29:28Z</time>
      </trkpt>
      <trkpt lat="46.5945" lon="5.35502">
        <ele>222.4</ele>
        <time>2022-06-30T13:29:31Z</time>
      </trkpt>
      <trkpt lat="46.59443" lon="5.35495">
        <ele>222.2</ele>
        <time>2022-06-30T13:29:32Z</time>
      </trkpt>
      <trkpt lat="46.59415" lon="5.35462">
        <ele>221.6</ele>
        <time>2022-06-30T13:29:37Z</time>
      </trkpt>
      <trkpt lat="46.59409" lon="5.35456">
        <ele>221.4</ele>
        <time>2022-06-30T13:29:38Z</time>
      </trkpt>
      <trkpt lat="46.59375" lon="5.35412">
        <ele>221</ele>
        <time>2022-06-30T13:29:44Z</time>
      </trkpt>
      <trkpt lat="46.59351" lon="5.35374">
        <ele>220.4</ele>
        <time>2022-06-30T13:29:48Z</time>
      </trkpt>
      <trkpt lat="46.59338" lon="5.35356">
        <ele>220.2</ele>
        <time>2022-06-30T13:29:50Z</time>
      </trkpt>
      <trkpt lat="46.59293" lon="5.35294">
        <ele>219.8</ele>
        <time>2022-06-30T13:29:57Z</time>
      </trkpt>
      <trkpt lat="46.59286" lon="5.35285">
        <ele>219.8</ele>
        <time>2022-06-30T13:29:58Z</time>
      </trkpt>
      <trkpt lat="46.59238" lon="5.35242">
        <ele>219.6</ele>
        <time>2022-06-30T13:30:04Z</time>
      </trkpt>
      <trkpt lat="46.59229" lon="5.35236">
        <ele>219.4</ele>
        <time>2022-06-30T13:30:05Z</time>
      </trkpt>
      <trkpt lat="46.59201" lon="5.35222">
        <ele>219.2</ele>
        <time>2022-06-30T13:30:08Z</time>
      </trkpt>
      <trkpt lat="46.5917" lon="5.35213">
        <ele>218.2</ele>
        <time>2022-06-30T13:30:11Z</time>
      </trkpt>
      <trkpt lat="46.5914" lon="5.35204">
        <ele>217</ele>
        <time>2022-06-30T13:30:14Z</time>
      </trkpt>
      <trkpt lat="46.59129" lon="5.35201">
        <ele>216.4</ele>
        <time>2022-06-30T13:30:15Z</time>
      </trkpt>
      <trkpt lat="46.59119" lon="5.35196">
        <ele>215.8</ele>
        <time>2022-06-30T13:30:16Z</time>
      </trkpt>
      <trkpt lat="46.591" lon="5.35184">
        <ele>214.8</ele>
        <time>2022-06-30T13:30:18Z</time>
      </trkpt>
      <trkpt lat="46.5909" lon="5.35172">
        <ele>214.2</ele>
        <time>2022-06-30T13:30:19Z</time>
      </trkpt>
      <trkpt lat="46.59085" lon="5.35157">
        <ele>213.8</ele>
        <time>2022-06-30T13:30:20Z</time>
      </trkpt>
      <trkpt lat="46.59082" lon="5.35142">
        <ele>213</ele>
        <time>2022-06-30T13:30:21Z</time>
      </trkpt>
      <trkpt lat="46.59082" lon="5.3513">
        <ele>212.4</ele>
        <time>2022-06-30T13:30:22Z</time>
      </trkpt>
      <trkpt lat="46.59083" lon="5.35114">
        <ele>212</ele>
        <time>2022-06-30T13:30:23Z</time>
      </trkpt>
      <trkpt lat="46.59086" lon="5.35096">
        <ele>211.8</ele>
        <time>2022-06-30T13:30:24Z</time>
      </trkpt>
      <trkpt lat="46.59093" lon="5.35069">
        <ele>211.4</ele>
        <time>2022-06-30T13:30:26Z</time>
      </trkpt>
      <trkpt lat="46.59113" lon="5.34998">
        <ele>211</ele>
        <time>2022-06-30T13:30:32Z</time>
      </trkpt>
      <trkpt lat="46.5913" lon="5.3494">
        <ele>212.2</ele>
        <time>2022-06-30T13:30:38Z</time>
      </trkpt>
      <trkpt lat="46.59139" lon="5.34905">
        <ele>212.6</ele>
        <time>2022-06-30T13:30:42Z</time>
      </trkpt>
      <trkpt lat="46.59142" lon="5.34897">
        <ele>212.6</ele>
        <time>2022-06-30T13:30:43Z</time>
      </trkpt>
      <trkpt lat="46.59144" lon="5.34888">
        <ele>212.8</ele>
        <time>2022-06-30T13:30:44Z</time>
      </trkpt>
      <trkpt lat="46.59156" lon="5.34846">
        <ele>214.2</ele>
        <time>2022-06-30T13:30:49Z</time>
      </trkpt>
      <trkpt lat="46.5916" lon="5.34831">
        <ele>214.6</ele>
        <time>2022-06-30T13:30:51Z</time>
      </trkpt>
      <trkpt lat="46.59164" lon="5.34813">
        <ele>215.4</ele>
        <time>2022-06-30T13:30:53Z</time>
      </trkpt>
      <trkpt lat="46.59175" lon="5.34771">
        <ele>216.6</ele>
        <time>2022-06-30T13:30:58Z</time>
      </trkpt>
      <trkpt lat="46.59177" lon="5.34762">
        <ele>216.8</ele>
        <time>2022-06-30T13:30:59Z</time>
      </trkpt>
      <trkpt lat="46.59179" lon="5.34753">
        <ele>217.2</ele>
        <time>2022-06-30T13:31:00Z</time>
      </trkpt>
      <trkpt lat="46.59185" lon="5.34711">
        <ele>217.6</ele>
        <time>2022-06-30T13:31:04Z</time>
      </trkpt>
      <trkpt lat="46.59196" lon="5.34648">
        <ele>217.2</ele>
        <time>2022-06-30T13:31:09Z</time>
      </trkpt>
      <trkpt lat="46.59207" lon="5.34578">
        <ele>215.4</ele>
        <time>2022-06-30T13:31:14Z</time>
      </trkpt>
      <trkpt lat="46.59209" lon="5.34564">
        <ele>215.2</ele>
        <time>2022-06-30T13:31:15Z</time>
      </trkpt>
      <trkpt lat="46.59215" lon="5.3454">
        <ele>213.8</ele>
        <time>2022-06-30T13:31:17Z</time>
      </trkpt>
      <trkpt lat="46.59216" lon="5.34531">
        <ele>213.4</ele>
        <time>2022-06-30T13:31:18Z</time>
      </trkpt>
      <trkpt lat="46.59214" lon="5.3451">
        <ele>212.4</ele>
        <time>2022-06-30T13:31:20Z</time>
      </trkpt>
      <trkpt lat="46.5921" lon="5.34501">
        <ele>211.8</ele>
        <time>2022-06-30T13:31:21Z</time>
      </trkpt>
      <trkpt lat="46.59204" lon="5.34492">
        <ele>211.4</ele>
        <time>2022-06-30T13:31:22Z</time>
      </trkpt>
      <trkpt lat="46.5919" lon="5.34476">
        <ele>210.2</ele>
        <time>2022-06-30T13:31:24Z</time>
      </trkpt>
      <trkpt lat="46.59174" lon="5.34462">
        <ele>208.8</ele>
        <time>2022-06-30T13:31:26Z</time>
      </trkpt>
      <trkpt lat="46.59156" lon="5.34451">
        <ele>207.8</ele>
        <time>2022-06-30T13:31:28Z</time>
      </trkpt>
      <trkpt lat="46.59147" lon="5.34446">
        <ele>207.6</ele>
        <time>2022-06-30T13:31:29Z</time>
      </trkpt>
      <trkpt lat="46.59111" lon="5.34431">
        <ele>206.6</ele>
        <time>2022-06-30T13:31:33Z</time>
      </trkpt>
      <trkpt lat="46.59102" lon="5.34427">
        <ele>206.6</ele>
        <time>2022-06-30T13:31:34Z</time>
      </trkpt>
      <trkpt lat="46.59042" lon="5.34399">
        <ele>206.4</ele>
        <time>2022-06-30T13:31:41Z</time>
      </trkpt>
      <trkpt lat="46.59034" lon="5.34394">
        <ele>206.4</ele>
        <time>2022-06-30T13:31:42Z</time>
      </trkpt>
      <trkpt lat="46.59019" lon="5.34382">
        <ele>206.4</ele>
        <time>2022-06-30T13:31:44Z</time>
      </trkpt>
      <trkpt lat="46.59006" lon="5.34366">
        <ele>206</ele>
        <time>2022-06-30T13:31:46Z</time>
      </trkpt>
      <trkpt lat="46.58987" lon="5.34324">
        <ele>206</ele>
        <time>2022-06-30T13:31:50Z</time>
      </trkpt>
      <trkpt lat="46.58982" lon="5.34314">
        <ele>206</ele>
        <time>2022-06-30T13:31:51Z</time>
      </trkpt>
      <trkpt lat="46.58953" lon="5.3424">
        <ele>206</ele>
        <time>2022-06-30T13:31:58Z</time>
      </trkpt>
      <trkpt lat="46.58942" lon="5.34209">
        <ele>206</ele>
        <time>2022-06-30T13:32:01Z</time>
      </trkpt>
      <trkpt lat="46.58928" lon="5.34154">
        <ele>206.2</ele>
        <time>2022-06-30T13:32:06Z</time>
      </trkpt>
      <trkpt lat="46.58921" lon="5.34087">
        <ele>206.4</ele>
        <time>2022-06-30T13:32:12Z</time>
      </trkpt>
      <trkpt lat="46.5891" lon="5.34022">
        <ele>206.6</ele>
        <time>2022-06-30T13:32:18Z</time>
      </trkpt>
      <trkpt lat="46.58907" lon="5.34012">
        <ele>206.6</ele>
        <time>2022-06-30T13:32:19Z</time>
      </trkpt>
      <trkpt lat="46.58903" lon="5.34003">
        <ele>206.8</ele>
        <time>2022-06-30T13:32:20Z</time>
      </trkpt>
      <trkpt lat="46.58887" lon="5.3398">
        <ele>206.8</ele>
        <time>2022-06-30T13:32:23Z</time>
      </trkpt>
      <trkpt lat="46.58878" lon="5.33963">
        <ele>206.8</ele>
        <time>2022-06-30T13:32:25Z</time>
      </trkpt>
      <trkpt lat="46.58872" lon="5.33945">
        <ele>206.6</ele>
        <time>2022-06-30T13:32:27Z</time>
      </trkpt>
      <trkpt lat="46.58871" lon="5.33912">
        <ele>206.8</ele>
        <time>2022-06-30T13:32:30Z</time>
      </trkpt>
      <trkpt lat="46.58872" lon="5.33901">
        <ele>206.8</ele>
        <time>2022-06-30T13:32:31Z</time>
      </trkpt>
      <trkpt lat="46.58873" lon="5.33877">
        <ele>206.8</ele>
        <time>2022-06-30T13:32:33Z</time>
      </trkpt>
      <trkpt lat="46.5887" lon="5.33853">
        <ele>206.6</ele>
        <time>2022-06-30T13:32:35Z</time>
      </trkpt>
      <trkpt lat="46.58861" lon="5.33832">
        <ele>206.4</ele>
        <time>2022-06-30T13:32:37Z</time>
      </trkpt>
      <trkpt lat="46.58856" lon="5.33822">
        <ele>206.4</ele>
        <time>2022-06-30T13:32:38Z</time>
      </trkpt>
      <trkpt lat="46.58844" lon="5.33805">
        <ele>206.2</ele>
        <time>2022-06-30T13:32:40Z</time>
      </trkpt>
      <trkpt lat="46.5883" lon="5.33793">
        <ele>205.8</ele>
        <time>2022-06-30T13:32:42Z</time>
      </trkpt>
      <trkpt lat="46.58823" lon="5.33789">
        <ele>205.8</ele>
        <time>2022-06-30T13:32:43Z</time>
      </trkpt>
      <trkpt lat="46.58793" lon="5.33775">
        <ele>205.8</ele>
        <time>2022-06-30T13:32:47Z</time>
      </trkpt>
      <trkpt lat="46.58779" lon="5.33762">
        <ele>205.8</ele>
        <time>2022-06-30T13:32:49Z</time>
      </trkpt>
      <trkpt lat="46.58767" lon="5.33744">
        <ele>205.8</ele>
        <time>2022-06-30T13:32:51Z</time>
      </trkpt>
      <trkpt lat="46.58744" lon="5.3369">
        <ele>205.6</ele>
        <time>2022-06-30T13:32:56Z</time>
      </trkpt>
      <trkpt lat="46.58739" lon="5.3368">
        <ele>205.2</ele>
        <time>2022-06-30T13:32:57Z</time>
      </trkpt>
      <trkpt lat="46.58727" lon="5.33662">
        <ele>204.8</ele>
        <time>2022-06-30T13:32:59Z</time>
      </trkpt>
      <trkpt lat="46.5872" lon="5.33656">
        <ele>204.8</ele>
        <time>2022-06-30T13:33:00Z</time>
      </trkpt>
      <trkpt lat="46.58699" lon="5.33639">
        <ele>204.4</ele>
        <time>2022-06-30T13:33:03Z</time>
      </trkpt>
      <trkpt lat="46.58686" lon="5.3363">
        <ele>204.4</ele>
        <time>2022-06-30T13:33:05Z</time>
      </trkpt>
      <trkpt lat="46.58679" lon="5.33629">
        <ele>204.2</ele>
        <time>2022-06-30T13:33:06Z</time>
      </trkpt>
      <trkpt lat="46.58673" lon="5.3363">
        <ele>204.2</ele>
        <time>2022-06-30T13:33:07Z</time>
      </trkpt>
      <trkpt lat="46.58658" lon="5.33636">
        <ele>204</ele>
        <time>2022-06-30T13:33:09Z</time>
      </trkpt>
      <trkpt lat="46.58642" lon="5.33644">
        <ele>203.6</ele>
        <time>2022-06-30T13:33:11Z</time>
      </trkpt>
      <trkpt lat="46.58615" lon="5.33653">
        <ele>203.4</ele>
        <time>2022-06-30T13:33:14Z</time>
      </trkpt>
      <trkpt lat="46.58579" lon="5.33665">
        <ele>202.6</ele>
        <time>2022-06-30T13:33:18Z</time>
      </trkpt>
      <trkpt lat="46.58552" lon="5.33675">
        <ele>202.2</ele>
        <time>2022-06-30T13:33:21Z</time>
      </trkpt>
      <trkpt lat="46.58527" lon="5.33692">
        <ele>201.8</ele>
        <time>2022-06-30T13:33:24Z</time>
      </trkpt>
      <trkpt lat="46.58519" lon="5.33699">
        <ele>201.8</ele>
        <time>2022-06-30T13:33:25Z</time>
      </trkpt>
      <trkpt lat="46.58479" lon="5.33752">
        <ele>201.6</ele>
        <time>2022-06-30T13:33:31Z</time>
      </trkpt>
      <trkpt lat="46.58472" lon="5.33761">
        <ele>201.4</ele>
        <time>2022-06-30T13:33:32Z</time>
      </trkpt>
      <trkpt lat="46.58427" lon="5.33823">
        <ele>201.2</ele>
        <time>2022-06-30T13:33:39Z</time>
      </trkpt>
      <trkpt lat="46.58386" lon="5.33881">
        <ele>201.6</ele>
        <time>2022-06-30T13:33:46Z</time>
      </trkpt>
      <trkpt lat="46.58356" lon="5.33924">
        <ele>202.4</ele>
        <time>2022-06-30T13:33:52Z</time>
      </trkpt>
      <trkpt lat="46.58351" lon="5.33931">
        <ele>202.4</ele>
        <time>2022-06-30T13:33:53Z</time>
      </trkpt>
      <trkpt lat="46.58332" lon="5.33957">
        <ele>203.8</ele>
        <time>2022-06-30T13:33:57Z</time>
      </trkpt>
      <trkpt lat="46.58318" lon="5.33976">
        <ele>204.4</ele>
        <time>2022-06-30T13:34:00Z</time>
      </trkpt>
      <trkpt lat="46.58303" lon="5.33996">
        <ele>205</ele>
        <time>2022-06-30T13:34:03Z</time>
      </trkpt>
      <trkpt lat="46.58274" lon="5.34036">
        <ele>205.8</ele>
        <time>2022-06-30T13:34:09Z</time>
      </trkpt>
      <trkpt lat="46.58265" lon="5.34049">
        <ele>206</ele>
        <time>2022-06-30T13:34:11Z</time>
      </trkpt>
      <trkpt lat="46.58238" lon="5.34088">
        <ele>207</ele>
        <time>2022-06-30T13:34:17Z</time>
      </trkpt>
      <trkpt lat="46.58233" lon="5.34094">
        <ele>207.2</ele>
        <time>2022-06-30T13:34:18Z</time>
      </trkpt>
      <trkpt lat="46.58199" lon="5.34141">
        <ele>208</ele>
        <time>2022-06-30T13:34:26Z</time>
      </trkpt>
      <trkpt lat="46.58191" lon="5.34152">
        <ele>208.8</ele>
        <time>2022-06-30T13:34:28Z</time>
      </trkpt>
      <trkpt lat="46.58184" lon="5.34162">
        <ele>209.4</ele>
        <time>2022-06-30T13:34:30Z</time>
      </trkpt>
      <trkpt lat="46.58174" lon="5.34178">
        <ele>210</ele>
        <time>2022-06-30T13:34:33Z</time>
      </trkpt>
      <trkpt lat="46.5817" lon="5.34183">
        <ele>210.6</ele>
        <time>2022-06-30T13:34:34Z</time>
      </trkpt>
      <trkpt lat="46.58159" lon="5.34197">
        <ele>211.8</ele>
        <time>2022-06-30T13:34:37Z</time>
      </trkpt>
      <trkpt lat="46.58146" lon="5.34217">
        <ele>213</ele>
        <time>2022-06-30T13:34:41Z</time>
      </trkpt>
      <trkpt lat="46.58139" lon="5.34227">
        <ele>213.4</ele>
        <time>2022-06-30T13:34:43Z</time>
      </trkpt>
      <trkpt lat="46.58129" lon="5.34241">
        <ele>214.2</ele>
        <time>2022-06-30T13:34:46Z</time>
      </trkpt>
      <trkpt lat="46.58115" lon="5.34261">
        <ele>215.4</ele>
        <time>2022-06-30T13:34:50Z</time>
      </trkpt>
      <trkpt lat="46.58108" lon="5.34271">
        <ele>216.2</ele>
        <time>2022-06-30T13:34:52Z</time>
      </trkpt>
      <trkpt lat="46.58104" lon="5.34276">
        <ele>216.6</ele>
        <time>2022-06-30T13:34:53Z</time>
      </trkpt>
      <trkpt lat="46.5808" lon="5.34309">
        <ele>217.6</ele>
        <time>2022-06-30T13:34:59Z</time>
      </trkpt>
      <trkpt lat="46.58076" lon="5.34315">
        <ele>217.8</ele>
        <time>2022-06-30T13:35:00Z</time>
      </trkpt>
      <trkpt lat="46.58059" lon="5.34339">
        <ele>218.4</ele>
        <time>2022-06-30T13:35:04Z</time>
      </trkpt>
      <trkpt lat="46.58051" lon="5.34351">
        <ele>218.8</ele>
        <time>2022-06-30T13:35:06Z</time>
      </trkpt>
      <trkpt lat="46.58047" lon="5.34357">
        <ele>219</ele>
        <time>2022-06-30T13:35:07Z</time>
      </trkpt>
      <trkpt lat="46.58033" lon="5.34373">
        <ele>219</ele>
        <time>2022-06-30T13:35:10Z</time>
      </trkpt>
      <trkpt lat="46.58022" lon="5.3438">
        <ele>219.2</ele>
        <time>2022-06-30T13:35:12Z</time>
      </trkpt>
      <trkpt lat="46.58009" lon="5.3438">
        <ele>219.4</ele>
        <time>2022-06-30T13:35:14Z</time>
      </trkpt>
      <trkpt lat="46.57995" lon="5.34376">
        <ele>219.6</ele>
        <time>2022-06-30T13:35:16Z</time>
      </trkpt>
      <trkpt lat="46.57947" lon="5.34368">
        <ele>219.8</ele>
        <time>2022-06-30T13:35:23Z</time>
      </trkpt>
      <trkpt lat="46.57934" lon="5.34368">
        <ele>220.2</ele>
        <time>2022-06-30T13:35:25Z</time>
      </trkpt>
      <trkpt lat="46.57913" lon="5.34372">
        <ele>220.4</ele>
        <time>2022-06-30T13:35:28Z</time>
      </trkpt>
      <trkpt lat="46.57879" lon="5.34389">
        <ele>220.4</ele>
        <time>2022-06-30T13:35:33Z</time>
      </trkpt>
      <trkpt lat="46.57838" lon="5.34423">
        <ele>220.2</ele>
        <time>2022-06-30T13:35:39Z</time>
      </trkpt>
      <trkpt lat="46.57818" lon="5.34441">
        <ele>220</ele>
        <time>2022-06-30T13:35:42Z</time>
      </trkpt>
      <trkpt lat="46.57806" lon="5.34459">
        <ele>219.6</ele>
        <time>2022-06-30T13:35:44Z</time>
      </trkpt>
      <trkpt lat="46.57797" lon="5.34483">
        <ele>218.4</ele>
        <time>2022-06-30T13:35:46Z</time>
      </trkpt>
      <trkpt lat="46.57789" lon="5.34508">
        <ele>217.8</ele>
        <time>2022-06-30T13:35:48Z</time>
      </trkpt>
      <trkpt lat="46.57786" lon="5.34524">
        <ele>217.4</ele>
        <time>2022-06-30T13:35:49Z</time>
      </trkpt>
      <trkpt lat="46.57781" lon="5.34555">
        <ele>216</ele>
        <time>2022-06-30T13:35:51Z</time>
      </trkpt>
      <trkpt lat="46.57778" lon="5.34591">
        <ele>214.8</ele>
        <time>2022-06-30T13:35:53Z</time>
      </trkpt>
      <trkpt lat="46.57777" lon="5.34626">
        <ele>213.8</ele>
        <time>2022-06-30T13:35:55Z</time>
      </trkpt>
      <trkpt lat="46.57775" lon="5.34658">
        <ele>213</ele>
        <time>2022-06-30T13:35:57Z</time>
      </trkpt>
      <trkpt lat="46.57774" lon="5.34673">
        <ele>212.4</ele>
        <time>2022-06-30T13:35:58Z</time>
      </trkpt>
      <trkpt lat="46.57773" lon="5.34689">
        <ele>212.2</ele>
        <time>2022-06-30T13:35:59Z</time>
      </trkpt>
      <trkpt lat="46.57767" lon="5.34747">
        <ele>211.6</ele>
        <time>2022-06-30T13:36:03Z</time>
      </trkpt>
      <trkpt lat="46.57764" lon="5.34802">
        <ele>211.2</ele>
        <time>2022-06-30T13:36:07Z</time>
      </trkpt>
      <trkpt lat="46.5776" lon="5.34828">
        <ele>211.4</ele>
        <time>2022-06-30T13:36:09Z</time>
      </trkpt>
      <trkpt lat="46.57753" lon="5.34876">
        <ele>211.2</ele>
        <time>2022-06-30T13:36:13Z</time>
      </trkpt>
      <trkpt lat="46.57751" lon="5.34887">
        <ele>211.2</ele>
        <time>2022-06-30T13:36:14Z</time>
      </trkpt>
      <trkpt lat="46.57741" lon="5.34942">
        <ele>211.4</ele>
        <time>2022-06-30T13:36:19Z</time>
      </trkpt>
      <trkpt lat="46.57729" lon="5.35013">
        <ele>211.8</ele>
        <time>2022-06-30T13:36:25Z</time>
      </trkpt>
      <trkpt lat="46.57727" lon="5.35026">
        <ele>211.6</ele>
        <time>2022-06-30T13:36:26Z</time>
      </trkpt>
      <trkpt lat="46.57728" lon="5.35053">
        <ele>211.4</ele>
        <time>2022-06-30T13:36:28Z</time>
      </trkpt>
      <trkpt lat="46.57729" lon="5.35066">
        <ele>211.2</ele>
        <time>2022-06-30T13:36:29Z</time>
      </trkpt>
      <trkpt lat="46.57739" lon="5.35107">
        <ele>210</ele>
        <time>2022-06-30T13:36:32Z</time>
      </trkpt>
      <trkpt lat="46.57748" lon="5.35136">
        <ele>209.2</ele>
        <time>2022-06-30T13:36:34Z</time>
      </trkpt>
      <trkpt lat="46.57758" lon="5.35179">
        <ele>207.8</ele>
        <time>2022-06-30T13:36:37Z</time>
      </trkpt>
      <trkpt lat="46.5776" lon="5.35194">
        <ele>207.6</ele>
        <time>2022-06-30T13:36:38Z</time>
      </trkpt>
      <trkpt lat="46.57763" lon="5.35221">
        <ele>206.4</ele>
        <time>2022-06-30T13:36:40Z</time>
      </trkpt>
      <trkpt lat="46.57764" lon="5.35234">
        <ele>206.4</ele>
        <time>2022-06-30T13:36:41Z</time>
      </trkpt>
      <trkpt lat="46.57764" lon="5.35247">
        <ele>206.4</ele>
        <time>2022-06-30T13:36:42Z</time>
      </trkpt>
      <trkpt lat="46.57769" lon="5.35282">
        <ele>206.4</ele>
        <time>2022-06-30T13:36:45Z</time>
      </trkpt>
      <trkpt lat="46.57771" lon="5.35292">
        <ele>206.4</ele>
        <time>2022-06-30T13:36:46Z</time>
      </trkpt>
      <trkpt lat="46.57775" lon="5.35302">
        <ele>206.6</ele>
        <time>2022-06-30T13:36:47Z</time>
      </trkpt>
      <trkpt lat="46.57783" lon="5.35321">
        <ele>207.2</ele>
        <time>2022-06-30T13:36:49Z</time>
      </trkpt>
      <trkpt lat="46.57787" lon="5.3533">
        <ele>207.2</ele>
        <time>2022-06-30T13:36:50Z</time>
      </trkpt>
      <trkpt lat="46.57792" lon="5.35338">
        <ele>207.6</ele>
        <time>2022-06-30T13:36:51Z</time>
      </trkpt>
      <trkpt lat="46.57811" lon="5.35378">
        <ele>209.2</ele>
        <time>2022-06-30T13:36:56Z</time>
      </trkpt>
      <trkpt lat="46.57818" lon="5.35403">
        <ele>210</ele>
        <time>2022-06-30T13:36:59Z</time>
      </trkpt>
      <trkpt lat="46.57818" lon="5.35411">
        <ele>210.4</ele>
        <time>2022-06-30T13:37:00Z</time>
      </trkpt>
      <trkpt lat="46.57817" lon="5.35419">
        <ele>211</ele>
        <time>2022-06-30T13:37:01Z</time>
      </trkpt>
      <trkpt lat="46.57807" lon="5.3543">
        <ele>211.4</ele>
        <time>2022-06-30T13:37:03Z</time>
      </trkpt>
      <trkpt lat="46.57799" lon="5.35435">
        <ele>211.6</ele>
        <time>2022-06-30T13:37:04Z</time>
      </trkpt>
      <trkpt lat="46.57776" lon="5.3545">
        <ele>211.8</ele>
        <time>2022-06-30T13:37:07Z</time>
      </trkpt>
      <trkpt lat="46.57723" lon="5.35488">
        <ele>210.6</ele>
        <time>2022-06-30T13:37:13Z</time>
      </trkpt>
      <trkpt lat="46.57713" lon="5.35495">
        <ele>210</ele>
        <time>2022-06-30T13:37:14Z</time>
      </trkpt>
      <trkpt lat="46.57692" lon="5.35509">
        <ele>208.6</ele>
        <time>2022-06-30T13:37:16Z</time>
      </trkpt>
      <trkpt lat="46.57663" lon="5.35529">
        <ele>207.2</ele>
        <time>2022-06-30T13:37:19Z</time>
      </trkpt>
      <trkpt lat="46.57653" lon="5.35536">
        <ele>207</ele>
        <time>2022-06-30T13:37:20Z</time>
      </trkpt>
      <trkpt lat="46.57636" lon="5.35552">
        <ele>206</ele>
        <time>2022-06-30T13:37:22Z</time>
      </trkpt>
      <trkpt lat="46.5762" lon="5.35569">
        <ele>205</ele>
        <time>2022-06-30T13:37:24Z</time>
      </trkpt>
      <trkpt lat="46.57611" lon="5.35578">
        <ele>204.8</ele>
        <time>2022-06-30T13:37:25Z</time>
      </trkpt>
      <trkpt lat="46.57579" lon="5.35606">
        <ele>203.8</ele>
        <time>2022-06-30T13:37:29Z</time>
      </trkpt>
      <trkpt lat="46.57554" lon="5.3564">
        <ele>203.6</ele>
        <time>2022-06-30T13:37:33Z</time>
      </trkpt>
      <trkpt lat="46.57537" lon="5.35664">
        <ele>203.8</ele>
        <time>2022-06-30T13:37:36Z</time>
      </trkpt>
      <trkpt lat="46.57524" lon="5.35676">
        <ele>204</ele>
        <time>2022-06-30T13:37:38Z</time>
      </trkpt>
      <trkpt lat="46.57488" lon="5.35701">
        <ele>204.8</ele>
        <time>2022-06-30T13:37:44Z</time>
      </trkpt>
      <trkpt lat="46.57482" lon="5.35705">
        <ele>204.8</ele>
        <time>2022-06-30T13:37:45Z</time>
      </trkpt>
      <trkpt lat="46.57465" lon="5.35716">
        <ele>206</ele>
        <time>2022-06-30T13:37:48Z</time>
      </trkpt>
      <trkpt lat="46.57443" lon="5.3573">
        <ele>207</ele>
        <time>2022-06-30T13:37:52Z</time>
      </trkpt>
      <trkpt lat="46.57414" lon="5.35748">
        <ele>208</ele>
        <time>2022-06-30T13:37:58Z</time>
      </trkpt>
      <trkpt lat="46.57405" lon="5.35755">
        <ele>209.2</ele>
        <time>2022-06-30T13:38:00Z</time>
      </trkpt>
      <trkpt lat="46.57401" lon="5.3576">
        <ele>209.6</ele>
        <time>2022-06-30T13:38:01Z</time>
      </trkpt>
      <trkpt lat="46.57393" lon="5.35771">
        <ele>210.4</ele>
        <time>2022-06-30T13:38:03Z</time>
      </trkpt>
      <trkpt lat="46.57377" lon="5.35801">
        <ele>211.4</ele>
        <time>2022-06-30T13:38:07Z</time>
      </trkpt>
      <trkpt lat="46.5736" lon="5.35825">
        <ele>211.4</ele>
        <time>2022-06-30T13:38:10Z</time>
      </trkpt>
      <trkpt lat="46.57353" lon="5.35831">
        <ele>211.4</ele>
        <time>2022-06-30T13:38:11Z</time>
      </trkpt>
      <trkpt lat="46.57339" lon="5.3584">
        <ele>211.4</ele>
        <time>2022-06-30T13:38:13Z</time>
      </trkpt>
      <trkpt lat="46.57331" lon="5.3584">
        <ele>211</ele>
        <time>2022-06-30T13:38:14Z</time>
      </trkpt>
      <trkpt lat="46.57323" lon="5.35838">
        <ele>210.8</ele>
        <time>2022-06-30T13:38:15Z</time>
      </trkpt>
      <trkpt lat="46.57308" lon="5.35834">
        <ele>210.2</ele>
        <time>2022-06-30T13:38:17Z</time>
      </trkpt>
      <trkpt lat="46.57301" lon="5.35834">
        <ele>210</ele>
        <time>2022-06-30T13:38:18Z</time>
      </trkpt>
      <trkpt lat="46.57294" lon="5.35836">
        <ele>210</ele>
        <time>2022-06-30T13:38:19Z</time>
      </trkpt>
      <trkpt lat="46.5728" lon="5.35845">
        <ele>209.8</ele>
        <time>2022-06-30T13:38:21Z</time>
      </trkpt>
      <trkpt lat="46.57229" lon="5.35884">
        <ele>210</ele>
        <time>2022-06-30T13:38:29Z</time>
      </trkpt>
      <trkpt lat="46.57223" lon="5.35889">
        <ele>210</ele>
        <time>2022-06-30T13:38:30Z</time>
      </trkpt>
      <trkpt lat="46.57201" lon="5.35907">
        <ele>211.2</ele>
        <time>2022-06-30T13:38:34Z</time>
      </trkpt>
      <trkpt lat="46.57184" lon="5.35922">
        <ele>211.4</ele>
        <time>2022-06-30T13:38:37Z</time>
      </trkpt>
      <trkpt lat="46.57156" lon="5.35948">
        <ele>212.4</ele>
        <time>2022-06-30T13:38:42Z</time>
      </trkpt>
      <trkpt lat="46.57129" lon="5.35973">
        <ele>213.2</ele>
        <time>2022-06-30T13:38:47Z</time>
      </trkpt>
      <trkpt lat="46.57118" lon="5.35982">
        <ele>213.4</ele>
        <time>2022-06-30T13:38:49Z</time>
      </trkpt>
      <trkpt lat="46.57105" lon="5.3599">
        <ele>213.6</ele>
        <time>2022-06-30T13:38:51Z</time>
      </trkpt>
      <trkpt lat="46.57092" lon="5.35994">
        <ele>213.6</ele>
        <time>2022-06-30T13:38:53Z</time>
      </trkpt>
      <trkpt lat="46.57043" lon="5.35999">
        <ele>214</ele>
        <time>2022-06-30T13:39:00Z</time>
      </trkpt>
      <trkpt lat="46.57024" lon="5.36009">
        <ele>214.2</ele>
        <time>2022-06-30T13:39:03Z</time>
      </trkpt>
      <trkpt lat="46.57018" lon="5.36013">
        <ele>214.2</ele>
        <time>2022-06-30T13:39:04Z</time>
      </trkpt>
      <trkpt lat="46.57006" lon="5.36022">
        <ele>214.4</ele>
        <time>2022-06-30T13:39:06Z</time>
      </trkpt>
      <trkpt lat="46.56984" lon="5.36044">
        <ele>214.8</ele>
        <time>2022-06-30T13:39:10Z</time>
      </trkpt>
      <trkpt lat="46.56974" lon="5.36058">
        <ele>215.2</ele>
        <time>2022-06-30T13:39:12Z</time>
      </trkpt>
      <trkpt lat="46.5696" lon="5.36081">
        <ele>215.6</ele>
        <time>2022-06-30T13:39:15Z</time>
      </trkpt>
      <trkpt lat="46.56933" lon="5.3614">
        <ele>216.2</ele>
        <time>2022-06-30T13:39:22Z</time>
      </trkpt>
      <trkpt lat="46.56918" lon="5.3616">
        <ele>216.2</ele>
        <time>2022-06-30T13:39:25Z</time>
      </trkpt>
      <trkpt lat="46.56912" lon="5.36165">
        <ele>216.2</ele>
        <time>2022-06-30T13:39:26Z</time>
      </trkpt>
      <trkpt lat="46.56881" lon="5.36185">
        <ele>216.6</ele>
        <time>2022-06-30T13:39:31Z</time>
      </trkpt>
      <trkpt lat="46.56867" lon="5.36192">
        <ele>216.8</ele>
        <time>2022-06-30T13:39:33Z</time>
      </trkpt>
      <trkpt lat="46.56832" lon="5.36209">
        <ele>217.6</ele>
        <time>2022-06-30T13:39:38Z</time>
      </trkpt>
      <trkpt lat="46.56816" lon="5.36213">
        <ele>217.8</ele>
        <time>2022-06-30T13:39:40Z</time>
      </trkpt>
      <trkpt lat="46.56772" lon="5.36219">
        <ele>218</ele>
        <time>2022-06-30T13:39:46Z</time>
      </trkpt>
      <trkpt lat="46.56714" lon="5.36228">
        <ele>218</ele>
        <time>2022-06-30T13:39:54Z</time>
      </trkpt>
      <trkpt lat="46.56672" lon="5.36227">
        <ele>218.6</ele>
        <time>2022-06-30T13:40:00Z</time>
      </trkpt>
      <trkpt lat="46.56665" lon="5.36226">
        <ele>218.6</ele>
        <time>2022-06-30T13:40:01Z</time>
      </trkpt>
      <trkpt lat="46.56646" lon="5.36224">
        <ele>219.8</ele>
        <time>2022-06-30T13:40:04Z</time>
      </trkpt>
      <trkpt lat="46.56617" lon="5.36218">
        <ele>220.4</ele>
        <time>2022-06-30T13:40:08Z</time>
      </trkpt>
      <trkpt lat="46.56602" lon="5.36216">
        <ele>220.6</ele>
        <time>2022-06-30T13:40:10Z</time>
      </trkpt>
      <trkpt lat="46.56578" lon="5.36215">
        <ele>220.6</ele>
        <time>2022-06-30T13:40:13Z</time>
      </trkpt>
      <trkpt lat="46.5652" lon="5.36215">
        <ele>220.8</ele>
        <time>2022-06-30T13:40:20Z</time>
      </trkpt>
      <trkpt lat="46.56504" lon="5.36216">
        <ele>220.8</ele>
        <time>2022-06-30T13:40:22Z</time>
      </trkpt>
      <trkpt lat="46.56444" lon="5.36221">
        <ele>221.4</ele>
        <time>2022-06-30T13:40:30Z</time>
      </trkpt>
      <trkpt lat="46.56436" lon="5.36221">
        <ele>221.4</ele>
        <time>2022-06-30T13:40:31Z</time>
      </trkpt>
      <trkpt lat="46.56429" lon="5.36221">
        <ele>221.6</ele>
        <time>2022-06-30T13:40:32Z</time>
      </trkpt>
      <trkpt lat="46.56368" lon="5.36221">
        <ele>222</ele>
        <time>2022-06-30T13:40:40Z</time>
      </trkpt>
      <trkpt lat="46.5636" lon="5.36222">
        <ele>222.2</ele>
        <time>2022-06-30T13:40:41Z</time>
      </trkpt>
      <trkpt lat="46.56345" lon="5.36222">
        <ele>222.2</ele>
        <time>2022-06-30T13:40:43Z</time>
      </trkpt>
      <trkpt lat="46.5633" lon="5.36219">
        <ele>222.2</ele>
        <time>2022-06-30T13:40:45Z</time>
      </trkpt>
      <trkpt lat="46.56323" lon="5.36219">
        <ele>222.4</ele>
        <time>2022-06-30T13:40:46Z</time>
      </trkpt>
      <trkpt lat="46.56299" lon="5.36218">
        <ele>222.6</ele>
        <time>2022-06-30T13:40:49Z</time>
      </trkpt>
      <trkpt lat="46.56266" lon="5.36221">
        <ele>222.4</ele>
        <time>2022-06-30T13:40:53Z</time>
      </trkpt>
      <trkpt lat="46.56249" lon="5.36229">
        <ele>222.2</ele>
        <time>2022-06-30T13:40:55Z</time>
      </trkpt>
      <trkpt lat="46.56241" lon="5.36236">
        <ele>222</ele>
        <time>2022-06-30T13:40:56Z</time>
      </trkpt>
      <trkpt lat="46.56234" lon="5.36245">
        <ele>222</ele>
        <time>2022-06-30T13:40:57Z</time>
      </trkpt>
      <trkpt lat="46.56223" lon="5.36266">
        <ele>221.8</ele>
        <time>2022-06-30T13:40:59Z</time>
      </trkpt>
      <trkpt lat="46.56217" lon="5.36277">
        <ele>221.2</ele>
        <time>2022-06-30T13:41:00Z</time>
      </trkpt>
      <trkpt lat="46.56187" lon="5.36328">
        <ele>220.2</ele>
        <time>2022-06-30T13:41:05Z</time>
      </trkpt>
      <trkpt lat="46.56181" lon="5.36338">
        <ele>219.8</ele>
        <time>2022-06-30T13:41:06Z</time>
      </trkpt>
      <trkpt lat="46.56148" lon="5.36399">
        <ele>218.6</ele>
        <time>2022-06-30T13:41:12Z</time>
      </trkpt>
      <trkpt lat="46.56143" lon="5.36409">
        <ele>218.6</ele>
        <time>2022-06-30T13:41:13Z</time>
      </trkpt>
      <trkpt lat="46.56118" lon="5.36457">
        <ele>218.2</ele>
        <time>2022-06-30T13:41:18Z</time>
      </trkpt>
      <trkpt lat="46.56106" lon="5.36472">
        <ele>218.2</ele>
        <time>2022-06-30T13:41:20Z</time>
      </trkpt>
      <trkpt lat="46.56099" lon="5.36478">
        <ele>218.4</ele>
        <time>2022-06-30T13:41:21Z</time>
      </trkpt>
      <trkpt lat="46.56085" lon="5.36485">
        <ele>219</ele>
        <time>2022-06-30T13:41:23Z</time>
      </trkpt>
      <trkpt lat="46.56078" lon="5.36486">
        <ele>219</ele>
        <time>2022-06-30T13:41:24Z</time>
      </trkpt>
      <trkpt lat="46.56071" lon="5.36484">
        <ele>219.2</ele>
        <time>2022-06-30T13:41:25Z</time>
      </trkpt>
      <trkpt lat="46.56057" lon="5.36477">
        <ele>219.6</ele>
        <time>2022-06-30T13:41:27Z</time>
      </trkpt>
      <trkpt lat="46.5605" lon="5.36473">
        <ele>219.8</ele>
        <time>2022-06-30T13:41:28Z</time>
      </trkpt>
      <trkpt lat="46.56006" lon="5.36447">
        <ele>220.2</ele>
        <time>2022-06-30T13:41:34Z</time>
      </trkpt>
      <trkpt lat="46.55958" lon="5.36412">
        <ele>220.2</ele>
        <time>2022-06-30T13:41:40Z</time>
      </trkpt>
      <trkpt lat="46.55903" lon="5.3637">
        <ele>219.8</ele>
        <time>2022-06-30T13:41:47Z</time>
      </trkpt>
      <trkpt lat="46.55872" lon="5.36354">
        <ele>219.8</ele>
        <time>2022-06-30T13:41:51Z</time>
      </trkpt>
      <trkpt lat="46.55865" lon="5.36349">
        <ele>219.8</ele>
        <time>2022-06-30T13:41:52Z</time>
      </trkpt>
      <trkpt lat="46.55843" lon="5.36332">
        <ele>219.8</ele>
        <time>2022-06-30T13:41:55Z</time>
      </trkpt>
      <trkpt lat="46.55834" lon="5.3633">
        <ele>219.8</ele>
        <time>2022-06-30T13:41:56Z</time>
      </trkpt>
      <trkpt lat="46.55825" lon="5.3633">
        <ele>219.8</ele>
        <time>2022-06-30T13:41:57Z</time>
      </trkpt>
      <trkpt lat="46.55806" lon="5.36338">
        <ele>219.6</ele>
        <time>2022-06-30T13:41:59Z</time>
      </trkpt>
      <trkpt lat="46.55788" lon="5.36346">
        <ele>219.2</ele>
        <time>2022-06-30T13:42:01Z</time>
      </trkpt>
      <trkpt lat="46.55768" lon="5.36346">
        <ele>219</ele>
        <time>2022-06-30T13:42:03Z</time>
      </trkpt>
      <trkpt lat="46.55758" lon="5.36342">
        <ele>218</ele>
        <time>2022-06-30T13:42:04Z</time>
      </trkpt>
      <trkpt lat="46.55747" lon="5.36336">
        <ele>217.6</ele>
        <time>2022-06-30T13:42:05Z</time>
      </trkpt>
      <trkpt lat="46.55737" lon="5.3633">
        <ele>217.4</ele>
        <time>2022-06-30T13:42:06Z</time>
      </trkpt>
      <trkpt lat="46.55726" lon="5.36322">
        <ele>217</ele>
        <time>2022-06-30T13:42:07Z</time>
      </trkpt>
      <trkpt lat="46.55681" lon="5.36293">
        <ele>215.6</ele>
        <time>2022-06-30T13:42:11Z</time>
      </trkpt>
      <trkpt lat="46.55669" lon="5.36288">
        <ele>214.8</ele>
        <time>2022-06-30T13:42:12Z</time>
      </trkpt>
      <trkpt lat="46.55656" lon="5.36285">
        <ele>214.4</ele>
        <time>2022-06-30T13:42:13Z</time>
      </trkpt>
      <trkpt lat="46.55643" lon="5.36284">
        <ele>213.8</ele>
        <time>2022-06-30T13:42:14Z</time>
      </trkpt>
      <trkpt lat="46.55631" lon="5.36285">
        <ele>213.2</ele>
        <time>2022-06-30T13:42:15Z</time>
      </trkpt>
      <trkpt lat="46.55607" lon="5.36288">
        <ele>211.8</ele>
        <time>2022-06-30T13:42:17Z</time>
      </trkpt>
      <trkpt lat="46.55597" lon="5.36291">
        <ele>210.6</ele>
        <time>2022-06-30T13:42:18Z</time>
      </trkpt>
      <trkpt lat="46.55568" lon="5.36306">
        <ele>209.2</ele>
        <time>2022-06-30T13:42:21Z</time>
      </trkpt>
      <trkpt lat="46.55559" lon="5.36312">
        <ele>209.2</ele>
        <time>2022-06-30T13:42:22Z</time>
      </trkpt>
      <trkpt lat="46.55551" lon="5.36319">
        <ele>209</ele>
        <time>2022-06-30T13:42:23Z</time>
      </trkpt>
      <trkpt lat="46.55536" lon="5.36336">
        <ele>208.8</ele>
        <time>2022-06-30T13:42:25Z</time>
      </trkpt>
      <trkpt lat="46.55525" lon="5.36354">
        <ele>208.8</ele>
        <time>2022-06-30T13:42:27Z</time>
      </trkpt>
      <trkpt lat="46.55512" lon="5.36361">
        <ele>208.8</ele>
        <time>2022-06-30T13:42:29Z</time>
      </trkpt>
      <trkpt lat="46.55496" lon="5.36359">
        <ele>209</ele>
        <time>2022-06-30T13:42:31Z</time>
      </trkpt>
      <trkpt lat="46.55481" lon="5.36353">
        <ele>209.2</ele>
        <time>2022-06-30T13:42:33Z</time>
      </trkpt>
      <trkpt lat="46.55468" lon="5.3635">
        <ele>209.4</ele>
        <time>2022-06-30T13:42:35Z</time>
      </trkpt>
      <trkpt lat="46.55453" lon="5.36349">
        <ele>209.4</ele>
        <time>2022-06-30T13:42:37Z</time>
      </trkpt>
      <trkpt lat="46.55414" lon="5.3635">
        <ele>210.2</ele>
        <time>2022-06-30T13:42:42Z</time>
      </trkpt>
      <trkpt lat="46.5537" lon="5.36349">
        <ele>210.2</ele>
        <time>2022-06-30T13:42:47Z</time>
      </trkpt>
      <trkpt lat="46.55362" lon="5.3635">
        <ele>210.2</ele>
        <time>2022-06-30T13:42:48Z</time>
      </trkpt>
      <trkpt lat="46.55338" lon="5.36361">
        <ele>209.8</ele>
        <time>2022-06-30T13:42:51Z</time>
      </trkpt>
      <trkpt lat="46.55315" lon="5.36368">
        <ele>209.8</ele>
        <time>2022-06-30T13:42:54Z</time>
      </trkpt>
      <trkpt lat="46.55307" lon="5.36367">
        <ele>209.8</ele>
        <time>2022-06-30T13:42:55Z</time>
      </trkpt>
      <trkpt lat="46.5529" lon="5.36365">
        <ele>209.8</ele>
        <time>2022-06-30T13:42:57Z</time>
      </trkpt>
      <trkpt lat="46.55274" lon="5.3637">
        <ele>209.6</ele>
        <time>2022-06-30T13:42:59Z</time>
      </trkpt>
      <trkpt lat="46.55262" lon="5.36385">
        <ele>209.4</ele>
        <time>2022-06-30T13:43:01Z</time>
      </trkpt>
      <trkpt lat="46.55257" lon="5.36394">
        <ele>209.2</ele>
        <time>2022-06-30T13:43:02Z</time>
      </trkpt>
      <trkpt lat="46.55246" lon="5.36413">
        <ele>209</ele>
        <time>2022-06-30T13:43:04Z</time>
      </trkpt>
      <trkpt lat="46.55234" lon="5.36429">
        <ele>209</ele>
        <time>2022-06-30T13:43:06Z</time>
      </trkpt>
      <trkpt lat="46.55227" lon="5.36434">
        <ele>209</ele>
        <time>2022-06-30T13:43:07Z</time>
      </trkpt>
      <trkpt lat="46.55219" lon="5.36437">
        <ele>209</ele>
        <time>2022-06-30T13:43:08Z</time>
      </trkpt>
      <trkpt lat="46.55202" lon="5.36439">
        <ele>209</ele>
        <time>2022-06-30T13:43:10Z</time>
      </trkpt>
      <trkpt lat="46.55194" lon="5.3644">
        <ele>209</ele>
        <time>2022-06-30T13:43:11Z</time>
      </trkpt>
      <trkpt lat="46.55177" lon="5.36449">
        <ele>208.8</ele>
        <time>2022-06-30T13:43:13Z</time>
      </trkpt>
      <trkpt lat="46.55147" lon="5.36479">
        <ele>208.8</ele>
        <time>2022-06-30T13:43:17Z</time>
      </trkpt>
      <trkpt lat="46.55117" lon="5.36523">
        <ele>208</ele>
        <time>2022-06-30T13:43:22Z</time>
      </trkpt>
      <trkpt lat="46.55086" lon="5.36595">
        <ele>207.6</ele>
        <time>2022-06-30T13:43:29Z</time>
      </trkpt>
      <trkpt lat="46.55058" lon="5.36667">
        <ele>208.4</ele>
        <time>2022-06-30T13:43:36Z</time>
      </trkpt>
      <trkpt lat="46.55054" lon="5.36677">
        <ele>208.6</ele>
        <time>2022-06-30T13:43:37Z</time>
      </trkpt>
      <trkpt lat="46.5504" lon="5.36706">
        <ele>208.6</ele>
        <time>2022-06-30T13:43:40Z</time>
      </trkpt>
      <trkpt lat="46.55015" lon="5.36749">
        <ele>208.6</ele>
        <time>2022-06-30T13:43:45Z</time>
      </trkpt>
      <trkpt lat="46.54986" lon="5.36785">
        <ele>208.6</ele>
        <time>2022-06-30T13:43:50Z</time>
      </trkpt>
      <trkpt lat="46.54956" lon="5.36813">
        <ele>209.2</ele>
        <time>2022-06-30T13:43:55Z</time>
      </trkpt>
      <trkpt lat="46.54951" lon="5.36818">
        <ele>209.6</ele>
        <time>2022-06-30T13:43:56Z</time>
      </trkpt>
      <trkpt lat="46.54914" lon="5.36856">
        <ele>210.4</ele>
        <time>2022-06-30T13:44:02Z</time>
      </trkpt>
      <trkpt lat="46.54877" lon="5.36902">
        <ele>210.2</ele>
        <time>2022-06-30T13:44:08Z</time>
      </trkpt>
      <trkpt lat="46.54866" lon="5.36917">
        <ele>210</ele>
        <time>2022-06-30T13:44:10Z</time>
      </trkpt>
      <trkpt lat="46.54855" lon="5.36929">
        <ele>210</ele>
        <time>2022-06-30T13:44:12Z</time>
      </trkpt>
      <trkpt lat="46.5485" lon="5.36935">
        <ele>210</ele>
        <time>2022-06-30T13:44:13Z</time>
      </trkpt>
      <trkpt lat="46.54827" lon="5.36962">
        <ele>210.2</ele>
        <time>2022-06-30T13:44:17Z</time>
      </trkpt>
      <trkpt lat="46.5482" lon="5.36971">
        <ele>210.2</ele>
        <time>2022-06-30T13:44:18Z</time>
      </trkpt>
      <trkpt lat="46.54798" lon="5.36999">
        <ele>211.2</ele>
        <time>2022-06-30T13:44:22Z</time>
      </trkpt>
      <trkpt lat="46.54788" lon="5.37012">
        <ele>211.4</ele>
        <time>2022-06-30T13:44:24Z</time>
      </trkpt>
      <trkpt lat="46.54766" lon="5.3705">
        <ele>212.4</ele>
        <time>2022-06-30T13:44:29Z</time>
      </trkpt>
      <trkpt lat="46.54761" lon="5.37059">
        <ele>212.6</ele>
        <time>2022-06-30T13:44:30Z</time>
      </trkpt>
      <trkpt lat="46.54756" lon="5.37068">
        <ele>212.6</ele>
        <time>2022-06-30T13:44:31Z</time>
      </trkpt>
      <trkpt lat="46.54737" lon="5.37091">
        <ele>212.8</ele>
        <time>2022-06-30T13:44:34Z</time>
      </trkpt>
      <trkpt lat="46.54705" lon="5.3712">
        <ele>212.4</ele>
        <time>2022-06-30T13:44:39Z</time>
      </trkpt>
      <trkpt lat="46.54667" lon="5.37155">
        <ele>212.2</ele>
        <time>2022-06-30T13:44:45Z</time>
      </trkpt>
      <trkpt lat="46.54633" lon="5.37184">
        <ele>212.4</ele>
        <time>2022-06-30T13:44:50Z</time>
      </trkpt>
      <trkpt lat="46.54599" lon="5.37216">
        <ele>212.4</ele>
        <time>2022-06-30T13:44:55Z</time>
      </trkpt>
      <trkpt lat="46.54594" lon="5.37219">
        <ele>212.4</ele>
        <time>2022-06-30T13:44:56Z</time>
      </trkpt>
      <trkpt lat="46.5457" lon="5.37227">
        <ele>212.6</ele>
        <time>2022-06-30T13:44:59Z</time>
      </trkpt>
      <trkpt lat="46.5453" lon="5.37238">
        <ele>212.6</ele>
        <time>2022-06-30T13:45:03Z</time>
      </trkpt>
      <trkpt lat="46.54522" lon="5.37242">
        <ele>212.6</ele>
        <time>2022-06-30T13:45:04Z</time>
      </trkpt>
      <trkpt lat="46.54482" lon="5.3726">
        <ele>213</ele>
        <time>2022-06-30T13:45:10Z</time>
      </trkpt>
      <trkpt lat="46.54436" lon="5.37286">
        <ele>213.2</ele>
        <time>2022-06-30T13:45:17Z</time>
      </trkpt>
      <trkpt lat="46.54423" lon="5.37297">
        <ele>213.4</ele>
        <time>2022-06-30T13:45:19Z</time>
      </trkpt>
      <trkpt lat="46.54392" lon="5.37321">
        <ele>213.8</ele>
        <time>2022-06-30T13:45:23Z</time>
      </trkpt>
      <trkpt lat="46.54356" lon="5.37347">
        <ele>214.2</ele>
        <time>2022-06-30T13:45:28Z</time>
      </trkpt>
      <trkpt lat="46.5434" lon="5.37356">
        <ele>214.2</ele>
        <time>2022-06-30T13:45:30Z</time>
      </trkpt>
      <trkpt lat="46.54319" lon="5.3737">
        <ele>214.6</ele>
        <time>2022-06-30T13:45:33Z</time>
      </trkpt>
      <trkpt lat="46.54312" lon="5.37375">
        <ele>214.6</ele>
        <time>2022-06-30T13:45:34Z</time>
      </trkpt>
      <trkpt lat="46.54285" lon="5.37403">
        <ele>215.6</ele>
        <time>2022-06-30T13:45:38Z</time>
      </trkpt>
      <trkpt lat="46.54268" lon="5.3742">
        <ele>216.2</ele>
        <time>2022-06-30T13:45:41Z</time>
      </trkpt>
      <trkpt lat="46.54247" lon="5.37437">
        <ele>216.8</ele>
        <time>2022-06-30T13:45:44Z</time>
      </trkpt>
      <trkpt lat="46.54224" lon="5.37466">
        <ele>217.4</ele>
        <time>2022-06-30T13:45:48Z</time>
      </trkpt>
      <trkpt lat="46.54212" lon="5.375">
        <ele>217.4</ele>
        <time>2022-06-30T13:45:51Z</time>
      </trkpt>
      <trkpt lat="46.54207" lon="5.3754">
        <ele>217.2</ele>
        <time>2022-06-30T13:45:54Z</time>
      </trkpt>
      <trkpt lat="46.54203" lon="5.37566">
        <ele>216.6</ele>
        <time>2022-06-30T13:45:56Z</time>
      </trkpt>
      <trkpt lat="46.54196" lon="5.3759">
        <ele>216</ele>
        <time>2022-06-30T13:45:58Z</time>
      </trkpt>
      <trkpt lat="46.54183" lon="5.37606">
        <ele>215.6</ele>
        <time>2022-06-30T13:46:00Z</time>
      </trkpt>
      <trkpt lat="46.54175" lon="5.37612">
        <ele>215.6</ele>
        <time>2022-06-30T13:46:01Z</time>
      </trkpt>
      <trkpt lat="46.54124" lon="5.37649">
        <ele>215.8</ele>
        <time>2022-06-30T13:46:09Z</time>
      </trkpt>
      <trkpt lat="46.54091" lon="5.37674">
        <ele>216.4</ele>
        <time>2022-06-30T13:46:14Z</time>
      </trkpt>
      <trkpt lat="46.54067" lon="5.37694">
        <ele>216.8</ele>
        <time>2022-06-30T13:46:18Z</time>
      </trkpt>
      <trkpt lat="46.54054" lon="5.37705">
        <ele>217.2</ele>
        <time>2022-06-30T13:46:20Z</time>
      </trkpt>
      <trkpt lat="46.54035" lon="5.37722">
        <ele>217.2</ele>
        <time>2022-06-30T13:46:23Z</time>
      </trkpt>
      <trkpt lat="46.54004" lon="5.37751">
        <ele>217.4</ele>
        <time>2022-06-30T13:46:28Z</time>
      </trkpt>
      <trkpt lat="46.53962" lon="5.37777">
        <ele>217.8</ele>
        <time>2022-06-30T13:46:34Z</time>
      </trkpt>
      <trkpt lat="46.53955" lon="5.37781">
        <ele>217.8</ele>
        <time>2022-06-30T13:46:35Z</time>
      </trkpt>
      <trkpt lat="46.5392" lon="5.37798">
        <ele>218.2</ele>
        <time>2022-06-30T13:46:40Z</time>
      </trkpt>
      <trkpt lat="46.5389" lon="5.37828">
        <ele>218.4</ele>
        <time>2022-06-30T13:46:45Z</time>
      </trkpt>
      <trkpt lat="46.53868" lon="5.37868">
        <ele>219</ele>
        <time>2022-06-30T13:46:50Z</time>
      </trkpt>
      <trkpt lat="46.53863" lon="5.37875">
        <ele>219.2</ele>
        <time>2022-06-30T13:46:51Z</time>
      </trkpt>
      <trkpt lat="46.53846" lon="5.37903">
        <ele>220</ele>
        <time>2022-06-30T13:46:55Z</time>
      </trkpt>
      <trkpt lat="46.53836" lon="5.37915">
        <ele>220.4</ele>
        <time>2022-06-30T13:46:57Z</time>
      </trkpt>
      <trkpt lat="46.53825" lon="5.37925">
        <ele>221</ele>
        <time>2022-06-30T13:46:59Z</time>
      </trkpt>
      <trkpt lat="46.53819" lon="5.37929">
        <ele>221.2</ele>
        <time>2022-06-30T13:47:00Z</time>
      </trkpt>
      <trkpt lat="46.53806" lon="5.37935">
        <ele>221.8</ele>
        <time>2022-06-30T13:47:02Z</time>
      </trkpt>
      <trkpt lat="46.5378" lon="5.37946">
        <ele>222.4</ele>
        <time>2022-06-30T13:47:06Z</time>
      </trkpt>
      <trkpt lat="46.53756" lon="5.37959">
        <ele>222.8</ele>
        <time>2022-06-30T13:47:10Z</time>
      </trkpt>
      <trkpt lat="46.53739" lon="5.37968">
        <ele>223.4</ele>
        <time>2022-06-30T13:47:13Z</time>
      </trkpt>
      <trkpt lat="46.53707" lon="5.37987">
        <ele>224.2</ele>
        <time>2022-06-30T13:47:19Z</time>
      </trkpt>
      <trkpt lat="46.53689" lon="5.38001">
        <ele>225.6</ele>
        <time>2022-06-30T13:47:23Z</time>
      </trkpt>
      <trkpt lat="46.53681" lon="5.3801">
        <ele>226.2</ele>
        <time>2022-06-30T13:47:25Z</time>
      </trkpt>
      <trkpt lat="46.53678" lon="5.38015">
        <ele>226.8</ele>
        <time>2022-06-30T13:47:26Z</time>
      </trkpt>
      <trkpt lat="46.53669" lon="5.38032">
        <ele>227.6</ele>
        <time>2022-06-30T13:47:29Z</time>
      </trkpt>
      <trkpt lat="46.53667" lon="5.38038">
        <ele>228</ele>
        <time>2022-06-30T13:47:30Z</time>
      </trkpt>
      <trkpt lat="46.53661" lon="5.38057">
        <ele>229.4</ele>
        <time>2022-06-30T13:47:33Z</time>
      </trkpt>
      <trkpt lat="46.53657" lon="5.3807">
        <ele>230.2</ele>
        <time>2022-06-30T13:47:35Z</time>
      </trkpt>
      <trkpt lat="46.53654" lon="5.38084">
        <ele>230.8</ele>
        <time>2022-06-30T13:47:37Z</time>
      </trkpt>
      <trkpt lat="46.53649" lon="5.38115">
        <ele>231.8</ele>
        <time>2022-06-30T13:47:41Z</time>
      </trkpt>
      <trkpt lat="46.53642" lon="5.38137">
        <ele>232.8</ele>
        <time>2022-06-30T13:47:44Z</time>
      </trkpt>
      <trkpt lat="46.53637" lon="5.3815">
        <ele>233</ele>
        <time>2022-06-30T13:47:46Z</time>
      </trkpt>
      <trkpt lat="46.5362" lon="5.38186">
        <ele>234.4</ele>
        <time>2022-06-30T13:47:51Z</time>
      </trkpt>
      <trkpt lat="46.53613" lon="5.382">
        <ele>234.6</ele>
        <time>2022-06-30T13:47:53Z</time>
      </trkpt>
      <trkpt lat="46.53595" lon="5.3824">
        <ele>235.4</ele>
        <time>2022-06-30T13:47:58Z</time>
      </trkpt>
      <trkpt lat="46.53586" lon="5.38257">
        <ele>235.6</ele>
        <time>2022-06-30T13:48:00Z</time>
      </trkpt>
      <trkpt lat="46.5356" lon="5.38309">
        <ele>235.8</ele>
        <time>2022-06-30T13:48:06Z</time>
      </trkpt>
      <trkpt lat="46.53532" lon="5.3836">
        <ele>236</ele>
        <time>2022-06-30T13:48:12Z</time>
      </trkpt>
      <trkpt lat="46.53527" lon="5.38367">
        <ele>236</ele>
        <time>2022-06-30T13:48:13Z</time>
      </trkpt>
      <trkpt lat="46.53502" lon="5.38392">
        <ele>236</ele>
        <time>2022-06-30T13:48:17Z</time>
      </trkpt>
      <trkpt lat="46.53464" lon="5.38429">
        <ele>236</ele>
        <time>2022-06-30T13:48:23Z</time>
      </trkpt>
      <trkpt lat="46.53459" lon="5.38434">
        <ele>235.8</ele>
        <time>2022-06-30T13:48:24Z</time>
      </trkpt>
      <trkpt lat="46.53453" lon="5.38441">
        <ele>235.8</ele>
        <time>2022-06-30T13:48:26Z</time>
      </trkpt>
      <trkpt lat="46.5345" lon="5.38451">
        <ele>235.6</ele>
        <time>2022-06-30T13:48:28Z</time>
      </trkpt>
      <trkpt lat="46.5345" lon="5.38459">
        <ele>235.6</ele>
        <time>2022-06-30T13:48:29Z</time>
      </trkpt>
      <trkpt lat="46.53453" lon="5.38497">
        <ele>235.4</ele>
        <time>2022-06-30T13:48:33Z</time>
      </trkpt>
      <trkpt lat="46.53459" lon="5.38563">
        <ele>235.6</ele>
        <time>2022-06-30T13:48:39Z</time>
      </trkpt>
      <trkpt lat="46.53465" lon="5.38624">
        <ele>236.2</ele>
        <time>2022-06-30T13:48:45Z</time>
      </trkpt>
      <trkpt lat="46.53469" lon="5.38661">
        <ele>236.4</ele>
        <time>2022-06-30T13:48:49Z</time>
      </trkpt>
      <trkpt lat="46.53471" lon="5.38678">
        <ele>236.8</ele>
        <time>2022-06-30T13:48:51Z</time>
      </trkpt>
      <trkpt lat="46.53473" lon="5.38695">
        <ele>237.2</ele>
        <time>2022-06-30T13:48:53Z</time>
      </trkpt>
      <trkpt lat="46.53474" lon="5.38703">
        <ele>237.4</ele>
        <time>2022-06-30T13:48:54Z</time>
      </trkpt>
      <trkpt lat="46.53473" lon="5.38711">
        <ele>237.6</ele>
        <time>2022-06-30T13:48:55Z</time>
      </trkpt>
      <trkpt lat="46.53465" lon="5.3872">
        <ele>237.8</ele>
        <time>2022-06-30T13:48:58Z</time>
      </trkpt>
      <trkpt lat="46.53455" lon="5.38717">
        <ele>238</ele>
        <time>2022-06-30T13:49:00Z</time>
      </trkpt>
      <trkpt lat="46.53447" lon="5.38714">
        <ele>238</ele>
        <time>2022-06-30T13:49:01Z</time>
      </trkpt>
      <trkpt lat="46.53422" lon="5.38708">
        <ele>238.2</ele>
        <time>2022-06-30T13:49:04Z</time>
      </trkpt>
      <trkpt lat="46.53397" lon="5.38705">
        <ele>238.2</ele>
        <time>2022-06-30T13:49:07Z</time>
      </trkpt>
      <trkpt lat="46.53353" lon="5.38701">
        <ele>238.4</ele>
        <time>2022-06-30T13:49:12Z</time>
      </trkpt>
      <trkpt lat="46.53344" lon="5.387">
        <ele>238.4</ele>
        <time>2022-06-30T13:49:13Z</time>
      </trkpt>
      <trkpt lat="46.53307" lon="5.3869">
        <ele>238.2</ele>
        <time>2022-06-30T13:49:17Z</time>
      </trkpt>
      <trkpt lat="46.53252" lon="5.38669">
        <ele>238</ele>
        <time>2022-06-30T13:49:23Z</time>
      </trkpt>
      <trkpt lat="46.53243" lon="5.38665">
        <ele>238</ele>
        <time>2022-06-30T13:49:24Z</time>
      </trkpt>
      <trkpt lat="46.53217" lon="5.38653">
        <ele>237.8</ele>
        <time>2022-06-30T13:49:27Z</time>
      </trkpt>
      <trkpt lat="46.532" lon="5.38641">
        <ele>237.4</ele>
        <time>2022-06-30T13:49:29Z</time>
      </trkpt>
      <trkpt lat="46.53185" lon="5.38624">
        <ele>237</ele>
        <time>2022-06-30T13:49:31Z</time>
      </trkpt>
      <trkpt lat="46.53169" lon="5.38607">
        <ele>236.2</ele>
        <time>2022-06-30T13:49:33Z</time>
      </trkpt>
      <trkpt lat="46.5316" lon="5.386">
        <ele>235.8</ele>
        <time>2022-06-30T13:49:34Z</time>
      </trkpt>
      <trkpt lat="46.53143" lon="5.38589">
        <ele>234.4</ele>
        <time>2022-06-30T13:49:36Z</time>
      </trkpt>
      <trkpt lat="46.53135" lon="5.38585">
        <ele>234.2</ele>
        <time>2022-06-30T13:49:37Z</time>
      </trkpt>
      <trkpt lat="46.53122" lon="5.38578">
        <ele>233.2</ele>
        <time>2022-06-30T13:49:39Z</time>
      </trkpt>
      <trkpt lat="46.53115" lon="5.38578">
        <ele>232.6</ele>
        <time>2022-06-30T13:49:40Z</time>
      </trkpt>
      <trkpt lat="46.53108" lon="5.3858">
        <ele>232.4</ele>
        <time>2022-06-30T13:49:41Z</time>
      </trkpt>
      <trkpt lat="46.53102" lon="5.38582">
        <ele>231.8</ele>
        <time>2022-06-30T13:49:42Z</time>
      </trkpt>
      <trkpt lat="46.53084" lon="5.38588">
        <ele>231.2</ele>
        <time>2022-06-30T13:49:44Z</time>
      </trkpt>
      <trkpt lat="46.53076" lon="5.3859">
        <ele>230.8</ele>
        <time>2022-06-30T13:49:45Z</time>
      </trkpt>
      <trkpt lat="46.53032" lon="5.38601">
        <ele>229.4</ele>
        <time>2022-06-30T13:49:50Z</time>
      </trkpt>
      <trkpt lat="46.52995" lon="5.38605">
        <ele>228.6</ele>
        <time>2022-06-30T13:49:54Z</time>
      </trkpt>
      <trkpt lat="46.52985" lon="5.38604">
        <ele>228.4</ele>
        <time>2022-06-30T13:49:55Z</time>
      </trkpt>
      <trkpt lat="46.52976" lon="5.38602">
        <ele>228.4</ele>
        <time>2022-06-30T13:49:56Z</time>
      </trkpt>
      <trkpt lat="46.52947" lon="5.386">
        <ele>228</ele>
        <time>2022-06-30T13:49:59Z</time>
      </trkpt>
      <trkpt lat="46.52938" lon="5.38601">
        <ele>227.8</ele>
        <time>2022-06-30T13:50:00Z</time>
      </trkpt>
      <trkpt lat="46.5293" lon="5.38601">
        <ele>227.4</ele>
        <time>2022-06-30T13:50:01Z</time>
      </trkpt>
      <trkpt lat="46.52914" lon="5.386">
        <ele>226.8</ele>
        <time>2022-06-30T13:50:03Z</time>
      </trkpt>
      <trkpt lat="46.52897" lon="5.38604">
        <ele>226</ele>
        <time>2022-06-30T13:50:05Z</time>
      </trkpt>
      <trkpt lat="46.52888" lon="5.38604">
        <ele>225.2</ele>
        <time>2022-06-30T13:50:06Z</time>
      </trkpt>
      <trkpt lat="46.52879" lon="5.38603">
        <ele>224.8</ele>
        <time>2022-06-30T13:50:07Z</time>
      </trkpt>
      <trkpt lat="46.5286" lon="5.386">
        <ele>224</ele>
        <time>2022-06-30T13:50:09Z</time>
      </trkpt>
      <trkpt lat="46.52841" lon="5.38595">
        <ele>223</ele>
        <time>2022-06-30T13:50:11Z</time>
      </trkpt>
      <trkpt lat="46.52832" lon="5.38593">
        <ele>222.8</ele>
        <time>2022-06-30T13:50:12Z</time>
      </trkpt>
      <trkpt lat="46.52813" lon="5.38585">
        <ele>222</ele>
        <time>2022-06-30T13:50:14Z</time>
      </trkpt>
      <trkpt lat="46.52807" lon="5.38579">
        <ele>221.6</ele>
        <time>2022-06-30T13:50:15Z</time>
      </trkpt>
      <trkpt lat="46.52798" lon="5.38569">
        <ele>221.4</ele>
        <time>2022-06-30T13:50:16Z</time>
      </trkpt>
      <trkpt lat="46.52786" lon="5.38549">
        <ele>220.6</ele>
        <time>2022-06-30T13:50:18Z</time>
      </trkpt>
      <trkpt lat="46.52776" lon="5.3853">
        <ele>220.6</ele>
        <time>2022-06-30T13:50:20Z</time>
      </trkpt>
      <trkpt lat="46.52763" lon="5.38521">
        <ele>220.4</ele>
        <time>2022-06-30T13:50:22Z</time>
      </trkpt>
      <trkpt lat="46.52756" lon="5.38522">
        <ele>220.4</ele>
        <time>2022-06-30T13:50:23Z</time>
      </trkpt>
      <trkpt lat="46.52742" lon="5.38526">
        <ele>220.4</ele>
        <time>2022-06-30T13:50:25Z</time>
      </trkpt>
      <trkpt lat="46.52727" lon="5.38525">
        <ele>220.6</ele>
        <time>2022-06-30T13:50:27Z</time>
      </trkpt>
      <trkpt lat="46.52683" lon="5.38509">
        <ele>221.2</ele>
        <time>2022-06-30T13:50:33Z</time>
      </trkpt>
      <trkpt lat="46.52675" lon="5.38508">
        <ele>221.6</ele>
        <time>2022-06-30T13:50:34Z</time>
      </trkpt>
      <trkpt lat="46.52622" lon="5.385">
        <ele>222.2</ele>
        <time>2022-06-30T13:50:41Z</time>
      </trkpt>
      <trkpt lat="46.52569" lon="5.38487">
        <ele>222.2</ele>
        <time>2022-06-30T13:50:48Z</time>
      </trkpt>
      <trkpt lat="46.52556" lon="5.38479">
        <ele>222.4</ele>
        <time>2022-06-30T13:50:50Z</time>
      </trkpt>
      <trkpt lat="46.52549" lon="5.38475">
        <ele>222.4</ele>
        <time>2022-06-30T13:50:51Z</time>
      </trkpt>
      <trkpt lat="46.52537" lon="5.38461">
        <ele>222.8</ele>
        <time>2022-06-30T13:50:53Z</time>
      </trkpt>
      <trkpt lat="46.52529" lon="5.38444">
        <ele>223</ele>
        <time>2022-06-30T13:50:55Z</time>
      </trkpt>
      <trkpt lat="46.52526" lon="5.38434">
        <ele>223.2</ele>
        <time>2022-06-30T13:50:56Z</time>
      </trkpt>
      <trkpt lat="46.52525" lon="5.38424">
        <ele>223.4</ele>
        <time>2022-06-30T13:50:57Z</time>
      </trkpt>
      <trkpt lat="46.52524" lon="5.38414">
        <ele>223.4</ele>
        <time>2022-06-30T13:50:58Z</time>
      </trkpt>
      <trkpt lat="46.52524" lon="5.38404">
        <ele>223.6</ele>
        <time>2022-06-30T13:50:59Z</time>
      </trkpt>
      <trkpt lat="46.52525" lon="5.38395">
        <ele>223.8</ele>
        <time>2022-06-30T13:51:00Z</time>
      </trkpt>
      <trkpt lat="46.52525" lon="5.38363">
        <ele>224.2</ele>
        <time>2022-06-30T13:51:03Z</time>
      </trkpt>
      <trkpt lat="46.52523" lon="5.3834">
        <ele>224</ele>
        <time>2022-06-30T13:51:05Z</time>
      </trkpt>
      <trkpt lat="46.52514" lon="5.38277">
        <ele>223.8</ele>
        <time>2022-06-30T13:51:10Z</time>
      </trkpt>
      <trkpt lat="46.52514" lon="5.38263">
        <ele>223.2</ele>
        <time>2022-06-30T13:51:11Z</time>
      </trkpt>
      <trkpt lat="46.52515" lon="5.38249">
        <ele>222.8</ele>
        <time>2022-06-30T13:51:12Z</time>
      </trkpt>
      <trkpt lat="46.52517" lon="5.38236">
        <ele>222.2</ele>
        <time>2022-06-30T13:51:13Z</time>
      </trkpt>
      <trkpt lat="46.52522" lon="5.38211">
        <ele>221.6</ele>
        <time>2022-06-30T13:51:15Z</time>
      </trkpt>
      <trkpt lat="46.52528" lon="5.38186">
        <ele>221.2</ele>
        <time>2022-06-30T13:51:17Z</time>
      </trkpt>
      <trkpt lat="46.5254" lon="5.38139">
        <ele>220</ele>
        <time>2022-06-30T13:51:21Z</time>
      </trkpt>
      <trkpt lat="46.52542" lon="5.38128">
        <ele>219.8</ele>
        <time>2022-06-30T13:51:22Z</time>
      </trkpt>
      <trkpt lat="46.52546" lon="5.38068">
        <ele>219</ele>
        <time>2022-06-30T13:51:27Z</time>
      </trkpt>
      <trkpt lat="46.52539" lon="5.38009">
        <ele>218.4</ele>
        <time>2022-06-30T13:51:32Z</time>
      </trkpt>
      <trkpt lat="46.52527" lon="5.37966">
        <ele>218</ele>
        <time>2022-06-30T13:51:36Z</time>
      </trkpt>
      <trkpt lat="46.52523" lon="5.37943">
        <ele>217.4</ele>
        <time>2022-06-30T13:51:38Z</time>
      </trkpt>
      <trkpt lat="46.52522" lon="5.37918">
        <ele>217.4</ele>
        <time>2022-06-30T13:51:40Z</time>
      </trkpt>
      <trkpt lat="46.52524" lon="5.37894">
        <ele>217.2</ele>
        <time>2022-06-30T13:51:42Z</time>
      </trkpt>
      <trkpt lat="46.52524" lon="5.37882">
        <ele>217</ele>
        <time>2022-06-30T13:51:43Z</time>
      </trkpt>
      <trkpt lat="46.52528" lon="5.37799">
        <ele>216.6</ele>
        <time>2022-06-30T13:51:50Z</time>
      </trkpt>
      <trkpt lat="46.52529" lon="5.37788">
        <ele>216.6</ele>
        <time>2022-06-30T13:51:51Z</time>
      </trkpt>
      <trkpt lat="46.52533" lon="5.37709">
        <ele>216</ele>
        <time>2022-06-30T13:51:58Z</time>
      </trkpt>
      <trkpt lat="46.52534" lon="5.37698">
        <ele>216</ele>
        <time>2022-06-30T13:51:59Z</time>
      </trkpt>
      <trkpt lat="46.52534" lon="5.37687">
        <ele>215.8</ele>
        <time>2022-06-30T13:52:00Z</time>
      </trkpt>
      <trkpt lat="46.52541" lon="5.37599">
        <ele>215.4</ele>
        <time>2022-06-30T13:52:08Z</time>
      </trkpt>
      <trkpt lat="46.52542" lon="5.37588">
        <ele>215.4</ele>
        <time>2022-06-30T13:52:09Z</time>
      </trkpt>
      <trkpt lat="46.52548" lon="5.37532">
        <ele>214.8</ele>
        <time>2022-06-30T13:52:14Z</time>
      </trkpt>
      <trkpt lat="46.52551" lon="5.37499">
        <ele>214.8</ele>
        <time>2022-06-30T13:52:17Z</time>
      </trkpt>
      <trkpt lat="46.52558" lon="5.37418">
        <ele>214.4</ele>
        <time>2022-06-30T13:52:24Z</time>
      </trkpt>
      <trkpt lat="46.5256" lon="5.37381">
        <ele>214.4</ele>
        <time>2022-06-30T13:52:27Z</time>
      </trkpt>
      <trkpt lat="46.52562" lon="5.37319">
        <ele>214.4</ele>
        <time>2022-06-30T13:52:32Z</time>
      </trkpt>
      <trkpt lat="46.52557" lon="5.3726">
        <ele>213.8</ele>
        <time>2022-06-30T13:52:37Z</time>
      </trkpt>
      <trkpt lat="46.52543" lon="5.37218">
        <ele>213.6</ele>
        <time>2022-06-30T13:52:41Z</time>
      </trkpt>
      <trkpt lat="46.52534" lon="5.372">
        <ele>213.6</ele>
        <time>2022-06-30T13:52:43Z</time>
      </trkpt>
      <trkpt lat="46.52515" lon="5.37175">
        <ele>213.4</ele>
        <time>2022-06-30T13:52:46Z</time>
      </trkpt>
      <trkpt lat="46.52475" lon="5.37129">
        <ele>213</ele>
        <time>2022-06-30T13:52:52Z</time>
      </trkpt>
      <trkpt lat="46.52464" lon="5.37112">
        <ele>212.8</ele>
        <time>2022-06-30T13:52:54Z</time>
      </trkpt>
      <trkpt lat="46.52444" lon="5.37062">
        <ele>212.8</ele>
        <time>2022-06-30T13:52:59Z</time>
      </trkpt>
      <trkpt lat="46.52437" lon="5.37031">
        <ele>212.6</ele>
        <time>2022-06-30T13:53:02Z</time>
      </trkpt>
      <trkpt lat="46.52434" lon="5.37023">
        <ele>212.6</ele>
        <time>2022-06-30T13:53:03Z</time>
      </trkpt>
      <trkpt lat="46.52431" lon="5.37015">
        <ele>212.6</ele>
        <time>2022-06-30T13:53:04Z</time>
      </trkpt>
      <trkpt lat="46.52427" lon="5.3701">
        <ele>212.6</ele>
        <time>2022-06-30T13:53:05Z</time>
      </trkpt>
      <trkpt lat="46.52422" lon="5.37007">
        <ele>212.6</ele>
        <time>2022-06-30T13:53:06Z</time>
      </trkpt>
      <trkpt lat="46.52415" lon="5.37006">
        <ele>212.6</ele>
        <time>2022-06-30T13:53:07Z</time>
      </trkpt>
      <trkpt lat="46.52404" lon="5.37019">
        <ele>212.6</ele>
        <time>2022-06-30T13:53:09Z</time>
      </trkpt>
      <trkpt lat="46.52394" lon="5.37042">
        <ele>212.2</ele>
        <time>2022-06-30T13:53:11Z</time>
      </trkpt>
      <trkpt lat="46.52389" lon="5.37053">
        <ele>212</ele>
        <time>2022-06-30T13:53:12Z</time>
      </trkpt>
      <trkpt lat="46.52383" lon="5.37064">
        <ele>212</ele>
        <time>2022-06-30T13:53:13Z</time>
      </trkpt>
      <trkpt lat="46.52359" lon="5.37096">
        <ele>212</ele>
        <time>2022-06-30T13:53:17Z</time>
      </trkpt>
      <trkpt lat="46.52312" lon="5.37152">
        <ele>213.4</ele>
        <time>2022-06-30T13:53:25Z</time>
      </trkpt>
      <trkpt lat="46.52307" lon="5.37158">
        <ele>214.2</ele>
        <time>2022-06-30T13:53:26Z</time>
      </trkpt>
      <trkpt lat="46.52287" lon="5.3718">
        <ele>215.6</ele>
        <time>2022-06-30T13:53:30Z</time>
      </trkpt>
      <trkpt lat="46.52273" lon="5.37196">
        <ele>216.6</ele>
        <time>2022-06-30T13:53:33Z</time>
      </trkpt>
      <trkpt lat="46.52249" lon="5.37221">
        <ele>217.6</ele>
        <time>2022-06-30T13:53:38Z</time>
      </trkpt>
      <trkpt lat="46.52244" lon="5.37226">
        <ele>218</ele>
        <time>2022-06-30T13:53:39Z</time>
      </trkpt>
      <trkpt lat="46.5223" lon="5.3724">
        <ele>219.2</ele>
        <time>2022-06-30T13:53:42Z</time>
      </trkpt>
      <trkpt lat="46.5221" lon="5.37256">
        <ele>220</ele>
        <time>2022-06-30T13:53:46Z</time>
      </trkpt>
      <trkpt lat="46.52195" lon="5.37267">
        <ele>220.2</ele>
        <time>2022-06-30T13:53:49Z</time>
      </trkpt>
      <trkpt lat="46.52176" lon="5.37282">
        <ele>221.4</ele>
        <time>2022-06-30T13:53:53Z</time>
      </trkpt>
      <trkpt lat="46.52157" lon="5.37296">
        <ele>222</ele>
        <time>2022-06-30T13:53:57Z</time>
      </trkpt>
      <trkpt lat="46.52143" lon="5.37305">
        <ele>222.6</ele>
        <time>2022-06-30T13:54:00Z</time>
      </trkpt>
      <trkpt lat="46.52126" lon="5.37318">
        <ele>223.8</ele>
        <time>2022-06-30T13:54:04Z</time>
      </trkpt>
      <trkpt lat="46.52122" lon="5.37321">
        <ele>224.4</ele>
        <time>2022-06-30T13:54:05Z</time>
      </trkpt>
      <trkpt lat="46.52113" lon="5.37327">
        <ele>225.2</ele>
        <time>2022-06-30T13:54:07Z</time>
      </trkpt>
      <trkpt lat="46.521" lon="5.37336">
        <ele>226.2</ele>
        <time>2022-06-30T13:54:10Z</time>
      </trkpt>
      <trkpt lat="46.52096" lon="5.3734">
        <ele>226.4</ele>
        <time>2022-06-30T13:54:11Z</time>
      </trkpt>
      <trkpt lat="46.52092" lon="5.37344">
        <ele>226.6</ele>
        <time>2022-06-30T13:54:12Z</time>
      </trkpt>
      <trkpt lat="46.52089" lon="5.37349">
        <ele>226.8</ele>
        <time>2022-06-30T13:54:13Z</time>
      </trkpt>
      <trkpt lat="46.52085" lon="5.37354">
        <ele>226.8</ele>
        <time>2022-06-30T13:54:14Z</time>
      </trkpt>
      <trkpt lat="46.5208" lon="5.37367">
        <ele>227.2</ele>
        <time>2022-06-30T13:54:16Z</time>
      </trkpt>
      <trkpt lat="46.52078" lon="5.37375">
        <ele>227.6</ele>
        <time>2022-06-30T13:54:17Z</time>
      </trkpt>
      <trkpt lat="46.52076" lon="5.37383">
        <ele>227.6</ele>
        <time>2022-06-30T13:54:18Z</time>
      </trkpt>
      <trkpt lat="46.52065" lon="5.37427">
        <ele>229</ele>
        <time>2022-06-30T13:54:23Z</time>
      </trkpt>
      <trkpt lat="46.52063" lon="5.37437">
        <ele>229.6</ele>
        <time>2022-06-30T13:54:24Z</time>
      </trkpt>
      <trkpt lat="46.52057" lon="5.37467">
        <ele>230</ele>
        <time>2022-06-30T13:54:27Z</time>
      </trkpt>
      <trkpt lat="46.5205" lon="5.375">
        <ele>230.2</ele>
        <time>2022-06-30T13:54:30Z</time>
      </trkpt>
      <trkpt lat="46.52035" lon="5.37567">
        <ele>229.8</ele>
        <time>2022-06-30T13:54:36Z</time>
      </trkpt>
      <trkpt lat="46.52026" lon="5.3761">
        <ele>229.8</ele>
        <time>2022-06-30T13:54:40Z</time>
      </trkpt>
      <trkpt lat="46.52017" lon="5.37625">
        <ele>229.8</ele>
        <time>2022-06-30T13:54:42Z</time>
      </trkpt>
      <trkpt lat="46.52005" lon="5.37632">
        <ele>230</ele>
        <time>2022-06-30T13:54:44Z</time>
      </trkpt>
      <trkpt lat="46.51998" lon="5.37633">
        <ele>230</ele>
        <time>2022-06-30T13:54:45Z</time>
      </trkpt>
      <trkpt lat="46.51947" lon="5.37639">
        <ele>230.2</ele>
        <time>2022-06-30T13:54:51Z</time>
      </trkpt>
      <trkpt lat="46.51895" lon="5.37646">
        <ele>230.6</ele>
        <time>2022-06-30T13:54:57Z</time>
      </trkpt>
      <trkpt lat="46.51852" lon="5.37646">
        <ele>231.2</ele>
        <time>2022-06-30T13:55:02Z</time>
      </trkpt>
      <trkpt lat="46.51835" lon="5.37646">
        <ele>231.2</ele>
        <time>2022-06-30T13:55:04Z</time>
      </trkpt>
      <trkpt lat="46.5178" lon="5.37645">
        <ele>231.2</ele>
        <time>2022-06-30T13:55:10Z</time>
      </trkpt>
      <trkpt lat="46.51733" lon="5.37632">
        <ele>230</ele>
        <time>2022-06-30T13:55:15Z</time>
      </trkpt>
      <trkpt lat="46.51713" lon="5.37627">
        <ele>229.6</ele>
        <time>2022-06-30T13:55:17Z</time>
      </trkpt>
      <trkpt lat="46.51704" lon="5.37627">
        <ele>229.4</ele>
        <time>2022-06-30T13:55:18Z</time>
      </trkpt>
      <trkpt lat="46.51684" lon="5.37635">
        <ele>229</ele>
        <time>2022-06-30T13:55:20Z</time>
      </trkpt>
      <trkpt lat="46.51659" lon="5.37655">
        <ele>228.4</ele>
        <time>2022-06-30T13:55:23Z</time>
      </trkpt>
      <trkpt lat="46.5164" lon="5.37664">
        <ele>227.8</ele>
        <time>2022-06-30T13:55:25Z</time>
      </trkpt>
      <trkpt lat="46.51632" lon="5.37667">
        <ele>227.8</ele>
        <time>2022-06-30T13:55:26Z</time>
      </trkpt>
      <trkpt lat="46.51597" lon="5.37678">
        <ele>227.4</ele>
        <time>2022-06-30T13:55:30Z</time>
      </trkpt>
      <trkpt lat="46.51556" lon="5.37684">
        <ele>227.8</ele>
        <time>2022-06-30T13:55:35Z</time>
      </trkpt>
      <trkpt lat="46.51509" lon="5.37694">
        <ele>228.6</ele>
        <time>2022-06-30T13:55:41Z</time>
      </trkpt>
      <trkpt lat="46.51501" lon="5.37696">
        <ele>228.8</ele>
        <time>2022-06-30T13:55:42Z</time>
      </trkpt>
      <trkpt lat="46.51449" lon="5.37707">
        <ele>230</ele>
        <time>2022-06-30T13:55:49Z</time>
      </trkpt>
      <trkpt lat="46.51414" lon="5.37718">
        <ele>231.2</ele>
        <time>2022-06-30T13:55:54Z</time>
      </trkpt>
      <trkpt lat="46.51393" lon="5.37725">
        <ele>231.6</ele>
        <time>2022-06-30T13:55:57Z</time>
      </trkpt>
      <trkpt lat="46.51365" lon="5.37739">
        <ele>232.4</ele>
        <time>2022-06-30T13:56:01Z</time>
      </trkpt>
      <trkpt lat="46.51331" lon="5.37755">
        <ele>233</ele>
        <time>2022-06-30T13:56:06Z</time>
      </trkpt>
      <trkpt lat="46.51318" lon="5.37762">
        <ele>233.4</ele>
        <time>2022-06-30T13:56:08Z</time>
      </trkpt>
      <trkpt lat="46.51265" lon="5.37789">
        <ele>234.4</ele>
        <time>2022-06-30T13:56:16Z</time>
      </trkpt>
      <trkpt lat="46.51237" lon="5.37799">
        <ele>235.2</ele>
        <time>2022-06-30T13:56:20Z</time>
      </trkpt>
      <trkpt lat="46.51223" lon="5.37801">
        <ele>235.4</ele>
        <time>2022-06-30T13:56:22Z</time>
      </trkpt>
      <trkpt lat="46.51215" lon="5.37802">
        <ele>235.6</ele>
        <time>2022-06-30T13:56:23Z</time>
      </trkpt>
      <trkpt lat="46.51173" lon="5.37812">
        <ele>236.8</ele>
        <time>2022-06-30T13:56:29Z</time>
      </trkpt>
      <trkpt lat="46.51166" lon="5.37815">
        <ele>237</ele>
        <time>2022-06-30T13:56:30Z</time>
      </trkpt>
      <trkpt lat="46.51142" lon="5.37834">
        <ele>238</ele>
        <time>2022-06-30T13:56:34Z</time>
      </trkpt>
      <trkpt lat="46.51097" lon="5.37862">
        <ele>238.6</ele>
        <time>2022-06-30T13:56:41Z</time>
      </trkpt>
      <trkpt lat="46.51077" lon="5.37868">
        <ele>239</ele>
        <time>2022-06-30T13:56:44Z</time>
      </trkpt>
      <trkpt lat="46.51056" lon="5.3787">
        <ele>239.4</ele>
        <time>2022-06-30T13:56:47Z</time>
      </trkpt>
      <trkpt lat="46.51036" lon="5.37872">
        <ele>240</ele>
        <time>2022-06-30T13:56:50Z</time>
      </trkpt>
      <trkpt lat="46.5101" lon="5.37876">
        <ele>241.2</ele>
        <time>2022-06-30T13:56:54Z</time>
      </trkpt>
      <trkpt lat="46.50997" lon="5.37878">
        <ele>241.4</ele>
        <time>2022-06-30T13:56:56Z</time>
      </trkpt>
      <trkpt lat="46.50969" lon="5.37883">
        <ele>242.2</ele>
        <time>2022-06-30T13:57:00Z</time>
      </trkpt>
      <trkpt lat="46.50934" lon="5.37894">
        <ele>242.8</ele>
        <time>2022-06-30T13:57:05Z</time>
      </trkpt>
      <trkpt lat="46.5091" lon="5.379">
        <ele>243.2</ele>
        <time>2022-06-30T13:57:08Z</time>
      </trkpt>
      <trkpt lat="46.50894" lon="5.37901">
        <ele>243.4</ele>
        <time>2022-06-30T13:57:10Z</time>
      </trkpt>
      <trkpt lat="46.50835" lon="5.37897">
        <ele>243.2</ele>
        <time>2022-06-30T13:57:17Z</time>
      </trkpt>
      <trkpt lat="46.50819" lon="5.37891">
        <ele>243.2</ele>
        <time>2022-06-30T13:57:19Z</time>
      </trkpt>
      <trkpt lat="46.50804" lon="5.3788">
        <ele>243.2</ele>
        <time>2022-06-30T13:57:21Z</time>
      </trkpt>
      <trkpt lat="46.50773" lon="5.37838">
        <ele>243.4</ele>
        <time>2022-06-30T13:57:26Z</time>
      </trkpt>
      <trkpt lat="46.50754" lon="5.37797">
        <ele>243.4</ele>
        <time>2022-06-30T13:57:30Z</time>
      </trkpt>
      <trkpt lat="46.50746" lon="5.37773">
        <ele>243.2</ele>
        <time>2022-06-30T13:57:32Z</time>
      </trkpt>
      <trkpt lat="46.50742" lon="5.37748">
        <ele>243</ele>
        <time>2022-06-30T13:57:34Z</time>
      </trkpt>
      <trkpt lat="46.50738" lon="5.37709">
        <ele>242.2</ele>
        <time>2022-06-30T13:57:37Z</time>
      </trkpt>
      <trkpt lat="46.50736" lon="5.37668">
        <ele>241.4</ele>
        <time>2022-06-30T13:57:40Z</time>
      </trkpt>
      <trkpt lat="46.50732" lon="5.37625">
        <ele>241.2</ele>
        <time>2022-06-30T13:57:43Z</time>
      </trkpt>
      <trkpt lat="46.50729" lon="5.37612">
        <ele>240.8</ele>
        <time>2022-06-30T13:57:44Z</time>
      </trkpt>
      <trkpt lat="46.50724" lon="5.376">
        <ele>240.4</ele>
        <time>2022-06-30T13:57:45Z</time>
      </trkpt>
      <trkpt lat="46.50713" lon="5.37582">
        <ele>239.8</ele>
        <time>2022-06-30T13:57:47Z</time>
      </trkpt>
      <trkpt lat="46.50708" lon="5.37576">
        <ele>239.4</ele>
        <time>2022-06-30T13:57:48Z</time>
      </trkpt>
      <trkpt lat="46.507" lon="5.37567">
        <ele>238.2</ele>
        <time>2022-06-30T13:57:50Z</time>
      </trkpt>
      <trkpt lat="46.50697" lon="5.3756">
        <ele>237</ele>
        <time>2022-06-30T13:57:52Z</time>
      </trkpt>
      <trkpt lat="46.50696" lon="5.37558">
        <ele>236.6</ele>
        <time>2022-06-30T13:57:53Z</time>
      </trkpt>
      <trkpt lat="46.50696" lon="5.37554">
        <ele>235.6</ele>
        <time>2022-06-30T13:57:55Z</time>
      </trkpt>
      <trkpt lat="46.50699" lon="5.37548">
        <ele>235</ele>
        <time>2022-06-30T13:57:58Z</time>
      </trkpt>
      <trkpt lat="46.50697" lon="5.37546">
        <ele>234.8</ele>
        <time>2022-06-30T13:58:01Z</time>
      </trkpt>
      <trkpt lat="46.50688" lon="5.37562">
        <ele>234.8</ele>
        <time>2022-06-30T13:58:04Z</time>
      </trkpt>
      <trkpt lat="46.50684" lon="5.37568">
        <ele>234.8</ele>
        <time>2022-06-30T13:58:05Z</time>
      </trkpt>
      <trkpt lat="46.50669" lon="5.3759">
        <ele>234.8</ele>
        <time>2022-06-30T13:58:08Z</time>
      </trkpt>
      <trkpt lat="46.50637" lon="5.37641">
        <ele>235.2</ele>
        <time>2022-06-30T13:58:14Z</time>
      </trkpt>
      <trkpt lat="46.50597" lon="5.377">
        <ele>235.6</ele>
        <time>2022-06-30T13:58:21Z</time>
      </trkpt>
      <trkpt lat="46.50556" lon="5.37763">
        <ele>236.6</ele>
        <time>2022-06-30T13:58:29Z</time>
      </trkpt>
      <trkpt lat="46.50533" lon="5.37799">
        <ele>238</ele>
        <time>2022-06-30T13:58:34Z</time>
      </trkpt>
      <trkpt lat="46.50525" lon="5.37813">
        <ele>239</ele>
        <time>2022-06-30T13:58:36Z</time>
      </trkpt>
      <trkpt lat="46.5052" lon="5.37819">
        <ele>239.2</ele>
        <time>2022-06-30T13:58:37Z</time>
      </trkpt>
      <trkpt lat="46.50503" lon="5.37846">
        <ele>240.2</ele>
        <time>2022-06-30T13:58:41Z</time>
      </trkpt>
      <trkpt lat="46.50494" lon="5.37859">
        <ele>240.6</ele>
        <time>2022-06-30T13:58:43Z</time>
      </trkpt>
      <trkpt lat="46.5048" lon="5.37878">
        <ele>241.6</ele>
        <time>2022-06-30T13:58:46Z</time>
      </trkpt>
      <trkpt lat="46.50463" lon="5.37902">
        <ele>242.6</ele>
        <time>2022-06-30T13:58:50Z</time>
      </trkpt>
      <trkpt lat="46.50459" lon="5.37909">
        <ele>242.6</ele>
        <time>2022-06-30T13:58:51Z</time>
      </trkpt>
      <trkpt lat="46.50452" lon="5.37922">
        <ele>243.2</ele>
        <time>2022-06-30T13:58:53Z</time>
      </trkpt>
      <trkpt lat="46.50447" lon="5.37936">
        <ele>243.6</ele>
        <time>2022-06-30T13:58:55Z</time>
      </trkpt>
      <trkpt lat="46.50444" lon="5.37942">
        <ele>243.6</ele>
        <time>2022-06-30T13:58:56Z</time>
      </trkpt>
      <trkpt lat="46.50435" lon="5.37953">
        <ele>244</ele>
        <time>2022-06-30T13:58:58Z</time>
      </trkpt>
      <trkpt lat="46.5043" lon="5.37958">
        <ele>244.2</ele>
        <time>2022-06-30T13:58:59Z</time>
      </trkpt>
      <trkpt lat="46.50422" lon="5.3797">
        <ele>244.6</ele>
        <time>2022-06-30T13:59:01Z</time>
      </trkpt>
      <trkpt lat="46.5041" lon="5.37988">
        <ele>245.4</ele>
        <time>2022-06-30T13:59:04Z</time>
      </trkpt>
      <trkpt lat="46.50405" lon="5.37994">
        <ele>245.6</ele>
        <time>2022-06-30T13:59:05Z</time>
      </trkpt>
      <trkpt lat="46.50394" lon="5.38012">
        <ele>246.6</ele>
        <time>2022-06-30T13:59:08Z</time>
      </trkpt>
      <trkpt lat="46.5039" lon="5.38018">
        <ele>246.8</ele>
        <time>2022-06-30T13:59:09Z</time>
      </trkpt>
      <trkpt lat="46.50386" lon="5.38023">
        <ele>247</ele>
        <time>2022-06-30T13:59:10Z</time>
      </trkpt>
      <trkpt lat="46.50381" lon="5.38027">
        <ele>247.4</ele>
        <time>2022-06-30T13:59:11Z</time>
      </trkpt>
      <trkpt lat="46.50376" lon="5.38029">
        <ele>247.6</ele>
        <time>2022-06-30T13:59:12Z</time>
      </trkpt>
      <trkpt lat="46.50372" lon="5.38027">
        <ele>247.8</ele>
        <time>2022-06-30T13:59:13Z</time>
      </trkpt>
      <trkpt lat="46.50369" lon="5.38022">
        <ele>247.8</ele>
        <time>2022-06-30T13:59:14Z</time>
      </trkpt>
      <trkpt lat="46.5036" lon="5.38007">
        <ele>248.2</ele>
        <time>2022-06-30T13:59:16Z</time>
      </trkpt>
      <trkpt lat="46.50361" lon="5.37982">
        <ele>248.8</ele>
        <time>2022-06-30T13:59:19Z</time>
      </trkpt>
      <trkpt lat="46.50361" lon="5.37974">
        <ele>249</ele>
        <time>2022-06-30T13:59:20Z</time>
      </trkpt>
      <trkpt lat="46.50358" lon="5.37931">
        <ele>250.2</ele>
        <time>2022-06-30T13:59:25Z</time>
      </trkpt>
      <trkpt lat="46.50356" lon="5.37922">
        <ele>250.2</ele>
        <time>2022-06-30T13:59:26Z</time>
      </trkpt>
      <trkpt lat="46.50345" lon="5.37895">
        <ele>250.4</ele>
        <time>2022-06-30T13:59:29Z</time>
      </trkpt>
      <trkpt lat="46.50341" lon="5.37887">
        <ele>250.4</ele>
        <time>2022-06-30T13:59:30Z</time>
      </trkpt>
      <trkpt lat="46.50335" lon="5.3788">
        <ele>250.4</ele>
        <time>2022-06-30T13:59:31Z</time>
      </trkpt>
      <trkpt lat="46.50311" lon="5.37855">
        <ele>250.4</ele>
        <time>2022-06-30T13:59:35Z</time>
      </trkpt>
      <trkpt lat="46.50265" lon="5.37811">
        <ele>249.4</ele>
        <time>2022-06-30T13:59:42Z</time>
      </trkpt>
      <trkpt lat="46.50258" lon="5.37805">
        <ele>249.2</ele>
        <time>2022-06-30T13:59:43Z</time>
      </trkpt>
      <trkpt lat="46.50217" lon="5.37768">
        <ele>249</ele>
        <time>2022-06-30T13:59:49Z</time>
      </trkpt>
      <trkpt lat="46.50209" lon="5.37763">
        <ele>249</ele>
        <time>2022-06-30T13:59:50Z</time>
      </trkpt>
      <trkpt lat="46.50183" lon="5.37752">
        <ele>249</ele>
        <time>2022-06-30T13:59:53Z</time>
      </trkpt>
      <trkpt lat="46.50166" lon="5.37748">
        <ele>248.8</ele>
        <time>2022-06-30T13:59:55Z</time>
      </trkpt>
      <trkpt lat="46.50135" lon="5.37739">
        <ele>248.6</ele>
        <time>2022-06-30T13:59:59Z</time>
      </trkpt>
      <trkpt lat="46.50078" lon="5.37723">
        <ele>249.2</ele>
        <time>2022-06-30T14:00:07Z</time>
      </trkpt>
      <trkpt lat="46.50043" lon="5.37706">
        <ele>249.8</ele>
        <time>2022-06-30T14:00:12Z</time>
      </trkpt>
      <trkpt lat="46.5002" lon="5.37695">
        <ele>250</ele>
        <time>2022-06-30T14:00:15Z</time>
      </trkpt>
      <trkpt lat="46.49973" lon="5.37672">
        <ele>249.8</ele>
        <time>2022-06-30T14:00:21Z</time>
      </trkpt>
      <trkpt lat="46.49915" lon="5.37649">
        <ele>249.2</ele>
        <time>2022-06-30T14:00:28Z</time>
      </trkpt>
      <trkpt lat="46.49881" lon="5.37638">
        <ele>248.8</ele>
        <time>2022-06-30T14:00:32Z</time>
      </trkpt>
      <trkpt lat="46.49846" lon="5.37624">
        <ele>248.2</ele>
        <time>2022-06-30T14:00:36Z</time>
      </trkpt>
      <trkpt lat="46.49789" lon="5.37593">
        <ele>247.8</ele>
        <time>2022-06-30T14:00:43Z</time>
      </trkpt>
      <trkpt lat="46.49749" lon="5.37567">
        <ele>247.6</ele>
        <time>2022-06-30T14:00:48Z</time>
      </trkpt>
      <trkpt lat="46.4974" lon="5.37562">
        <ele>247.6</ele>
        <time>2022-06-30T14:00:49Z</time>
      </trkpt>
      <trkpt lat="46.49691" lon="5.37534">
        <ele>247.4</ele>
        <time>2022-06-30T14:00:55Z</time>
      </trkpt>
      <trkpt lat="46.49645" lon="5.37514">
        <ele>247</ele>
        <time>2022-06-30T14:01:01Z</time>
      </trkpt>
      <trkpt lat="46.49627" lon="5.37505">
        <ele>247</ele>
        <time>2022-06-30T14:01:04Z</time>
      </trkpt>
      <trkpt lat="46.4962" lon="5.37504">
        <ele>246.8</ele>
        <time>2022-06-30T14:01:05Z</time>
      </trkpt>
      <trkpt lat="46.49614" lon="5.37505">
        <ele>246.8</ele>
        <time>2022-06-30T14:01:06Z</time>
      </trkpt>
      <trkpt lat="46.49601" lon="5.37511">
        <ele>246.8</ele>
        <time>2022-06-30T14:01:08Z</time>
      </trkpt>
      <trkpt lat="46.49579" lon="5.37531">
        <ele>247</ele>
        <time>2022-06-30T14:01:12Z</time>
      </trkpt>
      <trkpt lat="46.49556" lon="5.37551">
        <ele>247.6</ele>
        <time>2022-06-30T14:01:16Z</time>
      </trkpt>
      <trkpt lat="46.49533" lon="5.37571">
        <ele>248.8</ele>
        <time>2022-06-30T14:01:20Z</time>
      </trkpt>
      <trkpt lat="46.49504" lon="5.37595">
        <ele>249.8</ele>
        <time>2022-06-30T14:01:25Z</time>
      </trkpt>
      <trkpt lat="46.49471" lon="5.37624">
        <ele>250.8</ele>
        <time>2022-06-30T14:01:31Z</time>
      </trkpt>
      <trkpt lat="46.49455" lon="5.37638">
        <ele>251.6</ele>
        <time>2022-06-30T14:01:34Z</time>
      </trkpt>
      <trkpt lat="46.4945" lon="5.37642">
        <ele>252.2</ele>
        <time>2022-06-30T14:01:35Z</time>
      </trkpt>
      <trkpt lat="46.49428" lon="5.37664">
        <ele>253.4</ele>
        <time>2022-06-30T14:01:40Z</time>
      </trkpt>
      <trkpt lat="46.49424" lon="5.37668">
        <ele>253.8</ele>
        <time>2022-06-30T14:01:41Z</time>
      </trkpt>
      <trkpt lat="46.49416" lon="5.37679">
        <ele>254.6</ele>
        <time>2022-06-30T14:01:43Z</time>
      </trkpt>
      <trkpt lat="46.49412" lon="5.37684">
        <ele>254.8</ele>
        <time>2022-06-30T14:01:44Z</time>
      </trkpt>
      <trkpt lat="46.49406" lon="5.37697">
        <ele>255.6</ele>
        <time>2022-06-30T14:01:46Z</time>
      </trkpt>
      <trkpt lat="46.49403" lon="5.37703">
        <ele>255.8</ele>
        <time>2022-06-30T14:01:47Z</time>
      </trkpt>
      <trkpt lat="46.49396" lon="5.37722">
        <ele>256.8</ele>
        <time>2022-06-30T14:01:50Z</time>
      </trkpt>
      <trkpt lat="46.49385" lon="5.37749">
        <ele>257.8</ele>
        <time>2022-06-30T14:01:54Z</time>
      </trkpt>
      <trkpt lat="46.49383" lon="5.37757">
        <ele>258</ele>
        <time>2022-06-30T14:01:55Z</time>
      </trkpt>
      <trkpt lat="46.49373" lon="5.37786">
        <ele>259.2</ele>
        <time>2022-06-30T14:01:59Z</time>
      </trkpt>
      <trkpt lat="46.49362" lon="5.37819">
        <ele>260</ele>
        <time>2022-06-30T14:02:03Z</time>
      </trkpt>
      <trkpt lat="46.49356" lon="5.37837">
        <ele>260.2</ele>
        <time>2022-06-30T14:02:05Z</time>
      </trkpt>
      <trkpt lat="46.49347" lon="5.37866">
        <ele>260.4</ele>
        <time>2022-06-30T14:02:08Z</time>
      </trkpt>
      <trkpt lat="46.49333" lon="5.37923">
        <ele>260.4</ele>
        <time>2022-06-30T14:02:13Z</time>
      </trkpt>
      <trkpt lat="46.4932" lon="5.37997">
        <ele>259.6</ele>
        <time>2022-06-30T14:02:19Z</time>
      </trkpt>
      <trkpt lat="46.49315" lon="5.38021">
        <ele>259.2</ele>
        <time>2022-06-30T14:02:21Z</time>
      </trkpt>
      <trkpt lat="46.49301" lon="5.381">
        <ele>258.8</ele>
        <time>2022-06-30T14:02:28Z</time>
      </trkpt>
      <trkpt lat="46.49299" lon="5.38111">
        <ele>259</ele>
        <time>2022-06-30T14:02:29Z</time>
      </trkpt>
      <trkpt lat="46.4929" lon="5.38162">
        <ele>259.8</ele>
        <time>2022-06-30T14:02:34Z</time>
      </trkpt>
      <trkpt lat="46.49286" lon="5.38182">
        <ele>260.2</ele>
        <time>2022-06-30T14:02:36Z</time>
      </trkpt>
      <trkpt lat="46.49275" lon="5.3824">
        <ele>261</ele>
        <time>2022-06-30T14:02:42Z</time>
      </trkpt>
      <trkpt lat="46.49273" lon="5.3825">
        <ele>261.2</ele>
        <time>2022-06-30T14:02:43Z</time>
      </trkpt>
      <trkpt lat="46.49265" lon="5.38287">
        <ele>262.2</ele>
        <time>2022-06-30T14:02:47Z</time>
      </trkpt>
      <trkpt lat="46.49257" lon="5.38323">
        <ele>263.4</ele>
        <time>2022-06-30T14:02:51Z</time>
      </trkpt>
      <trkpt lat="46.49253" lon="5.3833">
        <ele>263.6</ele>
        <time>2022-06-30T14:02:52Z</time>
      </trkpt>
      <trkpt lat="46.49249" lon="5.38335">
        <ele>263.6</ele>
        <time>2022-06-30T14:02:53Z</time>
      </trkpt>
      <trkpt lat="46.49243" lon="5.38337">
        <ele>264</ele>
        <time>2022-06-30T14:02:54Z</time>
      </trkpt>
      <trkpt lat="46.49237" lon="5.38337">
        <ele>264.2</ele>
        <time>2022-06-30T14:02:55Z</time>
      </trkpt>
      <trkpt lat="46.49223" lon="5.38329">
        <ele>264.2</ele>
        <time>2022-06-30T14:02:57Z</time>
      </trkpt>
      <trkpt lat="46.49216" lon="5.38325">
        <ele>264.4</ele>
        <time>2022-06-30T14:02:58Z</time>
      </trkpt>
      <trkpt lat="46.49185" lon="5.38309">
        <ele>264.8</ele>
        <time>2022-06-30T14:03:02Z</time>
      </trkpt>
      <trkpt lat="46.49176" lon="5.38306">
        <ele>264.8</ele>
        <time>2022-06-30T14:03:03Z</time>
      </trkpt>
      <trkpt lat="46.49125" lon="5.3829">
        <ele>263.8</ele>
        <time>2022-06-30T14:03:09Z</time>
      </trkpt>
      <trkpt lat="46.49103" lon="5.38282">
        <ele>263.6</ele>
        <time>2022-06-30T14:03:12Z</time>
      </trkpt>
      <trkpt lat="46.49097" lon="5.38277">
        <ele>263.4</ele>
        <time>2022-06-30T14:03:13Z</time>
      </trkpt>
      <trkpt lat="46.49093" lon="5.38269">
        <ele>263.2</ele>
        <time>2022-06-30T14:03:14Z</time>
      </trkpt>
      <trkpt lat="46.49086" lon="5.38249">
        <ele>262.8</ele>
        <time>2022-06-30T14:03:16Z</time>
      </trkpt>
      <trkpt lat="46.49075" lon="5.38215">
        <ele>262</ele>
        <time>2022-06-30T14:03:19Z</time>
      </trkpt>
      <trkpt lat="46.49064" lon="5.38179">
        <ele>261.2</ele>
        <time>2022-06-30T14:03:22Z</time>
      </trkpt>
      <trkpt lat="46.49061" lon="5.38166">
        <ele>261</ele>
        <time>2022-06-30T14:03:23Z</time>
      </trkpt>
      <trkpt lat="46.49045" lon="5.38119">
        <ele>259.8</ele>
        <time>2022-06-30T14:03:27Z</time>
      </trkpt>
      <trkpt lat="46.49041" lon="5.38107">
        <ele>259.2</ele>
        <time>2022-06-30T14:03:28Z</time>
      </trkpt>
      <trkpt lat="46.49025" lon="5.38056">
        <ele>258.6</ele>
        <time>2022-06-30T14:03:32Z</time>
      </trkpt>
      <trkpt lat="46.49013" lon="5.38015">
        <ele>257.4</ele>
        <time>2022-06-30T14:03:35Z</time>
      </trkpt>
      <trkpt lat="46.48997" lon="5.37959">
        <ele>256</ele>
        <time>2022-06-30T14:03:39Z</time>
      </trkpt>
      <trkpt lat="46.48988" lon="5.3793">
        <ele>255.6</ele>
        <time>2022-06-30T14:03:41Z</time>
      </trkpt>
      <trkpt lat="46.48976" lon="5.37888">
        <ele>254.8</ele>
        <time>2022-06-30T14:03:44Z</time>
      </trkpt>
      <trkpt lat="46.48956" lon="5.37821">
        <ele>253.8</ele>
        <time>2022-06-30T14:03:49Z</time>
      </trkpt>
      <trkpt lat="46.48952" lon="5.37807">
        <ele>253.8</ele>
        <time>2022-06-30T14:03:50Z</time>
      </trkpt>
      <trkpt lat="46.48929" lon="5.37731">
        <ele>253</ele>
        <time>2022-06-30T14:03:56Z</time>
      </trkpt>
      <trkpt lat="46.48908" lon="5.37663">
        <ele>252.6</ele>
        <time>2022-06-30T14:04:02Z</time>
      </trkpt>
      <trkpt lat="46.48899" lon="5.37636">
        <ele>252.4</ele>
        <time>2022-06-30T14:04:05Z</time>
      </trkpt>
      <trkpt lat="46.48894" lon="5.37629">
        <ele>252.4</ele>
        <time>2022-06-30T14:04:06Z</time>
      </trkpt>
      <trkpt lat="46.48889" lon="5.37625">
        <ele>252.4</ele>
        <time>2022-06-30T14:04:07Z</time>
      </trkpt>
      <trkpt lat="46.48878" lon="5.37624">
        <ele>252.6</ele>
        <time>2022-06-30T14:04:09Z</time>
      </trkpt>
      <trkpt lat="46.48872" lon="5.37624">
        <ele>252.6</ele>
        <time>2022-06-30T14:04:10Z</time>
      </trkpt>
      <trkpt lat="46.48861" lon="5.37619">
        <ele>252.6</ele>
        <time>2022-06-30T14:04:12Z</time>
      </trkpt>
      <trkpt lat="46.48857" lon="5.37614">
        <ele>252.6</ele>
        <time>2022-06-30T14:04:13Z</time>
      </trkpt>
      <trkpt lat="46.48852" lon="5.3761">
        <ele>252.6</ele>
        <time>2022-06-30T14:04:14Z</time>
      </trkpt>
      <trkpt lat="46.48836" lon="5.37595">
        <ele>252.8</ele>
        <time>2022-06-30T14:04:17Z</time>
      </trkpt>
      <trkpt lat="46.48834" lon="5.37588">
        <ele>253</ele>
        <time>2022-06-30T14:04:18Z</time>
      </trkpt>
      <trkpt lat="46.4883" lon="5.37572">
        <ele>253.4</ele>
        <time>2022-06-30T14:04:20Z</time>
      </trkpt>
      <trkpt lat="46.48827" lon="5.37564">
        <ele>253.8</ele>
        <time>2022-06-30T14:04:21Z</time>
      </trkpt>
      <trkpt lat="46.48824" lon="5.37556">
        <ele>254</ele>
        <time>2022-06-30T14:04:22Z</time>
      </trkpt>
      <trkpt lat="46.48811" lon="5.37525">
        <ele>255</ele>
        <time>2022-06-30T14:04:26Z</time>
      </trkpt>
      <trkpt lat="46.48804" lon="5.3751">
        <ele>255.4</ele>
        <time>2022-06-30T14:04:28Z</time>
      </trkpt>
      <trkpt lat="46.48793" lon="5.37489">
        <ele>256</ele>
        <time>2022-06-30T14:04:31Z</time>
      </trkpt>
      <trkpt lat="46.48772" lon="5.37453">
        <ele>257</ele>
        <time>2022-06-30T14:04:36Z</time>
      </trkpt>
      <trkpt lat="46.48739" lon="5.374">
        <ele>256.6</ele>
        <time>2022-06-30T14:04:42Z</time>
      </trkpt>
      <trkpt lat="46.48706" lon="5.37347">
        <ele>256</ele>
        <time>2022-06-30T14:04:48Z</time>
      </trkpt>
      <trkpt lat="46.487" lon="5.37339">
        <ele>255.8</ele>
        <time>2022-06-30T14:04:49Z</time>
      </trkpt>
      <trkpt lat="46.48662" lon="5.37286">
        <ele>255.2</ele>
        <time>2022-06-30T14:04:56Z</time>
      </trkpt>
    </trkseg>
  </trk>
</gpx>